<?xml version='1.0' encoding='UTF-8'?><gpx version="1.1" creator="JPX - https://github.com/jenetics/jpx" xmlns="http://www.topografix.com/GPX/1/1"><trk><trkseg><trkpt lat="44.2693683" lon="8.426811"><ele>24.0</ele><time>2026-05-02T13:31:22.974Z</time></trkpt><trkpt lat="44.2694768" lon="8.4268779"><ele>24.0</ele><time>2026-05-02T13:31:41.974Z</time></trkpt><trkpt lat="44.2695526" lon="8.4269451"><ele>24.0</ele><time>2026-05-02T13:31:42.974Z</time></trkpt><trkpt lat="44.2696326" lon="8.4270409"><ele>24.0</ele><time>2026-05-02T13:31:43.975Z</time></trkpt><trkpt lat="44.2697395" lon="8.4271759"><ele>23.0</ele><time>2026-05-02T13:31:44.975Z</time></trkpt><trkpt lat="44.2698681" lon="8.4273296"><ele>22.0</ele><time>2026-05-02T13:31:45.974Z</time></trkpt><trkpt lat="44.2699992" lon="8.4275005"><ele>21.0</ele><time>2026-05-02T13:31:46.976Z</time></trkpt><trkpt lat="44.2701359" lon="8.4276744"><ele>21.0</ele><time>2026-05-02T13:31:47.975Z</time></trkpt><trkpt lat="44.2702808" lon="8.4278561"><ele>21.0</ele><time>2026-05-02T13:31:48.974Z</time></trkpt><trkpt lat="44.2704144" lon="8.4280209"><ele>21.0</ele><time>2026-05-02T13:31:49.974Z</time></trkpt><trkpt lat="44.2705345" lon="8.4281798"><ele>18.333333333333332</ele><time>2026-05-02T13:31:50.976Z</time></trkpt><trkpt lat="44.2706626" lon="8.4283442"><ele>15.666666666666666</ele><time>2026-05-02T13:31:51.975Z</time></trkpt><trkpt lat="44.2707984" lon="8.4285186"><ele>13.0</ele><time>2026-05-02T13:31:52.975Z</time></trkpt><trkpt lat="44.2709429" lon="8.428695"><ele>13.333333333333332</ele><time>2026-05-02T13:31:53.976Z</time></trkpt><trkpt lat="44.2710899" lon="8.4288784"><ele>13.666666666666668</ele><time>2026-05-02T13:31:54.975Z</time></trkpt><trkpt lat="44.271227" lon="8.4290639"><ele>14.0</ele><time>2026-05-02T13:31:55.974Z</time></trkpt><trkpt lat="44.2713582" lon="8.4292445"><ele>14.0</ele><time>2026-05-02T13:31:56.975Z</time></trkpt><trkpt lat="44.2714766" lon="8.4294228"><ele>14.0</ele><time>2026-05-02T13:31:57.977Z</time></trkpt><trkpt lat="44.2715854" lon="8.4295936"><ele>14.0</ele><time>2026-05-02T13:31:58.975Z</time></trkpt><trkpt lat="44.2716873" lon="8.4297554"><ele>14.25</ele><time>2026-05-02T13:31:59.974Z</time></trkpt><trkpt lat="44.2717839" lon="8.4299091"><ele>14.5</ele><time>2026-05-02T13:32:00.974Z</time></trkpt><trkpt lat="44.2718719" lon="8.4300451"><ele>14.75</ele><time>2026-05-02T13:32:01.974Z</time></trkpt><trkpt lat="44.2719495" lon="8.4301693"><ele>15.0</ele><time>2026-05-02T13:32:02.974Z</time></trkpt><trkpt lat="44.2720145" lon="8.4302854"><ele>15.0</ele><time>2026-05-02T13:32:03.976Z</time></trkpt><trkpt lat="44.2720627" lon="8.4303885"><ele>15.0</ele><time>2026-05-02T13:32:04.975Z</time></trkpt><trkpt lat="44.2720909" lon="8.430469"><ele>15.0</ele><time>2026-05-02T13:32:05.974Z</time></trkpt><trkpt lat="44.2721414" lon="8.4305694"><ele>15.0</ele><time>2026-05-02T13:32:07.974Z</time></trkpt><trkpt lat="44.2721651" lon="8.4304298"><ele>15.0</ele><time>2026-05-02T13:32:17.976Z</time></trkpt><trkpt lat="44.2721366" lon="8.4303333"><ele>15.0</ele><time>2026-05-02T13:32:18.977Z</time></trkpt><trkpt lat="44.272087" lon="8.4302181"><ele>15.0</ele><time>2026-05-02T13:32:19.975Z</time></trkpt><trkpt lat="44.2720295" lon="8.4300954"><ele>15.0</ele><time>2026-05-02T13:32:20.976Z</time></trkpt><trkpt lat="44.2719526" lon="8.4299578"><ele>15.0</ele><time>2026-05-02T13:32:21.975Z</time></trkpt><trkpt lat="44.2718795" lon="8.4298152"><ele>15.0</ele><time>2026-05-02T13:32:22.975Z</time></trkpt><trkpt lat="44.2717825" lon="8.4296485"><ele>14.666666666666668</ele><time>2026-05-02T13:32:23.976Z</time></trkpt><trkpt lat="44.271651" lon="8.4294553"><ele>14.333333333333334</ele><time>2026-05-02T13:32:24.976Z</time></trkpt><trkpt lat="44.2714968" lon="8.4292412"><ele>14.0</ele><time>2026-05-02T13:32:25.974Z</time></trkpt><trkpt lat="44.2713341" lon="8.4290303"><ele>14.0</ele><time>2026-05-02T13:32:26.975Z</time></trkpt><trkpt lat="44.2711526" lon="8.428816"><ele>14.0</ele><time>2026-05-02T13:32:27.976Z</time></trkpt><trkpt lat="44.2709669" lon="8.4286021"><ele>13.5</ele><time>2026-05-02T13:32:28.975Z</time></trkpt><trkpt lat="44.2707839" lon="8.4283595"><ele>13.0</ele><time>2026-05-02T13:32:29.976Z</time></trkpt><trkpt lat="44.270615" lon="8.4281261"><ele>15.666666666666666</ele><time>2026-05-02T13:32:30.975Z</time></trkpt><trkpt lat="44.2704546" lon="8.4279007"><ele>18.333333333333332</ele><time>2026-05-02T13:32:31.976Z</time></trkpt><trkpt lat="44.2702973" lon="8.4276899"><ele>21.0</ele><time>2026-05-02T13:32:32.974Z</time></trkpt><trkpt lat="44.2701387" lon="8.4274854"><ele>21.0</ele><time>2026-05-02T13:32:33.974Z</time></trkpt><trkpt lat="44.2699689" lon="8.4272838"><ele>21.0</ele><time>2026-05-02T13:32:34.977Z</time></trkpt><trkpt lat="44.2698009" lon="8.427079"><ele>21.0</ele><time>2026-05-02T13:32:35.975Z</time></trkpt><trkpt lat="44.2696386" lon="8.4268798"><ele>22.0</ele><time>2026-05-02T13:32:36.976Z</time></trkpt><trkpt lat="44.2694926" lon="8.4266931"><ele>23.0</ele><time>2026-05-02T13:32:37.975Z</time></trkpt><trkpt lat="44.2693596" lon="8.4265175"><ele>24.0</ele><time>2026-05-02T13:32:38.975Z</time></trkpt><trkpt lat="44.2692291" lon="8.4263518"><ele>23.333333333333332</ele><time>2026-05-02T13:32:39.976Z</time></trkpt><trkpt lat="44.2690994" lon="8.4262023"><ele>22.666666666666664</ele><time>2026-05-02T13:32:40.975Z</time></trkpt><trkpt lat="44.2689743" lon="8.4260572"><ele>22.0</ele><time>2026-05-02T13:32:41.974Z</time></trkpt><trkpt lat="44.2688638" lon="8.4259183"><ele>21.400000000000002</ele><time>2026-05-02T13:32:42.975Z</time></trkpt><trkpt lat="44.2687671" lon="8.4257988"><ele>20.8</ele><time>2026-05-02T13:32:43.974Z</time></trkpt><trkpt lat="44.2686827" lon="8.4256924"><ele>20.2</ele><time>2026-05-02T13:32:44.975Z</time></trkpt><trkpt lat="44.2686281" lon="8.4255859"><ele>19.6</ele><time>2026-05-02T13:32:45.974Z</time></trkpt><trkpt lat="44.2685811" lon="8.4254816"><ele>19.0</ele><time>2026-05-02T13:32:46.975Z</time></trkpt><trkpt lat="44.2685416" lon="8.4253693"><ele>19.0</ele><time>2026-05-02T13:32:47.975Z</time></trkpt><trkpt lat="44.2685132" lon="8.4252385"><ele>19.0</ele><time>2026-05-02T13:32:48.975Z</time></trkpt><trkpt lat="44.2684969" lon="8.4250967"><ele>19.0</ele><time>2026-05-02T13:32:49.974Z</time></trkpt><trkpt lat="44.2684878" lon="8.4249377"><ele>19.0</ele><time>2026-05-02T13:32:50.974Z</time></trkpt><trkpt lat="44.2684873" lon="8.4247843"><ele>19.0</ele><time>2026-05-02T13:32:51.974Z</time></trkpt><trkpt lat="44.2684899" lon="8.4246363"><ele>19.799999999999997</ele><time>2026-05-02T13:32:52.975Z</time></trkpt><trkpt lat="44.2684955" lon="8.4244815"><ele>20.599999999999998</ele><time>2026-05-02T13:32:53.976Z</time></trkpt><trkpt lat="44.2684945" lon="8.4243311"><ele>21.4</ele><time>2026-05-02T13:32:54.976Z</time></trkpt><trkpt lat="44.2684813" lon="8.4241998"><ele>22.2</ele><time>2026-05-02T13:32:55.976Z</time></trkpt><trkpt lat="44.2684486" lon="8.4240852"><ele>23.0</ele><time>2026-05-02T13:32:56.975Z</time></trkpt><trkpt lat="44.2683983" lon="8.4239788"><ele>23.0</ele><time>2026-05-02T13:32:57.975Z</time></trkpt><trkpt lat="44.2683244" lon="8.4239045"><ele>23.0</ele><time>2026-05-02T13:32:58.975Z</time></trkpt><trkpt lat="44.2682417" lon="8.4238594"><ele>23.0</ele><time>2026-05-02T13:32:59.974Z</time></trkpt><trkpt lat="44.2681559" lon="8.4238498"><ele>23.0</ele><time>2026-05-02T13:33:00.975Z</time></trkpt><trkpt lat="44.2680737" lon="8.4238672"><ele>23.0</ele><time>2026-05-02T13:33:01.974Z</time></trkpt><trkpt lat="44.2679855" lon="8.4239139"><ele>23.0</ele><time>2026-05-02T13:33:02.974Z</time></trkpt><trkpt lat="44.2678966" lon="8.4239762"><ele>23.75</ele><time>2026-05-02T13:33:03.975Z</time></trkpt><trkpt lat="44.2678072" lon="8.424057"><ele>24.5</ele><time>2026-05-02T13:33:04.975Z</time></trkpt><trkpt lat="44.2676917" lon="8.4242179"><ele>25.25</ele><time>2026-05-02T13:33:05.974Z</time></trkpt><trkpt lat="44.2675749" lon="8.424381"><ele>26.0</ele><time>2026-05-02T13:33:06.974Z</time></trkpt><trkpt lat="44.2674515" lon="8.4245523"><ele>25.25</ele><time>2026-05-02T13:33:07.974Z</time></trkpt><trkpt lat="44.2673359" lon="8.4247042"><ele>24.5</ele><time>2026-05-02T13:33:08.974Z</time></trkpt><trkpt lat="44.2672231" lon="8.424838"><ele>23.75</ele><time>2026-05-02T13:33:09.975Z</time></trkpt><trkpt lat="44.2671093" lon="8.4249506"><ele>23.0</ele><time>2026-05-02T13:33:10.975Z</time></trkpt><trkpt lat="44.2669907" lon="8.4250577"><ele>23.0</ele><time>2026-05-02T13:33:11.976Z</time></trkpt><trkpt lat="44.2668612" lon="8.4251294"><ele>23.0</ele><time>2026-05-02T13:33:12.975Z</time></trkpt><trkpt lat="44.2667354" lon="8.4251977"><ele>23.0</ele><time>2026-05-02T13:33:13.975Z</time></trkpt><trkpt lat="44.2666213" lon="8.4252677"><ele>23.0</ele><time>2026-05-02T13:33:14.976Z</time></trkpt><trkpt lat="44.266511" lon="8.4253357"><ele>21.799999999999997</ele><time>2026-05-02T13:33:15.976Z</time></trkpt><trkpt lat="44.2664029" lon="8.4253981"><ele>20.599999999999998</ele><time>2026-05-02T13:33:16.975Z</time></trkpt><trkpt lat="44.2662982" lon="8.4254625"><ele>19.4</ele><time>2026-05-02T13:33:17.975Z</time></trkpt><trkpt lat="44.2662004" lon="8.4255296"><ele>18.2</ele><time>2026-05-02T13:33:18.975Z</time></trkpt><trkpt lat="44.2661095" lon="8.4256055"><ele>17.0</ele><time>2026-05-02T13:33:19.975Z</time></trkpt><trkpt lat="44.2660281" lon="8.4256846"><ele>16.833333333333336</ele><time>2026-05-02T13:33:20.975Z</time></trkpt><trkpt lat="44.2659491" lon="8.4257622"><ele>16.666666666666668</ele><time>2026-05-02T13:33:21.976Z</time></trkpt><trkpt lat="44.2658898" lon="8.4258329"><ele>16.5</ele><time>2026-05-02T13:33:22.975Z</time></trkpt><trkpt lat="44.2658425" lon="8.4258965"><ele>16.333333333333332</ele><time>2026-05-02T13:33:23.976Z</time></trkpt><trkpt lat="44.2657822" lon="8.4259985"><ele>16.166666666666664</ele><time>2026-05-02T13:33:25.974Z</time></trkpt><trkpt lat="44.2657277" lon="8.4260872"><ele>16.0</ele><time>2026-05-02T13:33:35.975Z</time></trkpt><trkpt lat="44.2656742" lon="8.4261363"><ele>15.999999999999998</ele><time>2026-05-02T13:33:36.975Z</time></trkpt><trkpt lat="44.2656132" lon="8.426208"><ele>16.0</ele><time>2026-05-02T13:33:37.975Z</time></trkpt><trkpt lat="44.2655471" lon="8.4262727"><ele>16.0</ele><time>2026-05-02T13:33:38.975Z</time></trkpt><trkpt lat="44.2654785" lon="8.4263279"><ele>16.0</ele><time>2026-05-02T13:33:39.976Z</time></trkpt><trkpt lat="44.2654055" lon="8.426398"><ele>15.999999999999998</ele><time>2026-05-02T13:33:40.974Z</time></trkpt><trkpt lat="44.2653379" lon="8.426472"><ele>16.0</ele><time>2026-05-02T13:33:41.975Z</time></trkpt><trkpt lat="44.2652678" lon="8.4265382"><ele>16.0</ele><time>2026-05-02T13:33:42.976Z</time></trkpt><trkpt lat="44.2651909" lon="8.4265991"><ele>16.0</ele><time>2026-05-02T13:33:43.974Z</time></trkpt><trkpt lat="44.265107" lon="8.4266635"><ele>16.0</ele><time>2026-05-02T13:33:44.975Z</time></trkpt><trkpt lat="44.2650052" lon="8.4267259"><ele>16.0</ele><time>2026-05-02T13:33:45.976Z</time></trkpt><trkpt lat="44.2648847" lon="8.4267672"><ele>16.0</ele><time>2026-05-02T13:33:46.974Z</time></trkpt><trkpt lat="44.264748" lon="8.4267935"><ele>16.0</ele><time>2026-05-02T13:33:47.975Z</time></trkpt><trkpt lat="44.2646004" lon="8.4267996"><ele>16.0</ele><time>2026-05-02T13:33:48.975Z</time></trkpt><trkpt lat="44.2644475" lon="8.4267963"><ele>16.0</ele><time>2026-05-02T13:33:49.975Z</time></trkpt><trkpt lat="44.2642754" lon="8.4267993"><ele>16.0</ele><time>2026-05-02T13:33:50.974Z</time></trkpt><trkpt lat="44.2641034" lon="8.4268039"><ele>16.0</ele><time>2026-05-02T13:33:51.975Z</time></trkpt><trkpt lat="44.2639292" lon="8.4268177"><ele>16.0</ele><time>2026-05-02T13:33:52.974Z</time></trkpt><trkpt lat="44.2637458" lon="8.4268612"><ele>16.0</ele><time>2026-05-02T13:33:53.975Z</time></trkpt><trkpt lat="44.2635529" lon="8.4269384"><ele>16.0</ele><time>2026-05-02T13:33:54.976Z</time></trkpt><trkpt lat="44.2633542" lon="8.4270287"><ele>16.0</ele><time>2026-05-02T13:33:55.975Z</time></trkpt><trkpt lat="44.2631537" lon="8.4271156"><ele>17.333333333333332</ele><time>2026-05-02T13:33:56.975Z</time></trkpt><trkpt lat="44.2629503" lon="8.4271918"><ele>18.666666666666668</ele><time>2026-05-02T13:33:57.976Z</time></trkpt><trkpt lat="44.2627381" lon="8.4272438"><ele>20.0</ele><time>2026-05-02T13:33:58.974Z</time></trkpt><trkpt lat="44.26252" lon="8.4272778"><ele>20.0</ele><time>2026-05-02T13:33:59.974Z</time></trkpt><trkpt lat="44.2622924" lon="8.4273208"><ele>20.0</ele><time>2026-05-02T13:34:00.976Z</time></trkpt><trkpt lat="44.2620492" lon="8.4273778"><ele>22.5</ele><time>2026-05-02T13:34:01.974Z</time></trkpt><trkpt lat="44.2618041" lon="8.4274362"><ele>25.0</ele><time>2026-05-02T13:34:02.975Z</time></trkpt><trkpt lat="44.2615658" lon="8.4274881"><ele>27.5</ele><time>2026-05-02T13:34:03.974Z</time></trkpt><trkpt lat="44.2613321" lon="8.427523"><ele>30.0</ele><time>2026-05-02T13:34:04.976Z</time></trkpt><trkpt lat="44.2611059" lon="8.4275459"><ele>30.0</ele><time>2026-05-02T13:34:05.975Z</time></trkpt><trkpt lat="44.2608813" lon="8.4275597"><ele>30.0</ele><time>2026-05-02T13:34:06.975Z</time></trkpt><trkpt lat="44.260658" lon="8.4275676"><ele>30.0</ele><time>2026-05-02T13:34:07.974Z</time></trkpt><trkpt lat="44.2604341" lon="8.4275718"><ele>29.666666666666664</ele><time>2026-05-02T13:34:08.974Z</time></trkpt><trkpt lat="44.2602088" lon="8.4275807"><ele>29.333333333333332</ele><time>2026-05-02T13:34:09.975Z</time></trkpt><trkpt lat="44.2599899" lon="8.4275983"><ele>29.0</ele><time>2026-05-02T13:34:10.974Z</time></trkpt><trkpt lat="44.2597733" lon="8.4276173"><ele>30.0</ele><time>2026-05-02T13:34:11.976Z</time></trkpt><trkpt lat="44.2595661" lon="8.4276268"><ele>31.0</ele><time>2026-05-02T13:34:12.974Z</time></trkpt><trkpt lat="44.2593657" lon="8.4276194"><ele>32.0</ele><time>2026-05-02T13:34:13.975Z</time></trkpt><trkpt lat="44.259168" lon="8.42759"><ele>32.0</ele><time>2026-05-02T13:34:14.975Z</time></trkpt><trkpt lat="44.2589888" lon="8.4275531"><ele>32.0</ele><time>2026-05-02T13:34:15.974Z</time></trkpt><trkpt lat="44.2588176" lon="8.4275132"><ele>32.0</ele><time>2026-05-02T13:34:16.975Z</time></trkpt><trkpt lat="44.2586717" lon="8.4274808"><ele>35.75</ele><time>2026-05-02T13:34:17.974Z</time></trkpt><trkpt lat="44.2585277" lon="8.427477"><ele>39.5</ele><time>2026-05-02T13:34:18.974Z</time></trkpt><trkpt lat="44.258392" lon="8.4275103"><ele>43.25</ele><time>2026-05-02T13:34:19.975Z</time></trkpt><trkpt lat="44.2582703" lon="8.4275961"><ele>47.0</ele><time>2026-05-02T13:34:20.974Z</time></trkpt><trkpt lat="44.2581615" lon="8.4277237"><ele>48.5</ele><time>2026-05-02T13:34:21.975Z</time></trkpt><trkpt lat="44.2580765" lon="8.4278805"><ele>50.0</ele><time>2026-05-02T13:34:22.974Z</time></trkpt><trkpt lat="44.2580205" lon="8.4280628"><ele>51.5</ele><time>2026-05-02T13:34:23.976Z</time></trkpt><trkpt lat="44.2579925" lon="8.4282537"><ele>53.0</ele><time>2026-05-02T13:34:24.974Z</time></trkpt><trkpt lat="44.2579953" lon="8.4284304"><ele>54.0</ele><time>2026-05-02T13:34:25.975Z</time></trkpt><trkpt lat="44.2580277" lon="8.4285993"><ele>55.0</ele><time>2026-05-02T13:34:26.973Z</time></trkpt><trkpt lat="44.2580859" lon="8.4287628"><ele>56.0</ele><time>2026-05-02T13:34:27.974Z</time></trkpt><trkpt lat="44.2581735" lon="8.4289094"><ele>57.0</ele><time>2026-05-02T13:34:28.975Z</time></trkpt><trkpt lat="44.2582858" lon="8.429022"><ele>57.0</ele><time>2026-05-02T13:34:29.974Z</time></trkpt><trkpt lat="44.258414" lon="8.4291033"><ele>57.0</ele><time>2026-05-02T13:34:30.974Z</time></trkpt><trkpt lat="44.2585522" lon="8.429145"><ele>57.0</ele><time>2026-05-02T13:34:31.974Z</time></trkpt><trkpt lat="44.2587201" lon="8.4291582"><ele>57.0</ele><time>2026-05-02T13:34:32.974Z</time></trkpt><trkpt lat="44.2589081" lon="8.4291485"><ele>57.0</ele><time>2026-05-02T13:34:33.975Z</time></trkpt><trkpt lat="44.2590956" lon="8.4291391"><ele>57.0</ele><time>2026-05-02T13:34:34.974Z</time></trkpt><trkpt lat="44.2592703" lon="8.4291459"><ele>58.0</ele><time>2026-05-02T13:34:35.974Z</time></trkpt><trkpt lat="44.2594306" lon="8.4291435"><ele>59.0</ele><time>2026-05-02T13:34:36.975Z</time></trkpt><trkpt lat="44.2595737" lon="8.4291156"><ele>60.0</ele><time>2026-05-02T13:34:37.974Z</time></trkpt><trkpt lat="44.2597077" lon="8.429065"><ele>61.0</ele><time>2026-05-02T13:34:38.974Z</time></trkpt><trkpt lat="44.2598337" lon="8.428987"><ele>62.5</ele><time>2026-05-02T13:34:39.975Z</time></trkpt><trkpt lat="44.2599461" lon="8.4289047"><ele>64.0</ele><time>2026-05-02T13:34:40.976Z</time></trkpt><trkpt lat="44.2600488" lon="8.4288483"><ele>65.5</ele><time>2026-05-02T13:34:41.975Z</time></trkpt><trkpt lat="44.2601418" lon="8.4288313"><ele>67.0</ele><time>2026-05-02T13:34:42.974Z</time></trkpt><trkpt lat="44.2602754" lon="8.4289166"><ele>67.0</ele><time>2026-05-02T13:34:44.975Z</time></trkpt><trkpt lat="44.2603113" lon="8.429006"><ele>67.0</ele><time>2026-05-02T13:34:45.975Z</time></trkpt><trkpt lat="44.260332" lon="8.4291258"><ele>67.0</ele><time>2026-05-02T13:34:46.975Z</time></trkpt><trkpt lat="44.2603452" lon="8.4292664"><ele>67.0</ele><time>2026-05-02T13:34:47.975Z</time></trkpt><trkpt lat="44.2603649" lon="8.4294192"><ele>67.0</ele><time>2026-05-02T13:34:48.975Z</time></trkpt><trkpt lat="44.2603821" lon="8.4295527"><ele>67.0</ele><time>2026-05-02T13:34:49.974Z</time></trkpt><trkpt lat="44.2603889" lon="8.4296689"><ele>67.0</ele><time>2026-05-02T13:34:50.975Z</time></trkpt><trkpt lat="44.2603819" lon="8.4297574"><ele>67.0</ele><time>2026-05-02T13:34:51.974Z</time></trkpt><trkpt lat="44.260318" lon="8.4298284"><ele>67.0</ele><time>2026-05-02T13:34:53.974Z</time></trkpt><trkpt lat="44.2602481" lon="8.4297339"><ele>67.0</ele><time>2026-05-02T13:34:55.975Z</time></trkpt><trkpt lat="44.2602303" lon="8.4296427"><ele>67.0</ele><time>2026-05-02T13:34:56.975Z</time></trkpt><trkpt lat="44.2602001" lon="8.4295326"><ele>67.0</ele><time>2026-05-02T13:34:57.974Z</time></trkpt><trkpt lat="44.2601401" lon="8.4294491"><ele>67.0</ele><time>2026-05-02T13:34:58.974Z</time></trkpt><trkpt lat="44.2600577" lon="8.4293961"><ele>67.0</ele><time>2026-05-02T13:34:59.975Z</time></trkpt><trkpt lat="44.2599569" lon="8.4293873"><ele>67.0</ele><time>2026-05-02T13:35:00.975Z</time></trkpt><trkpt lat="44.2598503" lon="8.429418"><ele>67.0</ele><time>2026-05-02T13:35:01.975Z</time></trkpt><trkpt lat="44.2597435" lon="8.4295013"><ele>65.5</ele><time>2026-05-02T13:35:02.974Z</time></trkpt><trkpt lat="44.2596427" lon="8.4296003"><ele>64.0</ele><time>2026-05-02T13:35:03.973Z</time></trkpt><trkpt lat="44.2595374" lon="8.4296906"><ele>62.5</ele><time>2026-05-02T13:35:04.974Z</time></trkpt><trkpt lat="44.2594239" lon="8.4297388"><ele>61.0</ele><time>2026-05-02T13:35:05.975Z</time></trkpt><trkpt lat="44.2593018" lon="8.4297482"><ele>64.5</ele><time>2026-05-02T13:35:06.974Z</time></trkpt><trkpt lat="44.2591877" lon="8.4297345"><ele>68.0</ele><time>2026-05-02T13:35:07.973Z</time></trkpt><trkpt lat="44.2590869" lon="8.4297559"><ele>71.5</ele><time>2026-05-02T13:35:08.975Z</time></trkpt><trkpt lat="44.2589708" lon="8.4298194"><ele>75.0</ele><time>2026-05-02T13:35:09.973Z</time></trkpt><trkpt lat="44.2588508" lon="8.4299353"><ele>75.0</ele><time>2026-05-02T13:35:10.975Z</time></trkpt><trkpt lat="44.2587027" lon="8.4300957"><ele>75.0</ele><time>2026-05-02T13:35:11.975Z</time></trkpt><trkpt lat="44.258535" lon="8.4302701"><ele>75.0</ele><time>2026-05-02T13:35:12.975Z</time></trkpt><trkpt lat="44.2583662" lon="8.4304296"><ele>80.66666666666667</ele><time>2026-05-02T13:35:13.975Z</time></trkpt><trkpt lat="44.2582135" lon="8.4305759"><ele>86.33333333333334</ele><time>2026-05-02T13:35:14.975Z</time></trkpt><trkpt lat="44.2580666" lon="8.430688"><ele>92.0</ele><time>2026-05-02T13:35:15.975Z</time></trkpt><trkpt lat="44.2579132" lon="8.4307817"><ele>92.0</ele><time>2026-05-02T13:35:16.974Z</time></trkpt><trkpt lat="44.2577596" lon="8.4308626"><ele>92.0</ele><time>2026-05-02T13:35:17.976Z</time></trkpt><trkpt lat="44.2576053" lon="8.43093"><ele>92.0</ele><time>2026-05-02T13:35:18.975Z</time></trkpt><trkpt lat="44.2574503" lon="8.430991"><ele>92.0</ele><time>2026-05-02T13:35:19.973Z</time></trkpt><trkpt lat="44.2572904" lon="8.4310262"><ele>92.0</ele><time>2026-05-02T13:35:20.975Z</time></trkpt><trkpt lat="44.2571182" lon="8.4310383"><ele>92.0</ele><time>2026-05-02T13:35:21.975Z</time></trkpt><trkpt lat="44.2569191" lon="8.4310356"><ele>93.5</ele><time>2026-05-02T13:35:22.974Z</time></trkpt><trkpt lat="44.2566937" lon="8.4310258"><ele>95.0</ele><time>2026-05-02T13:35:23.975Z</time></trkpt><trkpt lat="44.2564696" lon="8.4310271"><ele>98.33333333333334</ele><time>2026-05-02T13:35:24.974Z</time></trkpt><trkpt lat="44.256292" lon="8.4310329"><ele>101.66666666666667</ele><time>2026-05-02T13:35:25.974Z</time></trkpt><trkpt lat="44.2561139" lon="8.4310114"><ele>105.0</ele><time>2026-05-02T13:35:26.974Z</time></trkpt><trkpt lat="44.2559507" lon="8.4309881"><ele>105.0</ele><time>2026-05-02T13:35:27.974Z</time></trkpt><trkpt lat="44.2557827" lon="8.4309831"><ele>105.0</ele><time>2026-05-02T13:35:28.975Z</time></trkpt><trkpt lat="44.2556142" lon="8.430989"><ele>105.0</ele><time>2026-05-02T13:35:29.974Z</time></trkpt><trkpt lat="44.2554552" lon="8.4310062"><ele>107.0</ele><time>2026-05-02T13:35:30.974Z</time></trkpt><trkpt lat="44.2553139" lon="8.4310394"><ele>109.0</ele><time>2026-05-02T13:35:31.973Z</time></trkpt><trkpt lat="44.2551764" lon="8.4310978"><ele>111.0</ele><time>2026-05-02T13:35:32.975Z</time></trkpt><trkpt lat="44.255058" lon="8.4311662"><ele>113.0</ele><time>2026-05-02T13:35:33.974Z</time></trkpt><trkpt lat="44.2549567" lon="8.4312317"><ele>112.99999999999999</ele><time>2026-05-02T13:35:34.975Z</time></trkpt><trkpt lat="44.2548643" lon="8.4312907"><ele>113.0</ele><time>2026-05-02T13:35:35.974Z</time></trkpt><trkpt lat="44.2547801" lon="8.4313303"><ele>113.0</ele><time>2026-05-02T13:35:36.974Z</time></trkpt><trkpt lat="44.254707" lon="8.4313363"><ele>113.0</ele><time>2026-05-02T13:35:37.976Z</time></trkpt><trkpt lat="44.2546427" lon="8.431302"><ele>112.99999999999999</ele><time>2026-05-02T13:35:38.975Z</time></trkpt><trkpt lat="44.2545882" lon="8.4312274"><ele>113.0</ele><time>2026-05-02T13:35:39.975Z</time></trkpt><trkpt lat="44.2545546" lon="8.4311271"><ele>118.0</ele><time>2026-05-02T13:35:40.975Z</time></trkpt><trkpt lat="44.2545542" lon="8.4309925"><ele>123.0</ele><time>2026-05-02T13:35:41.974Z</time></trkpt><trkpt lat="44.2545787" lon="8.4308481"><ele>128.0</ele><time>2026-05-02T13:35:42.974Z</time></trkpt><trkpt lat="44.2546255" lon="8.4307077"><ele>133.0</ele><time>2026-05-02T13:35:43.976Z</time></trkpt><trkpt lat="44.2546778" lon="8.4305184"><ele>132.66666666666669</ele><time>2026-05-02T13:35:44.974Z</time></trkpt><trkpt lat="44.2547269" lon="8.4303342"><ele>132.33333333333334</ele><time>2026-05-02T13:35:45.974Z</time></trkpt><trkpt lat="44.2547586" lon="8.430121"><ele>132.0</ele><time>2026-05-02T13:35:46.974Z</time></trkpt><trkpt lat="44.2547793" lon="8.4299016"><ele>130.5</ele><time>2026-05-02T13:35:47.975Z</time></trkpt><trkpt lat="44.2548065" lon="8.4296871"><ele>129.0</ele><time>2026-05-02T13:35:48.976Z</time></trkpt><trkpt lat="44.254846" lon="8.4294929"><ele>127.5</ele><time>2026-05-02T13:35:49.974Z</time></trkpt><trkpt lat="44.2548997" lon="8.4293274"><ele>126.0</ele><time>2026-05-02T13:35:50.975Z</time></trkpt><trkpt lat="44.2549604" lon="8.4291625"><ele>126.0</ele><time>2026-05-02T13:35:51.973Z</time></trkpt><trkpt lat="44.2550154" lon="8.4290262"><ele>126.0</ele><time>2026-05-02T13:35:52.974Z</time></trkpt><trkpt lat="44.255092" lon="8.4289262"><ele>126.0</ele><time>2026-05-02T13:35:53.975Z</time></trkpt><trkpt lat="44.2551583" lon="8.4288364"><ele>126.0</ele><time>2026-05-02T13:35:54.976Z</time></trkpt><trkpt lat="44.2552001" lon="8.428739"><ele>126.0</ele><time>2026-05-02T13:35:55.974Z</time></trkpt><trkpt lat="44.255208" lon="8.4286261"><ele>124.6</ele><time>2026-05-02T13:35:56.974Z</time></trkpt><trkpt lat="44.2551829" lon="8.4285211"><ele>123.19999999999999</ele><time>2026-05-02T13:35:57.974Z</time></trkpt><trkpt lat="44.2551147" lon="8.4284446"><ele>121.80000000000001</ele><time>2026-05-02T13:35:58.975Z</time></trkpt><trkpt lat="44.2550291" lon="8.4284037"><ele>120.4</ele><time>2026-05-02T13:35:59.974Z</time></trkpt><trkpt lat="44.254924" lon="8.4283996"><ele>119.0</ele><time>2026-05-02T13:36:00.974Z</time></trkpt><trkpt lat="44.2548039" lon="8.428422"><ele>117.5</ele><time>2026-05-02T13:36:01.974Z</time></trkpt><trkpt lat="44.2546819" lon="8.4284482"><ele>116.0</ele><time>2026-05-02T13:36:02.974Z</time></trkpt><trkpt lat="44.2545638" lon="8.4284773"><ele>114.5</ele><time>2026-05-02T13:36:03.973Z</time></trkpt><trkpt lat="44.2544521" lon="8.428507"><ele>113.0</ele><time>2026-05-02T13:36:04.974Z</time></trkpt><trkpt lat="44.25436" lon="8.4285586"><ele>113.0</ele><time>2026-05-02T13:36:05.974Z</time></trkpt><trkpt lat="44.2542764" lon="8.4286269"><ele>113.00000000000001</ele><time>2026-05-02T13:36:06.975Z</time></trkpt><trkpt lat="44.2542068" lon="8.4287189"><ele>113.00000000000001</ele><time>2026-05-02T13:36:07.974Z</time></trkpt><trkpt lat="44.2541613" lon="8.4288349"><ele>113.0</ele><time>2026-05-02T13:36:08.974Z</time></trkpt><trkpt lat="44.2541306" lon="8.4289754"><ele>113.0</ele><time>2026-05-02T13:36:09.974Z</time></trkpt><trkpt lat="44.2541054" lon="8.4291212"><ele>116.4</ele><time>2026-05-02T13:36:10.975Z</time></trkpt><trkpt lat="44.2540815" lon="8.4292597"><ele>119.80000000000001</ele><time>2026-05-02T13:36:11.976Z</time></trkpt><trkpt lat="44.2540533" lon="8.429392"><ele>123.2</ele><time>2026-05-02T13:36:12.974Z</time></trkpt><trkpt lat="44.2540218" lon="8.4295114"><ele>126.6</ele><time>2026-05-02T13:36:13.974Z</time></trkpt><trkpt lat="44.2539957" lon="8.4296374"><ele>130.0</ele><time>2026-05-02T13:36:14.975Z</time></trkpt><trkpt lat="44.2539707" lon="8.4297676"><ele>130.0</ele><time>2026-05-02T13:36:15.976Z</time></trkpt><trkpt lat="44.2539378" lon="8.429892"><ele>130.0</ele><time>2026-05-02T13:36:16.974Z</time></trkpt><trkpt lat="44.2538974" lon="8.4300105"><ele>130.0</ele><time>2026-05-02T13:36:17.974Z</time></trkpt><trkpt lat="44.2538495" lon="8.4301127"><ele>130.0</ele><time>2026-05-02T13:36:18.975Z</time></trkpt><trkpt lat="44.2537982" lon="8.4301995"><ele>130.0</ele><time>2026-05-02T13:36:19.974Z</time></trkpt><trkpt lat="44.2537409" lon="8.4302751"><ele>130.0</ele><time>2026-05-02T13:36:20.975Z</time></trkpt><trkpt lat="44.2536813" lon="8.4303504"><ele>130.0</ele><time>2026-05-02T13:36:21.974Z</time></trkpt><trkpt lat="44.2536136" lon="8.4304304"><ele>130.0</ele><time>2026-05-02T13:36:22.974Z</time></trkpt><trkpt lat="44.253536" lon="8.4305128"><ele>130.0</ele><time>2026-05-02T13:36:23.973Z</time></trkpt><trkpt lat="44.2534545" lon="8.4305767"><ele>130.0</ele><time>2026-05-02T13:36:24.975Z</time></trkpt><trkpt lat="44.2533721" lon="8.4306278"><ele>130.0</ele><time>2026-05-02T13:36:25.974Z</time></trkpt><trkpt lat="44.2532761" lon="8.4306634"><ele>134.75</ele><time>2026-05-02T13:36:26.975Z</time></trkpt><trkpt lat="44.2531434" lon="8.4306857"><ele>139.5</ele><time>2026-05-02T13:36:27.973Z</time></trkpt><trkpt lat="44.253" lon="8.4306841"><ele>144.25</ele><time>2026-05-02T13:36:28.973Z</time></trkpt><trkpt lat="44.2528386" lon="8.4306698"><ele>149.0</ele><time>2026-05-02T13:36:29.974Z</time></trkpt><trkpt lat="44.2526805" lon="8.4306567"><ele>151.0</ele><time>2026-05-02T13:36:30.974Z</time></trkpt><trkpt lat="44.2525391" lon="8.4306423"><ele>153.0</ele><time>2026-05-02T13:36:31.975Z</time></trkpt><trkpt lat="44.2524114" lon="8.4306366"><ele>155.0</ele><time>2026-05-02T13:36:32.973Z</time></trkpt><trkpt lat="44.2522924" lon="8.4306404"><ele>157.0</ele><time>2026-05-02T13:36:33.974Z</time></trkpt><trkpt lat="44.2521665" lon="8.4306374"><ele>158.33333333333334</ele><time>2026-05-02T13:36:34.975Z</time></trkpt><trkpt lat="44.2520705" lon="8.4306306"><ele>159.66666666666669</ele><time>2026-05-02T13:36:35.974Z</time></trkpt><trkpt lat="44.2519929" lon="8.4306028"><ele>161.0</ele><time>2026-05-02T13:36:36.975Z</time></trkpt><trkpt lat="44.251923" lon="8.4305229"><ele>162.33333333333334</ele><time>2026-05-02T13:36:37.975Z</time></trkpt><trkpt lat="44.2518811" lon="8.4304284"><ele>163.66666666666666</ele><time>2026-05-02T13:36:38.975Z</time></trkpt><trkpt lat="44.2518537" lon="8.4303108"><ele>165.0</ele><time>2026-05-02T13:36:39.975Z</time></trkpt><trkpt lat="44.2518422" lon="8.4301818"><ele>165.0</ele><time>2026-05-02T13:36:40.974Z</time></trkpt><trkpt lat="44.2518053" lon="8.4300593"><ele>165.0</ele><time>2026-05-02T13:36:41.974Z</time></trkpt><trkpt lat="44.2517384" lon="8.4299504"><ele>165.0</ele><time>2026-05-02T13:36:42.975Z</time></trkpt><trkpt lat="44.2516661" lon="8.4298568"><ele>165.0</ele><time>2026-05-02T13:36:43.976Z</time></trkpt><trkpt lat="44.2516168" lon="8.4297593"><ele>165.0</ele><time>2026-05-02T13:36:44.975Z</time></trkpt><trkpt lat="44.2515946" lon="8.4296445"><ele>162.0</ele><time>2026-05-02T13:36:45.974Z</time></trkpt><trkpt lat="44.2515823" lon="8.4295297"><ele>159.0</ele><time>2026-05-02T13:36:46.974Z</time></trkpt><trkpt lat="44.2515689" lon="8.4294225"><ele>156.0</ele><time>2026-05-02T13:36:47.974Z</time></trkpt><trkpt lat="44.2515102" lon="8.4293331"><ele>153.0</ele><time>2026-05-02T13:36:48.976Z</time></trkpt><trkpt lat="44.2514416" lon="8.4292315"><ele>150.0</ele><time>2026-05-02T13:36:49.975Z</time></trkpt><trkpt lat="44.2513682" lon="8.4291095"><ele>152.25</ele><time>2026-05-02T13:36:50.975Z</time></trkpt><trkpt lat="44.2512864" lon="8.4289743"><ele>154.5</ele><time>2026-05-02T13:36:51.975Z</time></trkpt><trkpt lat="44.2512078" lon="8.4288608"><ele>156.75</ele><time>2026-05-02T13:36:52.976Z</time></trkpt><trkpt lat="44.2511155" lon="8.428772"><ele>159.0</ele><time>2026-05-02T13:36:53.974Z</time></trkpt><trkpt lat="44.2509986" lon="8.4287044"><ele>159.0</ele><time>2026-05-02T13:36:54.974Z</time></trkpt><trkpt lat="44.2508509" lon="8.4286535"><ele>159.0</ele><time>2026-05-02T13:36:55.975Z</time></trkpt><trkpt lat="44.2506896" lon="8.4286104"><ele>159.0</ele><time>2026-05-02T13:36:56.975Z</time></trkpt><trkpt lat="44.2505228" lon="8.4285664"><ele>165.33333333333334</ele><time>2026-05-02T13:36:57.975Z</time></trkpt><trkpt lat="44.2503782" lon="8.4285124"><ele>171.66666666666669</ele><time>2026-05-02T13:36:58.974Z</time></trkpt><trkpt lat="44.2502362" lon="8.4284379"><ele>178.0</ele><time>2026-05-02T13:36:59.974Z</time></trkpt><trkpt lat="44.2501005" lon="8.4283549"><ele>178.0</ele><time>2026-05-02T13:37:00.974Z</time></trkpt><trkpt lat="44.24997" lon="8.428267"><ele>178.0</ele><time>2026-05-02T13:37:01.975Z</time></trkpt><trkpt lat="44.2498369" lon="8.4281682"><ele>178.0</ele><time>2026-05-02T13:37:02.974Z</time></trkpt><trkpt lat="44.2497045" lon="8.4280708"><ele>178.0</ele><time>2026-05-02T13:37:03.975Z</time></trkpt><trkpt lat="44.249593" lon="8.4279789"><ele>178.75</ele><time>2026-05-02T13:37:04.974Z</time></trkpt><trkpt lat="44.2494859" lon="8.4278578"><ele>179.5</ele><time>2026-05-02T13:37:05.975Z</time></trkpt><trkpt lat="44.2493922" lon="8.4277562"><ele>180.25</ele><time>2026-05-02T13:37:06.973Z</time></trkpt><trkpt lat="44.2493096" lon="8.4276315"><ele>181.0</ele><time>2026-05-02T13:37:07.974Z</time></trkpt><trkpt lat="44.2492495" lon="8.4275165"><ele>181.0</ele><time>2026-05-02T13:37:08.973Z</time></trkpt><trkpt lat="44.2492033" lon="8.4273737"><ele>181.0</ele><time>2026-05-02T13:37:09.973Z</time></trkpt><trkpt lat="44.2491634" lon="8.4272386"><ele>181.0</ele><time>2026-05-02T13:37:10.975Z</time></trkpt><trkpt lat="44.2491364" lon="8.427119"><ele>181.0</ele><time>2026-05-02T13:37:11.974Z</time></trkpt><trkpt lat="44.2491007" lon="8.4270278"><ele>181.0</ele><time>2026-05-02T13:37:12.973Z</time></trkpt><trkpt lat="44.2490082" lon="8.4269563"><ele>181.0</ele><time>2026-05-02T13:37:14.974Z</time></trkpt><trkpt lat="44.2489216" lon="8.427043"><ele>181.0</ele><time>2026-05-02T13:37:16.974Z</time></trkpt><trkpt lat="44.2489038" lon="8.4271349"><ele>181.0</ele><time>2026-05-02T13:37:17.973Z</time></trkpt><trkpt lat="44.2489205" lon="8.427255"><ele>181.0</ele><time>2026-05-02T13:37:18.975Z</time></trkpt><trkpt lat="44.2489369" lon="8.4273956"><ele>181.0</ele><time>2026-05-02T13:37:19.974Z</time></trkpt><trkpt lat="44.2489956" lon="8.4276019"><ele>181.0</ele><time>2026-05-02T13:37:20.973Z</time></trkpt><trkpt lat="44.2490506" lon="8.4277948"><ele>181.0</ele><time>2026-05-02T13:37:21.975Z</time></trkpt><trkpt lat="44.2490995" lon="8.4279819"><ele>181.0</ele><time>2026-05-02T13:37:22.975Z</time></trkpt><trkpt lat="44.2491582" lon="8.4281544"><ele>181.0</ele><time>2026-05-02T13:37:23.974Z</time></trkpt><trkpt lat="44.2492122" lon="8.4282963"><ele>183.16666666666669</ele><time>2026-05-02T13:37:24.973Z</time></trkpt><trkpt lat="44.249274" lon="8.4284289"><ele>185.33333333333334</ele><time>2026-05-02T13:37:25.974Z</time></trkpt><trkpt lat="44.2493478" lon="8.4285216"><ele>187.5</ele><time>2026-05-02T13:37:26.974Z</time></trkpt><trkpt lat="44.2494274" lon="8.428565"><ele>189.66666666666669</ele><time>2026-05-02T13:37:27.975Z</time></trkpt><trkpt lat="44.2495063" lon="8.4285834"><ele>191.83333333333334</ele><time>2026-05-02T13:37:28.973Z</time></trkpt><trkpt lat="44.2495753" lon="8.4286036"><ele>194.0</ele><time>2026-05-02T13:37:29.975Z</time></trkpt><trkpt lat="44.2496256" lon="8.4287241"><ele>194.0</ele><time>2026-05-02T13:37:31.973Z</time></trkpt><trkpt lat="44.2495714" lon="8.4288276"><ele>194.0</ele><time>2026-05-02T13:37:33.974Z</time></trkpt><trkpt lat="44.2494498" lon="8.4288212"><ele>194.0</ele><time>2026-05-02T13:37:35.975Z</time></trkpt><trkpt lat="44.2493526" lon="8.4287768"><ele>194.0</ele><time>2026-05-02T13:37:36.975Z</time></trkpt><trkpt lat="44.2492493" lon="8.4286977"><ele>194.0</ele><time>2026-05-02T13:37:37.974Z</time></trkpt><trkpt lat="44.249162" lon="8.4285962"><ele>194.0</ele><time>2026-05-02T13:37:38.974Z</time></trkpt><trkpt lat="44.2490758" lon="8.4284752"><ele>194.0</ele><time>2026-05-02T13:37:39.974Z</time></trkpt><trkpt lat="44.2489631" lon="8.428304"><ele>194.0</ele><time>2026-05-02T13:37:40.975Z</time></trkpt><trkpt lat="44.2488668" lon="8.4281624"><ele>194.0</ele><time>2026-05-02T13:37:41.975Z</time></trkpt><trkpt lat="44.2487745" lon="8.4280344"><ele>194.2</ele><time>2026-05-02T13:37:42.974Z</time></trkpt><trkpt lat="44.2487094" lon="8.4279151"><ele>194.39999999999998</ele><time>2026-05-02T13:37:43.974Z</time></trkpt><trkpt lat="44.2486522" lon="8.4278066"><ele>194.6</ele><time>2026-05-02T13:37:44.975Z</time></trkpt><trkpt lat="44.2486031" lon="8.4277228"><ele>194.8</ele><time>2026-05-02T13:37:45.974Z</time></trkpt><trkpt lat="44.2485106" lon="8.4276998"><ele>195.0</ele><time>2026-05-02T13:37:47.974Z</time></trkpt><trkpt lat="44.2484756" lon="8.427858"><ele>201.0</ele><time>2026-05-02T13:37:49.973Z</time></trkpt><trkpt lat="44.2484995" lon="8.4279874"><ele>207.0</ele><time>2026-05-02T13:37:50.975Z</time></trkpt><trkpt lat="44.2485408" lon="8.4281434"><ele>213.0</ele><time>2026-05-02T13:37:51.973Z</time></trkpt><trkpt lat="44.2486044" lon="8.4283033"><ele>219.0</ele><time>2026-05-02T13:37:52.975Z</time></trkpt><trkpt lat="44.2486807" lon="8.4284554"><ele>219.0</ele><time>2026-05-02T13:37:53.974Z</time></trkpt><trkpt lat="44.2487862" lon="8.4286033"><ele>219.0</ele><time>2026-05-02T13:37:54.976Z</time></trkpt><trkpt lat="44.2488965" lon="8.4287582"><ele>219.0</ele><time>2026-05-02T13:37:55.974Z</time></trkpt><trkpt lat="44.2489873" lon="8.4289174"><ele>217.75</ele><time>2026-05-02T13:37:56.975Z</time></trkpt><trkpt lat="44.2490705" lon="8.4290553"><ele>216.5</ele><time>2026-05-02T13:37:57.973Z</time></trkpt><trkpt lat="44.2491481" lon="8.4291764"><ele>215.25</ele><time>2026-05-02T13:37:58.973Z</time></trkpt><trkpt lat="44.2492427" lon="8.4292506"><ele>214.0</ele><time>2026-05-02T13:37:59.975Z</time></trkpt><trkpt lat="44.2493475" lon="8.4293079"><ele>214.0</ele><time>2026-05-02T13:38:00.974Z</time></trkpt><trkpt lat="44.2494918" lon="8.4293186"><ele>214.0</ele><time>2026-05-02T13:38:01.974Z</time></trkpt><trkpt lat="44.2496224" lon="8.4293387"><ele>214.0</ele><time>2026-05-02T13:38:02.975Z</time></trkpt><trkpt lat="44.2497553" lon="8.4293584"><ele>214.0</ele><time>2026-05-02T13:38:03.974Z</time></trkpt><trkpt lat="44.2498723" lon="8.4294069"><ele>211.75</ele><time>2026-05-02T13:38:04.973Z</time></trkpt><trkpt lat="44.249973" lon="8.4294533"><ele>209.5</ele><time>2026-05-02T13:38:05.973Z</time></trkpt><trkpt lat="44.2500686" lon="8.429534"><ele>207.25</ele><time>2026-05-02T13:38:06.975Z</time></trkpt><trkpt lat="44.2501648" lon="8.4296328"><ele>205.0</ele><time>2026-05-02T13:38:07.975Z</time></trkpt><trkpt lat="44.2502444" lon="8.4297435"><ele>212.0</ele><time>2026-05-02T13:38:08.974Z</time></trkpt><trkpt lat="44.2503056" lon="8.4298577"><ele>219.0</ele><time>2026-05-02T13:38:09.973Z</time></trkpt><trkpt lat="44.2503545" lon="8.4299924"><ele>226.0</ele><time>2026-05-02T13:38:10.974Z</time></trkpt><trkpt lat="44.2503899" lon="8.4301584"><ele>233.0</ele><time>2026-05-02T13:38:11.974Z</time></trkpt><trkpt lat="44.2504232" lon="8.4303484"><ele>237.5</ele><time>2026-05-02T13:38:12.974Z</time></trkpt><trkpt lat="44.2504629" lon="8.430542"><ele>242.0</ele><time>2026-05-02T13:38:13.974Z</time></trkpt><trkpt lat="44.2505138" lon="8.4307075"><ele>246.5</ele><time>2026-05-02T13:38:14.976Z</time></trkpt><trkpt lat="44.2505654" lon="8.4308518"><ele>251.0</ele><time>2026-05-02T13:38:15.974Z</time></trkpt><trkpt lat="44.2505942" lon="8.4309955"><ele>251.0</ele><time>2026-05-02T13:38:16.974Z</time></trkpt><trkpt lat="44.2506085" lon="8.4311337"><ele>251.00000000000003</ele><time>2026-05-02T13:38:17.973Z</time></trkpt><trkpt lat="44.2506113" lon="8.4312633"><ele>251.00000000000003</ele><time>2026-05-02T13:38:18.973Z</time></trkpt><trkpt lat="44.2506122" lon="8.4313692"><ele>251.0</ele><time>2026-05-02T13:38:19.974Z</time></trkpt><trkpt lat="44.2506287" lon="8.4315273"><ele>251.0</ele><time>2026-05-02T13:38:21.974Z</time></trkpt><trkpt lat="44.2506218" lon="8.4316335"><ele>251.0</ele><time>2026-05-02T13:38:23.974Z</time></trkpt><trkpt lat="44.2505394" lon="8.4316283"><ele>251.00000000000003</ele><time>2026-05-02T13:38:26.975Z</time></trkpt><trkpt lat="44.2505199" lon="8.4314798"><ele>251.00000000000003</ele><time>2026-05-02T13:38:28.974Z</time></trkpt><trkpt lat="44.2505219" lon="8.4313598"><ele>251.0</ele><time>2026-05-02T13:38:29.974Z</time></trkpt><trkpt lat="44.2505127" lon="8.4312322"><ele>251.0</ele><time>2026-05-02T13:38:30.976Z</time></trkpt><trkpt lat="44.2504815" lon="8.431108"><ele>251.0</ele><time>2026-05-02T13:38:31.975Z</time></trkpt><trkpt lat="44.2504226" lon="8.4309848"><ele>251.0</ele><time>2026-05-02T13:38:32.974Z</time></trkpt><trkpt lat="44.2503349" lon="8.4308602"><ele>251.0</ele><time>2026-05-02T13:38:33.974Z</time></trkpt><trkpt lat="44.2502344" lon="8.4307214"><ele>251.0</ele><time>2026-05-02T13:38:34.974Z</time></trkpt><trkpt lat="44.250141" lon="8.4305874"><ele>246.5</ele><time>2026-05-02T13:38:35.975Z</time></trkpt><trkpt lat="44.2500553" lon="8.4304496"><ele>242.0</ele><time>2026-05-02T13:38:36.976Z</time></trkpt><trkpt lat="44.2499826" lon="8.4303168"><ele>237.5</ele><time>2026-05-02T13:38:37.974Z</time></trkpt><trkpt lat="44.2499144" lon="8.4301913"><ele>233.0</ele><time>2026-05-02T13:38:38.974Z</time></trkpt><trkpt lat="44.2498515" lon="8.4300736"><ele>235.33333333333334</ele><time>2026-05-02T13:38:39.975Z</time></trkpt><trkpt lat="44.249784" lon="8.4299671"><ele>237.66666666666669</ele><time>2026-05-02T13:38:40.975Z</time></trkpt><trkpt lat="44.2497196" lon="8.4298785"><ele>240.0</ele><time>2026-05-02T13:38:41.975Z</time></trkpt><trkpt lat="44.2496525" lon="8.4298235"><ele>242.33333333333331</ele><time>2026-05-02T13:38:42.974Z</time></trkpt><trkpt lat="44.2495794" lon="8.4297897"><ele>244.66666666666666</ele><time>2026-05-02T13:38:43.974Z</time></trkpt><trkpt lat="44.2494883" lon="8.4297767"><ele>247.0</ele><time>2026-05-02T13:38:44.974Z</time></trkpt><trkpt lat="44.249392" lon="8.4297768"><ele>247.0</ele><time>2026-05-02T13:38:45.974Z</time></trkpt><trkpt lat="44.2492847" lon="8.4297839"><ele>247.0</ele><time>2026-05-02T13:38:46.973Z</time></trkpt><trkpt lat="44.2491753" lon="8.4297752"><ele>247.0</ele><time>2026-05-02T13:38:47.974Z</time></trkpt><trkpt lat="44.2490425" lon="8.4297323"><ele>247.0</ele><time>2026-05-02T13:38:48.976Z</time></trkpt><trkpt lat="44.2489228" lon="8.4297082"><ele>248.8</ele><time>2026-05-02T13:38:49.974Z</time></trkpt><trkpt lat="44.248797" lon="8.4297066"><ele>250.6</ele><time>2026-05-02T13:38:50.974Z</time></trkpt><trkpt lat="44.2486901" lon="8.4297045"><ele>252.40000000000003</ele><time>2026-05-02T13:38:51.974Z</time></trkpt><trkpt lat="44.2485932" lon="8.429716"><ele>254.20000000000002</ele><time>2026-05-02T13:38:52.974Z</time></trkpt><trkpt lat="44.2485139" lon="8.42971"><ele>256.0</ele><time>2026-05-02T13:38:53.975Z</time></trkpt><trkpt lat="44.2484366" lon="8.4296991"><ele>256.0</ele><time>2026-05-02T13:38:54.973Z</time></trkpt><trkpt lat="44.2483745" lon="8.4296815"><ele>256.0</ele><time>2026-05-02T13:38:55.975Z</time></trkpt><trkpt lat="44.2482563" lon="8.4296395"><ele>256.0</ele><time>2026-05-02T13:38:57.975Z</time></trkpt><trkpt lat="44.2481946" lon="8.4296102"><ele>256.0</ele><time>2026-05-02T13:38:58.973Z</time></trkpt><trkpt lat="44.248105" lon="8.4295487"><ele>256.0</ele><time>2026-05-02T13:39:00.975Z</time></trkpt><trkpt lat="44.2479854" lon="8.4294264"><ele>254.8</ele><time>2026-05-02T13:39:02.974Z</time></trkpt><trkpt lat="44.2479103" lon="8.4293322"><ele>253.60000000000002</ele><time>2026-05-02T13:39:03.973Z</time></trkpt><trkpt lat="44.2478385" lon="8.4292124"><ele>252.4</ele><time>2026-05-02T13:39:04.974Z</time></trkpt><trkpt lat="44.2477691" lon="8.429097"><ele>251.2</ele><time>2026-05-02T13:39:05.975Z</time></trkpt><trkpt lat="44.247698" lon="8.4290092"><ele>250.0</ele><time>2026-05-02T13:39:06.974Z</time></trkpt><trkpt lat="44.2476118" lon="8.4289441"><ele>250.0</ele><time>2026-05-02T13:39:07.975Z</time></trkpt><trkpt lat="44.2475145" lon="8.4288952"><ele>250.0</ele><time>2026-05-02T13:39:08.974Z</time></trkpt><trkpt lat="44.2474033" lon="8.4288608"><ele>250.0</ele><time>2026-05-02T13:39:09.975Z</time></trkpt><trkpt lat="44.2472979" lon="8.4288444"><ele>250.0</ele><time>2026-05-02T13:39:10.975Z</time></trkpt><trkpt lat="44.2471978" lon="8.4288324"><ele>250.0</ele><time>2026-05-02T13:39:11.974Z</time></trkpt><trkpt lat="44.247107" lon="8.4288283"><ele>251.16666666666666</ele><time>2026-05-02T13:39:12.973Z</time></trkpt><trkpt lat="44.2470204" lon="8.4288266"><ele>252.33333333333331</ele><time>2026-05-02T13:39:13.975Z</time></trkpt><trkpt lat="44.2469543" lon="8.4288219"><ele>253.5</ele><time>2026-05-02T13:39:14.974Z</time></trkpt><trkpt lat="44.2468292" lon="8.4288081"><ele>254.66666666666669</ele><time>2026-05-02T13:39:16.975Z</time></trkpt><trkpt lat="44.2467513" lon="8.4288102"><ele>255.83333333333334</ele><time>2026-05-02T13:39:17.975Z</time></trkpt><trkpt lat="44.2466732" lon="8.4288132"><ele>257.0</ele><time>2026-05-02T13:39:18.976Z</time></trkpt><trkpt lat="44.2465543" lon="8.4288069"><ele>257.6</ele><time>2026-05-02T13:39:20.974Z</time></trkpt><trkpt lat="44.2464238" lon="8.4287655"><ele>258.2</ele><time>2026-05-02T13:39:22.975Z</time></trkpt><trkpt lat="44.2463595" lon="8.4287445"><ele>258.8</ele><time>2026-05-02T13:39:23.976Z</time></trkpt><trkpt lat="44.2462871" lon="8.4287212"><ele>259.4</ele><time>2026-05-02T13:39:24.974Z</time></trkpt><trkpt lat="44.2461657" lon="8.4287225"><ele>260.0</ele><time>2026-05-02T13:39:26.976Z</time></trkpt><trkpt lat="44.2461022" lon="8.4287352"><ele>260.0</ele><time>2026-05-02T13:39:27.976Z</time></trkpt><trkpt lat="44.2459884" lon="8.4287415"><ele>260.0</ele><time>2026-05-02T13:39:29.975Z</time></trkpt><trkpt lat="44.2458938" lon="8.4286737"><ele>260.0</ele><time>2026-05-02T13:39:31.975Z</time></trkpt><trkpt lat="44.245842" lon="8.4285814"><ele>260.0</ele><time>2026-05-02T13:39:33.973Z</time></trkpt><trkpt lat="44.2458435" lon="8.4284846"><ele>260.0</ele><time>2026-05-02T13:39:35.973Z</time></trkpt><trkpt lat="44.2458948" lon="8.4284226"><ele>260.0</ele><time>2026-05-02T13:39:37.973Z</time></trkpt><trkpt lat="44.2459594" lon="8.428369"><ele>260.0</ele><time>2026-05-02T13:39:49.974Z</time></trkpt><trkpt lat="44.2460256" lon="8.4282724"><ele>260.0</ele><time>2026-05-02T13:39:52.974Z</time></trkpt><trkpt lat="44.2460776" lon="8.4281843"><ele>260.0</ele><time>2026-05-02T13:39:54.974Z</time></trkpt><trkpt lat="44.2461104" lon="8.428062"><ele>260.0</ele><time>2026-05-02T13:39:56.973Z</time></trkpt><trkpt lat="44.246088" lon="8.4279346"><ele>260.0</ele><time>2026-05-02T13:39:58.974Z</time></trkpt><trkpt lat="44.2460409" lon="8.4278014"><ele>261.2</ele><time>2026-05-02T13:40:00.973Z</time></trkpt><trkpt lat="44.2459786" lon="8.427692"><ele>262.4</ele><time>2026-05-02T13:40:02.974Z</time></trkpt><trkpt lat="44.2459235" lon="8.4276285"><ele>263.6</ele><time>2026-05-02T13:40:04.975Z</time></trkpt><trkpt lat="44.2458679" lon="8.4275872"><ele>264.8</ele><time>2026-05-02T13:40:06.974Z</time></trkpt><trkpt lat="44.2457644" lon="8.427535"><ele>266.0</ele><time>2026-05-02T13:40:08.974Z</time></trkpt><trkpt lat="44.2456522" lon="8.4274979"><ele>266.6</ele><time>2026-05-02T13:40:10.973Z</time></trkpt><trkpt lat="44.245578" lon="8.4274519"><ele>267.20000000000005</ele><time>2026-05-02T13:40:12.973Z</time></trkpt><trkpt lat="44.2455197" lon="8.427415"><ele>267.79999999999995</ele><time>2026-05-02T13:40:14.973Z</time></trkpt><trkpt lat="44.2454418" lon="8.4273302"><ele>268.4</ele><time>2026-05-02T13:40:16.975Z</time></trkpt><trkpt lat="44.2453403" lon="8.4272662"><ele>269.0</ele><time>2026-05-02T13:40:18.974Z</time></trkpt><trkpt lat="44.2452571" lon="8.4272017"><ele>270.59999999999997</ele><time>2026-05-02T13:40:20.974Z</time></trkpt><trkpt lat="44.2451985" lon="8.4271023"><ele>272.2</ele><time>2026-05-02T13:40:22.974Z</time></trkpt><trkpt lat="44.2451552" lon="8.4269865"><ele>273.79999999999995</ele><time>2026-05-02T13:40:24.974Z</time></trkpt><trkpt lat="44.245151" lon="8.4268545"><ele>275.4</ele><time>2026-05-02T13:40:26.975Z</time></trkpt><trkpt lat="44.2451198" lon="8.426717"><ele>277.0</ele><time>2026-05-02T13:40:28.974Z</time></trkpt><trkpt lat="44.2450653" lon="8.4265686"><ele>277.0</ele><time>2026-05-02T13:40:30.973Z</time></trkpt><trkpt lat="44.245034" lon="8.426412"><ele>277.0</ele><time>2026-05-02T13:40:32.975Z</time></trkpt><trkpt lat="44.2449941" lon="8.4262763"><ele>277.0</ele><time>2026-05-02T13:40:34.973Z</time></trkpt><trkpt lat="44.2449157" lon="8.426156"><ele>277.0</ele><time>2026-05-02T13:40:36.974Z</time></trkpt><trkpt lat="44.2448205" lon="8.4260577"><ele>277.8</ele><time>2026-05-02T13:40:38.973Z</time></trkpt><trkpt lat="44.2447386" lon="8.4259361"><ele>278.6</ele><time>2026-05-02T13:40:40.973Z</time></trkpt><trkpt lat="44.2447008" lon="8.4258087"><ele>279.40000000000003</ele><time>2026-05-02T13:40:42.975Z</time></trkpt><trkpt lat="44.2446896" lon="8.4256753"><ele>280.2</ele><time>2026-05-02T13:40:44.975Z</time></trkpt><trkpt lat="44.244686" lon="8.4254914"><ele>281.0</ele><time>2026-05-02T13:40:46.973Z</time></trkpt><trkpt lat="44.2446918" lon="8.4253925"><ele>282.0</ele><time>2026-05-02T13:40:47.974Z</time></trkpt><trkpt lat="44.2447099" lon="8.4252396"><ele>283.0</ele><time>2026-05-02T13:40:49.973Z</time></trkpt><trkpt lat="44.244709" lon="8.4251517"><ele>284.0</ele><time>2026-05-02T13:40:50.973Z</time></trkpt><trkpt lat="44.2447096" lon="8.4249813"><ele>285.0</ele><time>2026-05-02T13:40:52.974Z</time></trkpt><trkpt lat="44.2447008" lon="8.4248909"><ele>286.0</ele><time>2026-05-02T13:40:53.973Z</time></trkpt><trkpt lat="44.2446946" lon="8.4247929"><ele>287.0</ele><time>2026-05-02T13:40:54.974Z</time></trkpt><trkpt lat="44.2446831" lon="8.4247052"><ele>289.33333333333337</ele><time>2026-05-02T13:40:55.974Z</time></trkpt><trkpt lat="44.2446768" lon="8.4246137"><ele>291.6666666666667</ele><time>2026-05-02T13:40:56.975Z</time></trkpt><trkpt lat="44.244681" lon="8.4244333"><ele>294.0</ele><time>2026-05-02T13:40:58.976Z</time></trkpt><trkpt lat="44.2446958" lon="8.4243415"><ele>296.3333333333333</ele><time>2026-05-02T13:40:59.974Z</time></trkpt><trkpt lat="44.2447065" lon="8.4242441"><ele>298.66666666666663</ele><time>2026-05-02T13:41:00.974Z</time></trkpt><trkpt lat="44.2447231" lon="8.4241584"><ele>301.0</ele><time>2026-05-02T13:41:01.975Z</time></trkpt><trkpt lat="44.2447504" lon="8.4240021"><ele>301.6</ele><time>2026-05-02T13:41:03.973Z</time></trkpt><trkpt lat="44.2447975" lon="8.423861"><ele>302.20000000000005</ele><time>2026-05-02T13:41:05.974Z</time></trkpt><trkpt lat="44.2448371" lon="8.4237232"><ele>302.79999999999995</ele><time>2026-05-02T13:41:07.974Z</time></trkpt><trkpt lat="44.2448982" lon="8.4236596"><ele>303.4</ele><time>2026-05-02T13:41:08.974Z</time></trkpt><trkpt lat="44.2449793" lon="8.4235508"><ele>304.0</ele><time>2026-05-02T13:41:10.974Z</time></trkpt><trkpt lat="44.2450529" lon="8.4235011"><ele>308.0</ele><time>2026-05-02T13:41:12.973Z</time></trkpt><trkpt lat="44.2451424" lon="8.4234451"><ele>312.0</ele><time>2026-05-02T13:41:14.974Z</time></trkpt><trkpt lat="44.2452002" lon="8.4234047"><ele>316.0</ele><time>2026-05-02T13:41:15.974Z</time></trkpt><trkpt lat="44.2453047" lon="8.4233486"><ele>320.0</ele><time>2026-05-02T13:41:17.974Z</time></trkpt><trkpt lat="44.2453662" lon="8.4233098"><ele>324.0</ele><time>2026-05-02T13:41:18.976Z</time></trkpt><trkpt lat="44.2454267" lon="8.4232687"><ele>328.0</ele><time>2026-05-02T13:41:19.974Z</time></trkpt><trkpt lat="44.245488" lon="8.423226"><ele>328.0</ele><time>2026-05-02T13:41:20.975Z</time></trkpt><trkpt lat="44.2455962" lon="8.423186"><ele>328.0</ele><time>2026-05-02T13:41:22.975Z</time></trkpt><trkpt lat="44.2456653" lon="8.4231627"><ele>328.0</ele><time>2026-05-02T13:41:24.974Z</time></trkpt><trkpt lat="44.2457194" lon="8.423096"><ele>328.0</ele><time>2026-05-02T13:41:26.973Z</time></trkpt><trkpt lat="44.2456956" lon="8.4229638"><ele>328.0</ele><time>2026-05-02T13:41:28.974Z</time></trkpt><trkpt lat="44.2456498" lon="8.4228085"><ele>332.3333333333333</ele><time>2026-05-02T13:41:30.975Z</time></trkpt><trkpt lat="44.2456282" lon="8.4227188"><ele>336.66666666666663</ele><time>2026-05-02T13:41:31.973Z</time></trkpt><trkpt lat="44.2456154" lon="8.4225389"><ele>341.0</ele><time>2026-05-02T13:41:33.974Z</time></trkpt><trkpt lat="44.2456124" lon="8.4224482"><ele>345.3333333333333</ele><time>2026-05-02T13:41:34.974Z</time></trkpt><trkpt lat="44.2456016" lon="8.4223463"><ele>349.6666666666667</ele><time>2026-05-02T13:41:35.974Z</time></trkpt><trkpt lat="44.2455893" lon="8.4222434"><ele>354.0</ele><time>2026-05-02T13:41:36.973Z</time></trkpt><trkpt lat="44.2455695" lon="8.4221411"><ele>356.0</ele><time>2026-05-02T13:41:37.974Z</time></trkpt><trkpt lat="44.2455643" lon="8.4219894"><ele>358.0</ele><time>2026-05-02T13:41:39.975Z</time></trkpt><trkpt lat="44.2455848" lon="8.4218272"><ele>360.0</ele><time>2026-05-02T13:41:41.973Z</time></trkpt><trkpt lat="44.2455992" lon="8.4217378"><ele>362.0</ele><time>2026-05-02T13:41:42.974Z</time></trkpt><trkpt lat="44.2455983" lon="8.421569"><ele>364.0</ele><time>2026-05-02T13:41:44.974Z</time></trkpt><trkpt lat="44.245584" lon="8.421481"><ele>364.0</ele><time>2026-05-02T13:41:45.974Z</time></trkpt><trkpt lat="44.2455571" lon="8.4213951"><ele>364.0</ele><time>2026-05-02T13:41:46.974Z</time></trkpt><trkpt lat="44.2455336" lon="8.4213093"><ele>364.0</ele><time>2026-05-02T13:41:47.974Z</time></trkpt><trkpt lat="44.24552" lon="8.4211376"><ele>364.0</ele><time>2026-05-02T13:41:49.975Z</time></trkpt><trkpt lat="44.2455176" lon="8.4209756"><ele>364.0</ele><time>2026-05-02T13:41:51.974Z</time></trkpt><trkpt lat="44.2454622" lon="8.4208356"><ele>362.3333333333333</ele><time>2026-05-02T13:41:53.974Z</time></trkpt><trkpt lat="44.2454088" lon="8.420762"><ele>360.66666666666663</ele><time>2026-05-02T13:41:54.974Z</time></trkpt><trkpt lat="44.2453558" lon="8.4207029"><ele>359.0</ele><time>2026-05-02T13:41:55.973Z</time></trkpt><trkpt lat="44.2452994" lon="8.4206558"><ele>357.3333333333333</ele><time>2026-05-02T13:41:56.974Z</time></trkpt><trkpt lat="44.2451859" lon="8.4205991"><ele>355.6666666666667</ele><time>2026-05-02T13:41:58.975Z</time></trkpt><trkpt lat="44.2450854" lon="8.4205497"><ele>354.0</ele><time>2026-05-02T13:42:00.975Z</time></trkpt><trkpt lat="44.2449934" lon="8.4204615"><ele>350.4</ele><time>2026-05-02T13:42:02.975Z</time></trkpt><trkpt lat="44.2449381" lon="8.4204002"><ele>346.79999999999995</ele><time>2026-05-02T13:42:03.974Z</time></trkpt><trkpt lat="44.2448786" lon="8.4203576"><ele>343.20000000000005</ele><time>2026-05-02T13:42:04.973Z</time></trkpt><trkpt lat="44.2447906" lon="8.4202981"><ele>339.6</ele><time>2026-05-02T13:42:06.974Z</time></trkpt><trkpt lat="44.2447307" lon="8.4202093"><ele>336.0</ele><time>2026-05-02T13:42:08.973Z</time></trkpt><trkpt lat="44.2446589" lon="8.4200598"><ele>346.20000000000005</ele><time>2026-05-02T13:42:10.975Z</time></trkpt><trkpt lat="44.2446242" lon="8.4199683"><ele>356.40000000000003</ele><time>2026-05-02T13:42:11.974Z</time></trkpt><trkpt lat="44.2445856" lon="8.4198795"><ele>366.6</ele><time>2026-05-02T13:42:12.975Z</time></trkpt><trkpt lat="44.244518" lon="8.4197446"><ele>376.8</ele><time>2026-05-02T13:42:14.973Z</time></trkpt><trkpt lat="44.2445083" lon="8.4196004"><ele>387.0</ele><time>2026-05-02T13:42:16.975Z</time></trkpt><trkpt lat="44.2445365" lon="8.4194704"><ele>387.8</ele><time>2026-05-02T13:42:18.973Z</time></trkpt><trkpt lat="44.2445742" lon="8.4193861"><ele>388.6</ele><time>2026-05-02T13:42:19.974Z</time></trkpt><trkpt lat="44.2446048" lon="8.4193067"><ele>389.40000000000003</ele><time>2026-05-02T13:42:20.974Z</time></trkpt><trkpt lat="44.2446705" lon="8.4191729"><ele>390.20000000000005</ele><time>2026-05-02T13:42:22.974Z</time></trkpt><trkpt lat="44.2447282" lon="8.4190368"><ele>391.0</ele><time>2026-05-02T13:42:24.973Z</time></trkpt><trkpt lat="44.2447543" lon="8.4188859"><ele>390.6666666666667</ele><time>2026-05-02T13:42:26.973Z</time></trkpt><trkpt lat="44.2447407" lon="8.4187116"><ele>390.33333333333337</ele><time>2026-05-02T13:42:28.974Z</time></trkpt><trkpt lat="44.2447201" lon="8.4186201"><ele>390.0</ele><time>2026-05-02T13:42:29.974Z</time></trkpt><trkpt lat="44.2446953" lon="8.4185159"><ele>389.66666666666663</ele><time>2026-05-02T13:42:30.973Z</time></trkpt><trkpt lat="44.2446809" lon="8.4184074"><ele>389.3333333333333</ele><time>2026-05-02T13:42:31.973Z</time></trkpt><trkpt lat="44.2446815" lon="8.4183021"><ele>389.0</ele><time>2026-05-02T13:42:32.973Z</time></trkpt><trkpt lat="44.2446852" lon="8.4182094"><ele>388.99999999999994</ele><time>2026-05-02T13:42:33.973Z</time></trkpt><trkpt lat="44.2446925" lon="8.4181069"><ele>389.0</ele><time>2026-05-02T13:42:34.974Z</time></trkpt><trkpt lat="44.2447082" lon="8.4179976"><ele>389.0</ele><time>2026-05-02T13:42:35.973Z</time></trkpt><trkpt lat="44.2447227" lon="8.4178761"><ele>389.0</ele><time>2026-05-02T13:42:36.974Z</time></trkpt><trkpt lat="44.2447251" lon="8.4177686"><ele>388.99999999999994</ele><time>2026-05-02T13:42:37.973Z</time></trkpt><trkpt lat="44.2447207" lon="8.417667"><ele>389.0</ele><time>2026-05-02T13:42:38.974Z</time></trkpt><trkpt lat="44.2447107" lon="8.4175628"><ele>388.3333333333333</ele><time>2026-05-02T13:42:39.974Z</time></trkpt><trkpt lat="44.2446968" lon="8.417437"><ele>387.66666666666663</ele><time>2026-05-02T13:42:40.973Z</time></trkpt><trkpt lat="44.2446779" lon="8.4173157"><ele>387.0</ele><time>2026-05-02T13:42:41.974Z</time></trkpt><trkpt lat="44.2446624" lon="8.4172002"><ele>386.33333333333337</ele><time>2026-05-02T13:42:42.973Z</time></trkpt><trkpt lat="44.244654" lon="8.4170862"><ele>385.6666666666667</ele><time>2026-05-02T13:42:43.973Z</time></trkpt><trkpt lat="44.2446572" lon="8.4169822"><ele>385.0</ele><time>2026-05-02T13:42:44.973Z</time></trkpt><trkpt lat="44.2446688" lon="8.4168886"><ele>383.8</ele><time>2026-05-02T13:42:45.975Z</time></trkpt><trkpt lat="44.2447071" lon="8.4167313"><ele>382.6</ele><time>2026-05-02T13:42:47.974Z</time></trkpt><trkpt lat="44.2447813" lon="8.4166022"><ele>381.4</ele><time>2026-05-02T13:42:49.974Z</time></trkpt><trkpt lat="44.2448226" lon="8.4165249"><ele>380.2</ele><time>2026-05-02T13:42:50.974Z</time></trkpt><trkpt lat="44.2449164" lon="8.4164042"><ele>379.0</ele><time>2026-05-02T13:42:52.973Z</time></trkpt><trkpt lat="44.2449986" lon="8.4163329"><ele>377.5</ele><time>2026-05-02T13:42:54.973Z</time></trkpt><trkpt lat="44.2450514" lon="8.4162512"><ele>376.0</ele><time>2026-05-02T13:42:56.974Z</time></trkpt><trkpt lat="44.2450777" lon="8.4161598"><ele>374.5</ele><time>2026-05-02T13:42:58.974Z</time></trkpt><trkpt lat="44.245096" lon="8.4160513"><ele>373.0</ele><time>2026-05-02T13:43:00.973Z</time></trkpt><trkpt lat="44.2450911" lon="8.4159201"><ele>371.5</ele><time>2026-05-02T13:43:02.975Z</time></trkpt><trkpt lat="44.2450846" lon="8.4158052"><ele>370.0</ele><time>2026-05-02T13:43:04.974Z</time></trkpt><trkpt lat="44.2450729" lon="8.4156887"><ele>370.0</ele><time>2026-05-02T13:43:06.974Z</time></trkpt><trkpt lat="44.2450718" lon="8.4155678"><ele>370.0</ele><time>2026-05-02T13:43:08.973Z</time></trkpt><trkpt lat="44.2450669" lon="8.4154447"><ele>370.0</ele><time>2026-05-02T13:43:10.973Z</time></trkpt><trkpt lat="44.2450658" lon="8.4153392"><ele>370.0</ele><time>2026-05-02T13:43:12.975Z</time></trkpt><trkpt lat="44.2450574" lon="8.4152235"><ele>370.0</ele><time>2026-05-02T13:43:14.974Z</time></trkpt><trkpt lat="44.2450369" lon="8.4151068"><ele>370.0</ele><time>2026-05-02T13:43:16.975Z</time></trkpt><trkpt lat="44.2450218" lon="8.4150007"><ele>369.3333333333333</ele><time>2026-05-02T13:43:18.975Z</time></trkpt><trkpt lat="44.2449972" lon="8.4148648"><ele>368.66666666666663</ele><time>2026-05-02T13:43:20.975Z</time></trkpt><trkpt lat="44.2449674" lon="8.4147398"><ele>368.0</ele><time>2026-05-02T13:43:22.974Z</time></trkpt><trkpt lat="44.2449685" lon="8.4146097"><ele>367.3333333333333</ele><time>2026-05-02T13:43:24.973Z</time></trkpt><trkpt lat="44.2450049" lon="8.4145096"><ele>366.6666666666667</ele><time>2026-05-02T13:43:26.974Z</time></trkpt><trkpt lat="44.2450061" lon="8.4144179"><ele>366.0</ele><time>2026-05-02T13:43:28.974Z</time></trkpt><trkpt lat="44.244998" lon="8.4142815"><ele>364.7142857142857</ele><time>2026-05-02T13:43:30.973Z</time></trkpt><trkpt lat="44.2449984" lon="8.4141899"><ele>363.42857142857144</ele><time>2026-05-02T13:43:32.974Z</time></trkpt><trkpt lat="44.2450045" lon="8.4140988"><ele>362.1428571428571</ele><time>2026-05-02T13:43:34.975Z</time></trkpt><trkpt lat="44.2450133" lon="8.4139965"><ele>360.8571428571429</ele><time>2026-05-02T13:43:36.973Z</time></trkpt><trkpt lat="44.2450035" lon="8.413878"><ele>359.57142857142856</ele><time>2026-05-02T13:43:39.974Z</time></trkpt><trkpt lat="44.2449925" lon="8.4137869"><ele>358.2857142857143</ele><time>2026-05-02T13:43:41.974Z</time></trkpt><trkpt lat="44.2449971" lon="8.4136868"><ele>357.0</ele><time>2026-05-02T13:43:43.973Z</time></trkpt><trkpt lat="44.245027" lon="8.4135899"><ele>356.14285714285717</ele><time>2026-05-02T13:43:46.973Z</time></trkpt><trkpt lat="44.2450617" lon="8.4135013"><ele>355.2857142857143</ele><time>2026-05-02T13:43:48.973Z</time></trkpt><trkpt lat="44.2450844" lon="8.4134044"><ele>354.42857142857144</ele><time>2026-05-02T13:43:50.974Z</time></trkpt><trkpt lat="44.2450894" lon="8.4132959"><ele>353.57142857142856</ele><time>2026-05-02T13:43:52.975Z</time></trkpt><trkpt lat="44.2450763" lon="8.4132064"><ele>352.7142857142857</ele><time>2026-05-02T13:43:55.973Z</time></trkpt><trkpt lat="44.2450363" lon="8.4131287"><ele>351.8571428571429</ele><time>2026-05-02T13:44:02.974Z</time></trkpt><trkpt lat="44.2450015" lon="8.413054"><ele>351.0</ele><time>2026-05-02T13:44:05.973Z</time></trkpt><trkpt lat="44.2449799" lon="8.4129577"><ele>349.1666666666667</ele><time>2026-05-02T13:44:08.973Z</time></trkpt><trkpt lat="44.2449731" lon="8.412854"><ele>347.3333333333333</ele><time>2026-05-02T13:44:11.973Z</time></trkpt><trkpt lat="44.2449881" lon="8.4127308"><ele>345.5</ele><time>2026-05-02T13:44:14.973Z</time></trkpt><trkpt lat="44.2450061" lon="8.4126412"><ele>343.66666666666663</ele><time>2026-05-02T13:44:16.973Z</time></trkpt><trkpt lat="44.2450286" lon="8.4125259"><ele>341.8333333333333</ele><time>2026-05-02T13:44:19.973Z</time></trkpt><trkpt lat="44.2450737" lon="8.412426"><ele>340.0</ele><time>2026-05-02T13:44:22.974Z</time></trkpt><trkpt lat="44.2450905" lon="8.4123341"><ele>340.0</ele><time>2026-05-02T13:44:24.973Z</time></trkpt><trkpt lat="44.2450991" lon="8.4122287"><ele>340.0</ele><time>2026-05-02T13:44:26.974Z</time></trkpt><trkpt lat="44.2451085" lon="8.4121245"><ele>340.0</ele><time>2026-05-02T13:44:28.974Z</time></trkpt><trkpt lat="44.2451128" lon="8.4120221"><ele>340.0</ele><time>2026-05-02T13:44:30.973Z</time></trkpt><trkpt lat="44.2451199" lon="8.4119208"><ele>340.0</ele><time>2026-05-02T13:44:32.974Z</time></trkpt><trkpt lat="44.2451353" lon="8.411824"><ele>340.0</ele><time>2026-05-02T13:44:34.973Z</time></trkpt><trkpt lat="44.2451576" lon="8.41171"><ele>337.8333333333333</ele><time>2026-05-02T13:44:36.973Z</time></trkpt><trkpt lat="44.24518" lon="8.4115655"><ele>335.66666666666663</ele><time>2026-05-02T13:44:38.974Z</time></trkpt><trkpt lat="44.2451876" lon="8.4114757"><ele>333.5</ele><time>2026-05-02T13:44:39.975Z</time></trkpt><trkpt lat="44.2451961" lon="8.411375"><ele>331.3333333333333</ele><time>2026-05-02T13:44:40.973Z</time></trkpt><trkpt lat="44.2452007" lon="8.411285"><ele>329.1666666666667</ele><time>2026-05-02T13:44:41.973Z</time></trkpt><trkpt lat="44.2452125" lon="8.4111201"><ele>327.0</ele><time>2026-05-02T13:44:43.974Z</time></trkpt><trkpt lat="44.2452267" lon="8.4109625"><ele>325.40000000000003</ele><time>2026-05-02T13:44:45.974Z</time></trkpt><trkpt lat="44.2452506" lon="8.4107999"><ele>323.8</ele><time>2026-05-02T13:44:47.974Z</time></trkpt><trkpt lat="44.2452594" lon="8.4107059"><ele>322.2</ele><time>2026-05-02T13:44:48.973Z</time></trkpt><trkpt lat="44.24527" lon="8.410614"><ele>320.6</ele><time>2026-05-02T13:44:49.974Z</time></trkpt><trkpt lat="44.2452896" lon="8.4104499"><ele>319.0</ele><time>2026-05-02T13:44:51.974Z</time></trkpt><trkpt lat="44.2452928" lon="8.4102896"><ele>318.66666666666663</ele><time>2026-05-02T13:44:53.974Z</time></trkpt><trkpt lat="44.2452796" lon="8.410121"><ele>318.3333333333333</ele><time>2026-05-02T13:44:55.974Z</time></trkpt><trkpt lat="44.2452715" lon="8.4100325"><ele>318.0</ele><time>2026-05-02T13:44:56.973Z</time></trkpt><trkpt lat="44.2452663" lon="8.4099424"><ele>317.6666666666667</ele><time>2026-05-02T13:44:57.973Z</time></trkpt><trkpt lat="44.2452636" lon="8.4098528"><ele>317.33333333333337</ele><time>2026-05-02T13:44:58.974Z</time></trkpt><trkpt lat="44.2452564" lon="8.409681"><ele>317.0</ele><time>2026-05-02T13:45:00.973Z</time></trkpt><trkpt lat="44.2452444" lon="8.4095238"><ele>317.0</ele><time>2026-05-02T13:45:02.973Z</time></trkpt><trkpt lat="44.2452279" lon="8.4093566"><ele>317.0</ele><time>2026-05-02T13:45:04.973Z</time></trkpt><trkpt lat="44.2451893" lon="8.4091858"><ele>317.0</ele><time>2026-05-02T13:45:06.973Z</time></trkpt><trkpt lat="44.2451673" lon="8.4090976"><ele>317.0</ele><time>2026-05-02T13:45:07.973Z</time></trkpt><trkpt lat="44.2451554" lon="8.4090002"><ele>317.0</ele><time>2026-05-02T13:45:08.973Z</time></trkpt><trkpt lat="44.2451495" lon="8.4088941"><ele>318.0</ele><time>2026-05-02T13:45:09.973Z</time></trkpt><trkpt lat="44.2451465" lon="8.4087955"><ele>319.0</ele><time>2026-05-02T13:45:10.974Z</time></trkpt><trkpt lat="44.2451443" lon="8.4087006"><ele>320.0</ele><time>2026-05-02T13:45:11.973Z</time></trkpt><trkpt lat="44.2451388" lon="8.408608"><ele>321.0</ele><time>2026-05-02T13:45:12.973Z</time></trkpt><trkpt lat="44.2451144" lon="8.4085173"><ele>322.0</ele><time>2026-05-02T13:45:13.973Z</time></trkpt><trkpt lat="44.2450821" lon="8.4084392"><ele>323.0</ele><time>2026-05-02T13:45:14.974Z</time></trkpt><trkpt lat="44.2450374" lon="8.4082976"><ele>323.0</ele><time>2026-05-02T13:45:16.973Z</time></trkpt><trkpt lat="44.2450169" lon="8.4081089"><ele>323.0</ele><time>2026-05-02T13:45:18.973Z</time></trkpt><trkpt lat="44.2450044" lon="8.4079986"><ele>323.0</ele><time>2026-05-02T13:45:19.973Z</time></trkpt><trkpt lat="44.2449853" lon="8.4079007"><ele>323.0</ele><time>2026-05-02T13:45:20.973Z</time></trkpt><trkpt lat="44.244964" lon="8.4078098"><ele>323.0</ele><time>2026-05-02T13:45:21.973Z</time></trkpt><trkpt lat="44.2449099" lon="8.4076567"><ele>323.33333333333337</ele><time>2026-05-02T13:45:23.973Z</time></trkpt><trkpt lat="44.2448699" lon="8.4075658"><ele>323.6666666666667</ele><time>2026-05-02T13:45:24.974Z</time></trkpt><trkpt lat="44.2448223" lon="8.4074574"><ele>324.0</ele><time>2026-05-02T13:45:25.973Z</time></trkpt><trkpt lat="44.2447771" lon="8.4073468"><ele>324.3333333333333</ele><time>2026-05-02T13:45:26.974Z</time></trkpt><trkpt lat="44.244738" lon="8.4072437"><ele>324.66666666666663</ele><time>2026-05-02T13:45:27.974Z</time></trkpt><trkpt lat="44.2447051" lon="8.4071534"><ele>325.0</ele><time>2026-05-02T13:45:28.973Z</time></trkpt><trkpt lat="44.244666" lon="8.4069957"><ele>323.8</ele><time>2026-05-02T13:45:30.973Z</time></trkpt><trkpt lat="44.2446609" lon="8.4068215"><ele>322.6</ele><time>2026-05-02T13:45:32.974Z</time></trkpt><trkpt lat="44.2446731" lon="8.4067251"><ele>321.4</ele><time>2026-05-02T13:45:33.974Z</time></trkpt><trkpt lat="44.2446782" lon="8.4066347"><ele>320.2</ele><time>2026-05-02T13:45:34.974Z</time></trkpt><trkpt lat="44.2446626" lon="8.4064777"><ele>319.0</ele><time>2026-05-02T13:45:36.973Z</time></trkpt><trkpt lat="44.2446293" lon="8.4063632"><ele>321.0</ele><time>2026-05-02T13:45:38.974Z</time></trkpt><trkpt lat="44.2445996" lon="8.4062461"><ele>323.0</ele><time>2026-05-02T13:45:40.973Z</time></trkpt><trkpt lat="44.2445776" lon="8.4061484"><ele>325.0</ele><time>2026-05-02T13:45:42.974Z</time></trkpt><trkpt lat="44.2445833" lon="8.4060515"><ele>327.0</ele><time>2026-05-02T13:45:46.974Z</time></trkpt><trkpt lat="44.2446005" lon="8.4059462"><ele>329.0</ele><time>2026-05-02T13:45:58.975Z</time></trkpt><trkpt lat="44.2446395" lon="8.4058363"><ele>331.0</ele><time>2026-05-02T13:46:01.974Z</time></trkpt><trkpt lat="44.2446818" lon="8.4057237"><ele>331.0</ele><time>2026-05-02T13:46:04.974Z</time></trkpt><trkpt lat="44.2446939" lon="8.4056324"><ele>331.0</ele><time>2026-05-02T13:46:06.973Z</time></trkpt><trkpt lat="44.2447323" lon="8.4055224"><ele>331.0</ele><time>2026-05-02T13:46:09.973Z</time></trkpt><trkpt lat="44.2447896" lon="8.4054403"><ele>331.0</ele><time>2026-05-02T13:46:12.973Z</time></trkpt><trkpt lat="44.2448435" lon="8.4053555"><ele>331.0</ele><time>2026-05-02T13:46:14.974Z</time></trkpt><trkpt lat="44.2448786" lon="8.405261"><ele>331.0</ele><time>2026-05-02T13:46:16.975Z</time></trkpt><trkpt lat="44.2449375" lon="8.4051824"><ele>332.66666666666663</ele><time>2026-05-02T13:46:19.974Z</time></trkpt><trkpt lat="44.2450065" lon="8.4051579"><ele>334.3333333333333</ele><time>2026-05-02T13:46:22.973Z</time></trkpt><trkpt lat="44.2450992" lon="8.4051871"><ele>336.0</ele><time>2026-05-02T13:46:25.973Z</time></trkpt><trkpt lat="44.2451935" lon="8.405166"><ele>337.6666666666667</ele><time>2026-05-02T13:46:27.974Z</time></trkpt><trkpt lat="44.245251" lon="8.4051289"><ele>339.33333333333337</ele><time>2026-05-02T13:46:28.974Z</time></trkpt><trkpt lat="44.2453231" lon="8.405072"><ele>341.0</ele><time>2026-05-02T13:46:30.974Z</time></trkpt><trkpt lat="44.2453866" lon="8.405026"><ele>341.0</ele><time>2026-05-02T13:46:32.972Z</time></trkpt><trkpt lat="44.2454297" lon="8.4049139"><ele>341.0</ele><time>2026-05-02T13:46:35.974Z</time></trkpt><trkpt lat="44.2454351" lon="8.4047907"><ele>341.0</ele><time>2026-05-02T13:46:37.974Z</time></trkpt><trkpt lat="44.2454607" lon="8.4046492"><ele>341.0</ele><time>2026-05-02T13:46:39.974Z</time></trkpt><trkpt lat="44.2454933" lon="8.404517"><ele>341.0</ele><time>2026-05-02T13:46:41.973Z</time></trkpt><trkpt lat="44.2455231" lon="8.4044219"><ele>338.83333333333337</ele><time>2026-05-02T13:46:43.975Z</time></trkpt><trkpt lat="44.2455548" lon="8.4043034"><ele>336.6666666666667</ele><time>2026-05-02T13:46:45.974Z</time></trkpt><trkpt lat="44.2455745" lon="8.404198"><ele>334.5</ele><time>2026-05-02T13:46:47.974Z</time></trkpt><trkpt lat="44.2455921" lon="8.4040845"><ele>332.3333333333333</ele><time>2026-05-02T13:46:49.972Z</time></trkpt><trkpt lat="44.2456332" lon="8.4040121"><ele>330.16666666666663</ele><time>2026-05-02T13:46:53.974Z</time></trkpt><trkpt lat="44.2457079" lon="8.4039312"><ele>328.0</ele><time>2026-05-02T13:46:56.974Z</time></trkpt><trkpt lat="44.2457485" lon="8.4038587"><ele>330.99999999999994</ele><time>2026-05-02T13:46:58.974Z</time></trkpt><trkpt lat="44.2458002" lon="8.4037893"><ele>334.0</ele><time>2026-05-02T13:47:00.974Z</time></trkpt><trkpt lat="44.2458629" lon="8.4037323"><ele>337.0</ele><time>2026-05-02T13:47:02.974Z</time></trkpt><trkpt lat="44.245923" lon="8.4036931"><ele>340.0</ele><time>2026-05-02T13:47:04.972Z</time></trkpt><trkpt lat="44.2459904" lon="8.4036664"><ele>343.0</ele><time>2026-05-02T13:47:07.973Z</time></trkpt><trkpt lat="44.24606" lon="8.4036725"><ele>345.99999999999994</ele><time>2026-05-02T13:47:11.973Z</time></trkpt><trkpt lat="44.2461219" lon="8.4036441"><ele>349.0</ele><time>2026-05-02T13:47:13.972Z</time></trkpt><trkpt lat="44.246192" lon="8.4035956"><ele>349.0</ele><time>2026-05-02T13:47:15.973Z</time></trkpt><trkpt lat="44.2462541" lon="8.4035231"><ele>349.0</ele><time>2026-05-02T13:47:17.974Z</time></trkpt><trkpt lat="44.2463205" lon="8.4034373"><ele>349.0</ele><time>2026-05-02T13:47:19.973Z</time></trkpt><trkpt lat="44.2463746" lon="8.4033745"><ele>349.0</ele><time>2026-05-02T13:47:21.974Z</time></trkpt><trkpt lat="44.2464222" lon="8.4032809"><ele>349.0</ele><time>2026-05-02T13:47:23.974Z</time></trkpt><trkpt lat="44.2464612" lon="8.4031918"><ele>349.0</ele><time>2026-05-02T13:47:27.973Z</time></trkpt><trkpt lat="44.2464641" lon="8.4030737"><ele>344.85714285714283</ele><time>2026-05-02T13:47:30.974Z</time></trkpt><trkpt lat="44.246478" lon="8.4029763"><ele>340.7142857142857</ele><time>2026-05-02T13:47:32.973Z</time></trkpt><trkpt lat="44.2464945" lon="8.4028894"><ele>336.57142857142856</ele><time>2026-05-02T13:47:34.973Z</time></trkpt><trkpt lat="44.2465183" lon="8.4028042"><ele>332.42857142857144</ele><time>2026-05-02T13:47:36.973Z</time></trkpt><trkpt lat="44.2465707" lon="8.402712"><ele>328.2857142857143</ele><time>2026-05-02T13:47:39.973Z</time></trkpt><trkpt lat="44.2465982" lon="8.4026276"><ele>324.1428571428571</ele><time>2026-05-02T13:47:41.975Z</time></trkpt><trkpt lat="44.2466342" lon="8.4025452"><ele>320.0</ele><time>2026-05-02T13:47:43.974Z</time></trkpt><trkpt lat="44.2466569" lon="8.4024529"><ele>320.0</ele><time>2026-05-02T13:47:47.973Z</time></trkpt><trkpt lat="44.2466536" lon="8.4023404"><ele>320.0</ele><time>2026-05-02T13:47:50.973Z</time></trkpt><trkpt lat="44.246638" lon="8.402212"><ele>320.0</ele><time>2026-05-02T13:47:53.973Z</time></trkpt><trkpt lat="44.2466155" lon="8.4021296"><ele>320.0</ele><time>2026-05-02T13:47:55.973Z</time></trkpt><trkpt lat="44.2466289" lon="8.4020319"><ele>320.0</ele><time>2026-05-02T13:47:58.974Z</time></trkpt><trkpt lat="44.2466662" lon="8.4019309"><ele>320.0</ele><time>2026-05-02T13:48:01.974Z</time></trkpt><trkpt lat="44.2466891" lon="8.4018471"><ele>319.1666666666667</ele><time>2026-05-02T13:48:03.972Z</time></trkpt><trkpt lat="44.246741" lon="8.4017366"><ele>318.33333333333337</ele><time>2026-05-02T13:48:06.973Z</time></trkpt><trkpt lat="44.2467741" lon="8.4016581"><ele>317.5</ele><time>2026-05-02T13:48:08.973Z</time></trkpt><trkpt lat="44.2468075" lon="8.4015686"><ele>316.6666666666667</ele><time>2026-05-02T13:48:10.972Z</time></trkpt><trkpt lat="44.2468327" lon="8.4014639"><ele>315.8333333333333</ele><time>2026-05-02T13:48:12.974Z</time></trkpt><trkpt lat="44.2468556" lon="8.4013672"><ele>315.0</ele><time>2026-05-02T13:48:14.972Z</time></trkpt><trkpt lat="44.2468829" lon="8.4012542"><ele>314.1666666666667</ele><time>2026-05-02T13:48:16.972Z</time></trkpt><trkpt lat="44.2469166" lon="8.4011348"><ele>313.3333333333333</ele><time>2026-05-02T13:48:18.973Z</time></trkpt><trkpt lat="44.2469498" lon="8.4010166"><ele>312.5</ele><time>2026-05-02T13:48:20.974Z</time></trkpt><trkpt lat="44.2469833" lon="8.4009001"><ele>311.66666666666663</ele><time>2026-05-02T13:48:22.974Z</time></trkpt><trkpt lat="44.2469902" lon="8.4007905"><ele>310.8333333333333</ele><time>2026-05-02T13:48:24.972Z</time></trkpt><trkpt lat="44.2469699" lon="8.4007008"><ele>310.0</ele><time>2026-05-02T13:48:26.972Z</time></trkpt><trkpt lat="44.246917" lon="8.4006322"><ele>310.0</ele><time>2026-05-02T13:48:28.973Z</time></trkpt><trkpt lat="44.2468471" lon="8.4005421"><ele>310.0</ele><time>2026-05-02T13:48:30.974Z</time></trkpt><trkpt lat="44.2468116" lon="8.4004501"><ele>310.0</ele><time>2026-05-02T13:48:32.973Z</time></trkpt><trkpt lat="44.2468422" lon="8.4003365"><ele>310.0</ele><time>2026-05-02T13:48:35.973Z</time></trkpt><trkpt lat="44.2469062" lon="8.4002945"><ele>310.0</ele><time>2026-05-02T13:48:37.973Z</time></trkpt><trkpt lat="44.2469772" lon="8.4002688"><ele>310.0</ele><time>2026-05-02T13:48:39.975Z</time></trkpt><trkpt lat="44.247072" lon="8.4002168"><ele>311.2</ele><time>2026-05-02T13:48:41.974Z</time></trkpt><trkpt lat="44.2471944" lon="8.4002177"><ele>312.4</ele><time>2026-05-02T13:48:43.974Z</time></trkpt><trkpt lat="44.247296" lon="8.4002094"><ele>313.6</ele><time>2026-05-02T13:48:46.975Z</time></trkpt><trkpt lat="44.2474087" lon="8.400183"><ele>314.8</ele><time>2026-05-02T13:48:48.973Z</time></trkpt><trkpt lat="44.247506" lon="8.4001379"><ele>316.0</ele><time>2026-05-02T13:48:50.974Z</time></trkpt><trkpt lat="44.2475648" lon="8.4000782"><ele>313.16666666666663</ele><time>2026-05-02T13:48:52.974Z</time></trkpt><trkpt lat="44.2476187" lon="8.3999705"><ele>310.3333333333333</ele><time>2026-05-02T13:48:55.972Z</time></trkpt><trkpt lat="44.2476472" lon="8.3998823"><ele>307.5</ele><time>2026-05-02T13:48:58.974Z</time></trkpt><trkpt lat="44.2476886" lon="8.3997839"><ele>304.6666666666667</ele><time>2026-05-02T13:49:03.973Z</time></trkpt><trkpt lat="44.2477332" lon="8.3996893"><ele>301.83333333333337</ele><time>2026-05-02T13:49:08.973Z</time></trkpt><trkpt lat="44.2477701" lon="8.3995844"><ele>299.0</ele><time>2026-05-02T13:49:11.974Z</time></trkpt><trkpt lat="44.2478139" lon="8.3995063"><ele>298.6666666666667</ele><time>2026-05-02T13:49:13.973Z</time></trkpt><trkpt lat="44.2478363" lon="8.3994062"><ele>298.33333333333337</ele><time>2026-05-02T13:49:16.974Z</time></trkpt><trkpt lat="44.247794" lon="8.3993233"><ele>298.0</ele><time>2026-05-02T13:49:21.974Z</time></trkpt><trkpt lat="44.247747" lon="8.3992126"><ele>297.6666666666667</ele><time>2026-05-02T13:49:23.973Z</time></trkpt><trkpt lat="44.2477163" lon="8.3991244"><ele>297.3333333333333</ele><time>2026-05-02T13:49:25.972Z</time></trkpt><trkpt lat="44.2477757" lon="8.3992161"><ele>297.0</ele><time>2026-05-02T13:53:03.973Z</time></trkpt><trkpt lat="44.2478049" lon="8.3993184"><ele>297.0</ele><time>2026-05-02T13:53:05.973Z</time></trkpt><trkpt lat="44.2478346" lon="8.3994111"><ele>297.0</ele><time>2026-05-02T13:53:08.972Z</time></trkpt><trkpt lat="44.2478954" lon="8.3994684"><ele>297.0</ele><time>2026-05-02T13:53:12.972Z</time></trkpt><trkpt lat="44.2479684" lon="8.3994455"><ele>297.0</ele><time>2026-05-02T13:53:15.974Z</time></trkpt><trkpt lat="44.2480353" lon="8.399492"><ele>297.0</ele><time>2026-05-02T13:53:19.972Z</time></trkpt><trkpt lat="44.2480753" lon="8.3995702"><ele>297.0</ele><time>2026-05-02T13:53:23.974Z</time></trkpt><trkpt lat="44.2481002" lon="8.3996755"><ele>297.0</ele><time>2026-05-02T13:53:28.973Z</time></trkpt><trkpt lat="44.248129" lon="8.399757"><ele>294.2857142857143</ele><time>2026-05-02T13:53:31.973Z</time></trkpt><trkpt lat="44.2481637" lon="8.399836"><ele>291.5714285714286</ele><time>2026-05-02T13:53:34.973Z</time></trkpt><trkpt lat="44.2482234" lon="8.399899"><ele>288.8571428571429</ele><time>2026-05-02T13:53:39.971Z</time></trkpt><trkpt lat="44.248296" lon="8.3999283"><ele>286.14285714285717</ele><time>2026-05-02T13:53:42.972Z</time></trkpt><trkpt lat="44.2483731" lon="8.3999821"><ele>283.42857142857144</ele><time>2026-05-02T13:53:45.971Z</time></trkpt><trkpt lat="44.2484348" lon="8.4000251"><ele>280.7142857142857</ele><time>2026-05-02T13:53:47.972Z</time></trkpt><trkpt lat="44.2484939" lon="8.4000581"><ele>278.0</ele><time>2026-05-02T13:53:49.971Z</time></trkpt><trkpt lat="44.2485644" lon="8.4000991"><ele>278.0</ele><time>2026-05-02T13:53:51.972Z</time></trkpt><trkpt lat="44.2486427" lon="8.400134"><ele>278.0</ele><time>2026-05-02T13:53:54.972Z</time></trkpt><trkpt lat="44.2487091" lon="8.4001579"><ele>278.0</ele><time>2026-05-02T13:53:56.972Z</time></trkpt><trkpt lat="44.2487768" lon="8.400196"><ele>278.0</ele><time>2026-05-02T13:53:58.972Z</time></trkpt><trkpt lat="44.2488395" lon="8.4002491"><ele>278.0</ele><time>2026-05-02T13:54:00.974Z</time></trkpt><trkpt lat="44.2488961" lon="8.4003132"><ele>278.0</ele><time>2026-05-02T13:54:03.973Z</time></trkpt><trkpt lat="44.2489601" lon="8.4003668"><ele>278.0</ele><time>2026-05-02T13:54:07.972Z</time></trkpt><trkpt lat="44.2489012" lon="8.400302"><ele>278.0</ele><time>2026-05-02T13:57:41.971Z</time></trkpt><trkpt lat="44.2488437" lon="8.400242"><ele>278.0</ele><time>2026-05-02T13:57:43.972Z</time></trkpt><trkpt lat="44.2487594" lon="8.4001946"><ele>278.0</ele><time>2026-05-02T13:57:45.971Z</time></trkpt><trkpt lat="44.2486784" lon="8.4001592"><ele>278.0</ele><time>2026-05-02T13:57:47.972Z</time></trkpt><trkpt lat="44.2485876" lon="8.4001235"><ele>278.0</ele><time>2026-05-02T13:57:49.971Z</time></trkpt><trkpt lat="44.2485107" lon="8.4000853"><ele>278.0</ele><time>2026-05-02T13:57:51.971Z</time></trkpt><trkpt lat="44.2484514" lon="8.4000488"><ele>278.0</ele><time>2026-05-02T13:57:53.971Z</time></trkpt><trkpt lat="44.2483981" lon="8.399984"><ele>278.0</ele><time>2026-05-02T13:57:55.972Z</time></trkpt><trkpt lat="44.2483089" lon="8.3999343"><ele>278.0</ele><time>2026-05-02T13:57:57.972Z</time></trkpt><trkpt lat="44.2482496" lon="8.3998831"><ele>278.0</ele><time>2026-05-02T13:57:59.971Z</time></trkpt><trkpt lat="44.2482" lon="8.3997881"><ele>278.0</ele><time>2026-05-02T13:58:02.972Z</time></trkpt><trkpt lat="44.2481716" lon="8.3997047"><ele>278.0</ele><time>2026-05-02T13:58:04.972Z</time></trkpt><trkpt lat="44.2481419" lon="8.3996013"><ele>281.1666666666667</ele><time>2026-05-02T13:58:06.973Z</time></trkpt><trkpt lat="44.2480933" lon="8.3995067"><ele>284.33333333333337</ele><time>2026-05-02T13:58:08.973Z</time></trkpt><trkpt lat="44.2479848" lon="8.3994503"><ele>287.5</ele><time>2026-05-02T13:58:10.971Z</time></trkpt><trkpt lat="44.2479102" lon="8.3994646"><ele>290.6666666666667</ele><time>2026-05-02T13:58:12.971Z</time></trkpt><trkpt lat="44.2478447" lon="8.3994006"><ele>293.8333333333333</ele><time>2026-05-02T13:58:15.971Z</time></trkpt><trkpt lat="44.2478153" lon="8.3993072"><ele>297.0</ele><time>2026-05-02T13:58:17.972Z</time></trkpt><trkpt lat="44.2477538" lon="8.3991846"><ele>297.0</ele><time>2026-05-02T13:58:19.972Z</time></trkpt><trkpt lat="44.2477042" lon="8.3990988"><ele>297.0</ele><time>2026-05-02T13:58:21.973Z</time></trkpt><trkpt lat="44.2476373" lon="8.3990465"><ele>297.0</ele><time>2026-05-02T13:58:23.971Z</time></trkpt><trkpt lat="44.2475494" lon="8.3990188"><ele>297.0</ele><time>2026-05-02T13:58:25.971Z</time></trkpt><trkpt lat="44.2474783" lon="8.3990059"><ele>297.0</ele><time>2026-05-02T13:58:27.972Z</time></trkpt><trkpt lat="44.247411" lon="8.3989983"><ele>297.0</ele><time>2026-05-02T13:58:29.972Z</time></trkpt><trkpt lat="44.2473384" lon="8.3990034"><ele>300.6666666666667</ele><time>2026-05-02T13:58:31.972Z</time></trkpt><trkpt lat="44.2472796" lon="8.3989467"><ele>304.3333333333333</ele><time>2026-05-02T13:58:35.971Z</time></trkpt><trkpt lat="44.2472705" lon="8.3988143"><ele>308.0</ele><time>2026-05-02T13:58:38.971Z</time></trkpt><trkpt lat="44.2472371" lon="8.3987132"><ele>311.66666666666663</ele><time>2026-05-02T13:58:40.972Z</time></trkpt><trkpt lat="44.2472083" lon="8.3985946"><ele>315.3333333333333</ele><time>2026-05-02T13:58:43.971Z</time></trkpt><trkpt lat="44.2472255" lon="8.3984767"><ele>319.0</ele><time>2026-05-02T13:58:46.972Z</time></trkpt><trkpt lat="44.2472608" lon="8.3983841"><ele>319.66666666666663</ele><time>2026-05-02T13:58:48.971Z</time></trkpt><trkpt lat="44.247291" lon="8.3983059"><ele>320.3333333333333</ele><time>2026-05-02T13:58:50.972Z</time></trkpt><trkpt lat="44.247326" lon="8.3982083"><ele>321.0</ele><time>2026-05-02T13:58:52.971Z</time></trkpt><trkpt lat="44.247324" lon="8.3980856"><ele>321.6666666666667</ele><time>2026-05-02T13:58:55.97Z</time></trkpt><trkpt lat="44.2473285" lon="8.3979545"><ele>322.33333333333337</ele><time>2026-05-02T13:58:58.971Z</time></trkpt><trkpt lat="44.2473592" lon="8.3978659"><ele>323.0</ele><time>2026-05-02T13:59:00.971Z</time></trkpt><trkpt lat="44.2473997" lon="8.397763"><ele>318.0</ele><time>2026-05-02T13:59:02.972Z</time></trkpt><trkpt lat="44.247423" lon="8.3976442"><ele>313.0</ele><time>2026-05-02T13:59:04.971Z</time></trkpt><trkpt lat="44.2474313" lon="8.3975084"><ele>308.0</ele><time>2026-05-02T13:59:06.971Z</time></trkpt><trkpt lat="44.2474025" lon="8.3974032"><ele>303.0</ele><time>2026-05-02T13:59:08.971Z</time></trkpt><trkpt lat="44.2473804" lon="8.3972789"><ele>298.0</ele><time>2026-05-02T13:59:10.97Z</time></trkpt><trkpt lat="44.2473745" lon="8.3971504"><ele>298.0</ele><time>2026-05-02T13:59:12.972Z</time></trkpt><trkpt lat="44.2473415" lon="8.3970257"><ele>298.0</ele><time>2026-05-02T13:59:14.971Z</time></trkpt><trkpt lat="44.2472734" lon="8.3969307"><ele>298.0</ele><time>2026-05-02T13:59:16.971Z</time></trkpt><trkpt lat="44.2472309" lon="8.3968611"><ele>298.0</ele><time>2026-05-02T13:59:18.972Z</time></trkpt><trkpt lat="44.2471508" lon="8.3967629"><ele>298.0</ele><time>2026-05-02T13:59:20.972Z</time></trkpt><trkpt lat="44.2470831" lon="8.3966812"><ele>301.16666666666663</ele><time>2026-05-02T13:59:22.971Z</time></trkpt><trkpt lat="44.2470351" lon="8.396574"><ele>304.3333333333333</ele><time>2026-05-02T13:59:24.971Z</time></trkpt><trkpt lat="44.2470053" lon="8.3964603"><ele>307.5</ele><time>2026-05-02T13:59:26.973Z</time></trkpt><trkpt lat="44.2469677" lon="8.3963298"><ele>310.6666666666667</ele><time>2026-05-02T13:59:28.971Z</time></trkpt><trkpt lat="44.2469284" lon="8.3962164"><ele>313.83333333333337</ele><time>2026-05-02T13:59:30.972Z</time></trkpt><trkpt lat="44.2468863" lon="8.3961506"><ele>317.0</ele><time>2026-05-02T13:59:32.973Z</time></trkpt><trkpt lat="44.2468243" lon="8.3960974"><ele>317.0</ele><time>2026-05-02T13:59:34.97Z</time></trkpt><trkpt lat="44.2467434" lon="8.3960822"><ele>317.0</ele><time>2026-05-02T13:59:36.971Z</time></trkpt><trkpt lat="44.2466561" lon="8.3960992"><ele>317.0</ele><time>2026-05-02T13:59:38.971Z</time></trkpt><trkpt lat="44.2465889" lon="8.3960904"><ele>317.0</ele><time>2026-05-02T13:59:40.971Z</time></trkpt><trkpt lat="44.2465348" lon="8.396044"><ele>317.0</ele><time>2026-05-02T13:59:42.973Z</time></trkpt><trkpt lat="44.2464656" lon="8.396024"><ele>317.0</ele><time>2026-05-02T13:59:44.971Z</time></trkpt><trkpt lat="44.2464067" lon="8.3959865"><ele>317.0</ele><time>2026-05-02T13:59:47.97Z</time></trkpt><trkpt lat="44.2463888" lon="8.3958846"><ele>322.8571428571429</ele><time>2026-05-02T13:59:51.97Z</time></trkpt><trkpt lat="44.2463898" lon="8.3957945"><ele>328.7142857142857</ele><time>2026-05-02T13:59:54.971Z</time></trkpt><trkpt lat="44.2463983" lon="8.3957037"><ele>334.57142857142856</ele><time>2026-05-02T13:59:58.971Z</time></trkpt><trkpt lat="44.2463773" lon="8.3956037"><ele>340.42857142857144</ele><time>2026-05-02T14:00:01.97Z</time></trkpt><trkpt lat="44.246348" lon="8.3955076"><ele>346.2857142857143</ele><time>2026-05-02T14:00:03.97Z</time></trkpt><trkpt lat="44.2463192" lon="8.3954178"><ele>352.14285714285717</ele><time>2026-05-02T14:00:05.97Z</time></trkpt><trkpt lat="44.2462876" lon="8.3953001"><ele>358.0</ele><time>2026-05-02T14:00:08.971Z</time></trkpt><trkpt lat="44.2462707" lon="8.3951692"><ele>358.0</ele><time>2026-05-02T14:00:11.97Z</time></trkpt><trkpt lat="44.2462557" lon="8.3950803"><ele>358.0</ele><time>2026-05-02T14:00:13.971Z</time></trkpt><trkpt lat="44.2462497" lon="8.3949346"><ele>358.0</ele><time>2026-05-02T14:00:57.972Z</time></trkpt><trkpt lat="44.2462308" lon="8.3948364"><ele>358.0</ele><time>2026-05-02T14:01:04.972Z</time></trkpt><trkpt lat="44.2462092" lon="8.3947365"><ele>358.0</ele><time>2026-05-02T14:01:07.971Z</time></trkpt><trkpt lat="44.2461683" lon="8.394641"><ele>358.0</ele><time>2026-05-02T14:01:09.972Z</time></trkpt><trkpt lat="44.2461295" lon="8.3945602"><ele>356.3333333333333</ele><time>2026-05-02T14:01:11.971Z</time></trkpt><trkpt lat="44.2460659" lon="8.3945072"><ele>354.66666666666663</ele><time>2026-05-02T14:01:13.97Z</time></trkpt><trkpt lat="44.2460087" lon="8.3944007"><ele>353.0</ele><time>2026-05-02T14:01:15.971Z</time></trkpt><trkpt lat="44.245956" lon="8.3943329"><ele>351.3333333333333</ele><time>2026-05-02T14:01:18.97Z</time></trkpt><trkpt lat="44.2459561" lon="8.3942367"><ele>349.6666666666667</ele><time>2026-05-02T14:01:23.97Z</time></trkpt><trkpt lat="44.245968" lon="8.3941371"><ele>348.0</ele><time>2026-05-02T14:01:28.971Z</time></trkpt><trkpt lat="44.2460242" lon="8.3940556"><ele>348.0</ele><time>2026-05-02T14:01:31.971Z</time></trkpt><trkpt lat="44.246059" lon="8.3939579"><ele>348.0</ele><time>2026-05-02T14:01:34.97Z</time></trkpt><trkpt lat="44.2460261" lon="8.3938415"><ele>348.0</ele><time>2026-05-02T14:01:37.97Z</time></trkpt><trkpt lat="44.2459896" lon="8.3937614"><ele>348.0</ele><time>2026-05-02T14:01:39.97Z</time></trkpt><trkpt lat="44.2459445" lon="8.393684"><ele>348.0</ele><time>2026-05-02T14:01:41.97Z</time></trkpt><trkpt lat="44.2458901" lon="8.3935864"><ele>348.0</ele><time>2026-05-02T14:01:44.97Z</time></trkpt><trkpt lat="44.2458807" lon="8.3934882"><ele>347.6666666666667</ele><time>2026-05-02T14:01:47.971Z</time></trkpt><trkpt lat="44.2459317" lon="8.3934261"><ele>347.3333333333333</ele><time>2026-05-02T14:01:51.97Z</time></trkpt><trkpt lat="44.246007" lon="8.3933802"><ele>347.0</ele><time>2026-05-02T14:01:54.971Z</time></trkpt><trkpt lat="44.2460808" lon="8.3932798"><ele>346.66666666666663</ele><time>2026-05-02T14:01:57.97Z</time></trkpt><trkpt lat="44.2460981" lon="8.3931689"><ele>346.3333333333333</ele><time>2026-05-02T14:01:59.972Z</time></trkpt><trkpt lat="44.246076" lon="8.393074"><ele>346.0</ele><time>2026-05-02T14:02:02.971Z</time></trkpt><trkpt lat="44.2460419" lon="8.3929596"><ele>345.25</ele><time>2026-05-02T14:02:04.97Z</time></trkpt><trkpt lat="44.2459705" lon="8.3927209"><ele>344.5</ele><time>2026-05-02T14:02:06.971Z</time></trkpt><trkpt lat="44.2459552" lon="8.3926163"><ele>343.75</ele><time>2026-05-02T14:02:08.97Z</time></trkpt><trkpt lat="44.2459222" lon="8.3924935"><ele>343.0</ele><time>2026-05-02T14:02:10.971Z</time></trkpt><trkpt lat="44.2458906" lon="8.3923346"><ele>343.0</ele><time>2026-05-02T14:02:12.97Z</time></trkpt><trkpt lat="44.2458578" lon="8.3922108"><ele>343.0</ele><time>2026-05-02T14:02:14.97Z</time></trkpt><trkpt lat="44.2458319" lon="8.3921258"><ele>343.0</ele><time>2026-05-02T14:02:16.971Z</time></trkpt><trkpt lat="44.245825" lon="8.3920265"><ele>343.0</ele><time>2026-05-02T14:03:17.971Z</time></trkpt><trkpt lat="44.2457779" lon="8.3919672"><ele>343.0</ele><time>2026-05-02T14:03:22.971Z</time></trkpt><trkpt lat="44.2457293" lon="8.391889"><ele>343.0</ele><time>2026-05-02T14:03:49.97Z</time></trkpt><trkpt lat="44.2456352" lon="8.3918631"><ele>345.2857142857143</ele><time>2026-05-02T14:03:53.97Z</time></trkpt><trkpt lat="44.245565" lon="8.3918689"><ele>347.57142857142856</ele><time>2026-05-02T14:04:18.97Z</time></trkpt><trkpt lat="44.2455133" lon="8.3918158"><ele>349.8571428571429</ele><time>2026-05-02T14:05:09.969Z</time></trkpt><trkpt lat="44.2454515" lon="8.3917666"><ele>352.1428571428571</ele><time>2026-05-02T14:06:18.97Z</time></trkpt><trkpt lat="44.2453847" lon="8.3917308"><ele>354.42857142857144</ele><time>2026-05-02T14:07:00.969Z</time></trkpt><trkpt lat="44.2453241" lon="8.3916782"><ele>356.7142857142857</ele><time>2026-05-02T14:07:26.969Z</time></trkpt><trkpt lat="44.2452431" lon="8.3916224"><ele>359.0</ele><time>2026-05-02T14:07:28.969Z</time></trkpt><trkpt lat="44.2451766" lon="8.3916109"><ele>359.0</ele><time>2026-05-02T14:07:30.97Z</time></trkpt><trkpt lat="44.2450987" lon="8.3916072"><ele>359.0</ele><time>2026-05-02T14:07:33.97Z</time></trkpt><trkpt lat="44.2450342" lon="8.3916035"><ele>359.0</ele><time>2026-05-02T14:07:36.97Z</time></trkpt><trkpt lat="44.2449668" lon="8.3916281"><ele>359.0</ele><time>2026-05-02T14:08:22.969Z</time></trkpt><trkpt lat="44.2449132" lon="8.3915808"><ele>359.0</ele><time>2026-05-02T14:15:48.967Z</time></trkpt><trkpt lat="44.2448578" lon="8.3915196"><ele>359.0</ele><time>2026-05-02T14:15:51.967Z</time></trkpt><trkpt lat="44.2447335" lon="8.3914269"><ele>361.83333333333337</ele><time>2026-05-02T14:15:52.969Z</time></trkpt><trkpt lat="44.2446449" lon="8.391408"><ele>364.6666666666667</ele><time>2026-05-02T14:15:55.967Z</time></trkpt><trkpt lat="44.2445777" lon="8.3914508"><ele>367.5</ele><time>2026-05-02T14:15:57.967Z</time></trkpt><trkpt lat="44.2444916" lon="8.3915166"><ele>370.3333333333333</ele><time>2026-05-02T14:15:59.967Z</time></trkpt><trkpt lat="44.2444105" lon="8.3915656"><ele>373.16666666666663</ele><time>2026-05-02T14:16:01.968Z</time></trkpt><trkpt lat="44.2443273" lon="8.3916331"><ele>376.0</ele><time>2026-05-02T14:16:03.967Z</time></trkpt><trkpt lat="44.2442749" lon="8.3916965"><ele>376.0</ele><time>2026-05-02T14:16:05.968Z</time></trkpt><trkpt lat="44.2442186" lon="8.3917516"><ele>376.0</ele><time>2026-05-02T14:16:08.968Z</time></trkpt><trkpt lat="44.2441414" lon="8.3917487"><ele>376.0</ele><time>2026-05-02T14:16:12.967Z</time></trkpt><trkpt lat="44.2441027" lon="8.3916547"><ele>376.0</ele><time>2026-05-02T14:16:16.967Z</time></trkpt><trkpt lat="44.2441066" lon="8.3915587"><ele>376.0</ele><time>2026-05-02T14:16:19.967Z</time></trkpt><trkpt lat="44.2440681" lon="8.3914749"><ele>376.0</ele><time>2026-05-02T14:16:22.967Z</time></trkpt><trkpt lat="44.24409" lon="8.3915779"><ele>376.0</ele><time>2026-05-02T14:22:40.965Z</time></trkpt><trkpt lat="44.2440924" lon="8.3916681"><ele>376.0</ele><time>2026-05-02T14:22:45.966Z</time></trkpt><trkpt lat="44.2440804" lon="8.3915788"><ele>376.0</ele><time>2026-05-02T14:23:53.965Z</time></trkpt><trkpt lat="44.2440731" lon="8.3914892"><ele>376.0</ele><time>2026-05-02T14:24:08.965Z</time></trkpt><trkpt lat="44.2440821" lon="8.3915762"><ele>376.0</ele><time>2026-05-02T14:25:45.966Z</time></trkpt><trkpt lat="44.2440584" lon="8.3916594"><ele>376.0</ele><time>2026-05-02T14:26:02.965Z</time></trkpt><trkpt lat="44.2440678" lon="8.3917474"><ele>376.0</ele><time>2026-05-02T14:26:09.966Z</time></trkpt><trkpt lat="44.2440852" lon="8.3916516"><ele>376.0</ele><time>2026-05-02T14:26:33.966Z</time></trkpt><trkpt lat="44.2440901" lon="8.3915615"><ele>376.0</ele><time>2026-05-02T14:26:41.966Z</time></trkpt><trkpt lat="44.2440835" lon="8.3916631"><ele>376.0</ele><time>2026-05-02T14:28:12.965Z</time></trkpt><trkpt lat="44.2440534" lon="8.3917428"><ele>376.0</ele><time>2026-05-02T14:28:21.965Z</time></trkpt><trkpt lat="44.2441189" lon="8.3917782"><ele>376.0</ele><time>2026-05-02T14:29:03.964Z</time></trkpt><trkpt lat="44.2441815" lon="8.391738"><ele>376.0</ele><time>2026-05-02T14:29:09.965Z</time></trkpt><trkpt lat="44.2442865" lon="8.3916345"><ele>376.0</ele><time>2026-05-02T14:29:47.885Z</time></trkpt><trkpt lat="44.244347" lon="8.3915978"><ele>376.0</ele><time>2026-05-02T14:30:27.964Z</time></trkpt><trkpt lat="44.2442907" lon="8.3916403"><ele>376.0</ele><time>2026-05-02T14:30:46.964Z</time></trkpt><trkpt lat="44.2442405" lon="8.3917022"><ele>376.0</ele><time>2026-05-02T14:30:57.964Z</time></trkpt><trkpt lat="44.2441818" lon="8.3917359"><ele>376.0</ele><time>2026-05-02T14:31:08.875Z</time></trkpt><trkpt lat="44.2442414" lon="8.3916926"><ele>376.0</ele><time>2026-05-02T14:31:42.912Z</time></trkpt><trkpt lat="44.2441844" lon="8.3917373"><ele>376.0</ele><time>2026-05-02T14:32:00.967Z</time></trkpt><trkpt lat="44.2441201" lon="8.3917612"><ele>376.0</ele><time>2026-05-02T14:32:08.963Z</time></trkpt><trkpt lat="44.2441773" lon="8.3917155"><ele>376.0</ele><time>2026-05-02T14:37:02.964Z</time></trkpt><trkpt lat="44.2442466" lon="8.3916656"><ele>376.0</ele><time>2026-05-02T14:37:12.963Z</time></trkpt><trkpt lat="44.2443072" lon="8.3916041"><ele>376.0</ele><time>2026-05-02T14:37:17.965Z</time></trkpt><trkpt lat="44.2443857" lon="8.3915649"><ele>376.0</ele><time>2026-05-02T14:37:22.963Z</time></trkpt><trkpt lat="44.2444561" lon="8.3915356"><ele>376.0</ele><time>2026-05-02T14:37:26.964Z</time></trkpt><trkpt lat="44.2445221" lon="8.3915004"><ele>376.0</ele><time>2026-05-02T14:37:29.963Z</time></trkpt><trkpt lat="44.2445734" lon="8.3914258"><ele>376.0</ele><time>2026-05-02T14:37:33.964Z</time></trkpt><trkpt lat="44.2446899" lon="8.3913967"><ele>376.0</ele><time>2026-05-02T14:37:40.964Z</time></trkpt><trkpt lat="44.2447746" lon="8.3914141"><ele>376.0</ele><time>2026-05-02T14:37:45.962Z</time></trkpt><trkpt lat="44.2448242" lon="8.3914714"><ele>376.0</ele><time>2026-05-02T14:37:47.963Z</time></trkpt><trkpt lat="44.2448776" lon="8.3915383"><ele>376.0</ele><time>2026-05-02T14:37:49.964Z</time></trkpt><trkpt lat="44.2449565" lon="8.3915829"><ele>376.0</ele><time>2026-05-02T14:37:52.962Z</time></trkpt><trkpt lat="44.2450315" lon="8.391592"><ele>373.16666666666663</ele><time>2026-05-02T14:37:55.962Z</time></trkpt><trkpt lat="44.2451082" lon="8.3915837"><ele>370.3333333333333</ele><time>2026-05-02T14:37:57.963Z</time></trkpt><trkpt lat="44.2452522" lon="8.3916107"><ele>367.5</ele><time>2026-05-02T14:38:02.962Z</time></trkpt><trkpt lat="44.2453253" lon="8.3916541"><ele>364.6666666666667</ele><time>2026-05-02T14:38:05.962Z</time></trkpt><trkpt lat="44.2453699" lon="8.3917207"><ele>361.83333333333337</ele><time>2026-05-02T14:38:10.963Z</time></trkpt><trkpt lat="44.2454382" lon="8.3917727"><ele>359.0</ele><time>2026-05-02T14:38:16.963Z</time></trkpt><trkpt lat="44.2454985" lon="8.3918193"><ele>359.0</ele><time>2026-05-02T14:38:20.964Z</time></trkpt><trkpt lat="44.2455523" lon="8.3918687"><ele>359.0</ele><time>2026-05-02T14:38:24.962Z</time></trkpt><trkpt lat="44.245623" lon="8.3919039"><ele>359.0</ele><time>2026-05-02T14:38:27.962Z</time></trkpt><trkpt lat="44.2456965" lon="8.3919648"><ele>359.0</ele><time>2026-05-02T14:38:29.964Z</time></trkpt><trkpt lat="44.2457438" lon="8.3920342"><ele>359.0</ele><time>2026-05-02T14:38:31.962Z</time></trkpt><trkpt lat="44.2457939" lon="8.3921266"><ele>359.0</ele><time>2026-05-02T14:38:34.962Z</time></trkpt><trkpt lat="44.2458525" lon="8.3922051"><ele>356.33333333333337</ele><time>2026-05-02T14:38:37.963Z</time></trkpt><trkpt lat="44.2458857" lon="8.3922845"><ele>353.6666666666667</ele><time>2026-05-02T14:38:39.963Z</time></trkpt><trkpt lat="44.2459158" lon="8.392398"><ele>351.0</ele><time>2026-05-02T14:38:41.962Z</time></trkpt><trkpt lat="44.24594" lon="8.3925009"><ele>348.3333333333333</ele><time>2026-05-02T14:38:43.962Z</time></trkpt><trkpt lat="44.2459655" lon="8.3926208"><ele>345.66666666666663</ele><time>2026-05-02T14:38:45.963Z</time></trkpt><trkpt lat="44.2459851" lon="8.3927302"><ele>343.0</ele><time>2026-05-02T14:38:47.962Z</time></trkpt><trkpt lat="44.2460156" lon="8.3928476"><ele>343.0</ele><time>2026-05-02T14:38:50.963Z</time></trkpt><trkpt lat="44.2460504" lon="8.3929551"><ele>343.0</ele><time>2026-05-02T14:38:52.963Z</time></trkpt><trkpt lat="44.2460825" lon="8.3930479"><ele>343.0</ele><time>2026-05-02T14:38:55.962Z</time></trkpt><trkpt lat="44.2460965" lon="8.3931401"><ele>343.0</ele><time>2026-05-02T14:38:57.962Z</time></trkpt><trkpt lat="44.2460762" lon="8.39327"><ele>343.0</ele><time>2026-05-02T14:39:00.963Z</time></trkpt><trkpt lat="44.2460306" lon="8.3933426"><ele>343.0</ele><time>2026-05-02T14:39:02.962Z</time></trkpt><trkpt lat="44.2459653" lon="8.3933806"><ele>343.5</ele><time>2026-05-02T14:39:06.962Z</time></trkpt><trkpt lat="44.2459043" lon="8.3934477"><ele>344.0</ele><time>2026-05-02T14:39:10.964Z</time></trkpt><trkpt lat="44.2459173" lon="8.3935405"><ele>344.5</ele><time>2026-05-02T14:39:13.962Z</time></trkpt><trkpt lat="44.2459665" lon="8.393629"><ele>345.0</ele><time>2026-05-02T14:39:16.963Z</time></trkpt><trkpt lat="44.2460147" lon="8.3937079"><ele>345.5</ele><time>2026-05-02T14:39:51.962Z</time></trkpt><trkpt lat="44.2460609" lon="8.3938074"><ele>346.0</ele><time>2026-05-02T14:39:56.963Z</time></trkpt><trkpt lat="44.2460742" lon="8.3939007"><ele>346.3333333333333</ele><time>2026-05-02T14:39:59.963Z</time></trkpt><trkpt lat="44.2460544" lon="8.3939855"><ele>346.66666666666663</ele><time>2026-05-02T14:40:07.962Z</time></trkpt><trkpt lat="44.2460022" lon="8.3940574"><ele>347.0</ele><time>2026-05-02T14:40:10.964Z</time></trkpt><trkpt lat="44.2459381" lon="8.394122"><ele>347.3333333333333</ele><time>2026-05-02T14:40:14.962Z</time></trkpt><trkpt lat="44.245928" lon="8.3942362"><ele>347.6666666666667</ele><time>2026-05-02T14:40:18.962Z</time></trkpt><trkpt lat="44.2459941" lon="8.3943181"><ele>348.0</ele><time>2026-05-02T14:40:28.962Z</time></trkpt><trkpt lat="44.2460595" lon="8.3943868"><ele>348.0</ele><time>2026-05-02T14:40:51.962Z</time></trkpt><trkpt lat="44.2461133" lon="8.3944856"><ele>348.0</ele><time>2026-05-02T14:40:54.962Z</time></trkpt><trkpt lat="44.2461664" lon="8.3945658"><ele>348.0</ele><time>2026-05-02T14:40:57.962Z</time></trkpt><trkpt lat="44.2462105" lon="8.3946782"><ele>348.0</ele><time>2026-05-02T14:41:01.962Z</time></trkpt><trkpt lat="44.2462481" lon="8.3947888"><ele>348.0</ele><time>2026-05-02T14:41:04.962Z</time></trkpt><trkpt lat="44.2462528" lon="8.3949044"><ele>348.0</ele><time>2026-05-02T14:41:07.963Z</time></trkpt><trkpt lat="44.2462585" lon="8.3950031"><ele>349.6666666666667</ele><time>2026-05-02T14:41:09.963Z</time></trkpt><trkpt lat="44.2462609" lon="8.3951063"><ele>351.3333333333333</ele><time>2026-05-02T14:41:11.963Z</time></trkpt><trkpt lat="44.2462744" lon="8.3952428"><ele>353.0</ele><time>2026-05-02T14:41:13.963Z</time></trkpt><trkpt lat="44.2463108" lon="8.3953491"><ele>354.66666666666663</ele><time>2026-05-02T14:41:15.962Z</time></trkpt><trkpt lat="44.2463608" lon="8.3954529"><ele>356.3333333333333</ele><time>2026-05-02T14:41:17.963Z</time></trkpt><trkpt lat="44.2463724" lon="8.3955402"><ele>358.0</ele><time>2026-05-02T14:41:19.964Z</time></trkpt><trkpt lat="44.2463484" lon="8.3956784"><ele>359.0</ele><time>2026-05-02T14:41:22.963Z</time></trkpt><trkpt lat="44.2463381" lon="8.3957845"><ele>360.0</ele><time>2026-05-02T14:41:25.962Z</time></trkpt><trkpt lat="44.2463697" lon="8.3958701"><ele>361.0</ele><time>2026-05-02T14:41:29.962Z</time></trkpt><trkpt lat="44.2464318" lon="8.3959193"><ele>362.0</ele><time>2026-05-02T14:41:34.962Z</time></trkpt><trkpt lat="44.2465053" lon="8.3959649"><ele>363.0</ele><time>2026-05-02T14:41:39.962Z</time></trkpt><trkpt lat="44.2465606" lon="8.3960261"><ele>364.0</ele><time>2026-05-02T14:41:45.962Z</time></trkpt><trkpt lat="44.2466438" lon="8.3960515"><ele>357.2</ele><time>2026-05-02T14:41:49.964Z</time></trkpt><trkpt lat="44.2467126" lon="8.3960479"><ele>350.4</ele><time>2026-05-02T14:41:52.962Z</time></trkpt><trkpt lat="44.2469224" lon="8.3961222"><ele>343.6</ele><time>2026-05-02T14:42:01.962Z</time></trkpt><trkpt lat="44.246964" lon="8.3962275"><ele>336.8</ele><time>2026-05-02T14:42:04.962Z</time></trkpt><trkpt lat="44.2469818" lon="8.3963199"><ele>330.0</ele><time>2026-05-02T14:42:06.963Z</time></trkpt><trkpt lat="44.2469982" lon="8.3964067"><ele>330.00000000000006</ele><time>2026-05-02T14:42:08.964Z</time></trkpt><trkpt lat="44.2470287" lon="8.3965279"><ele>330.0</ele><time>2026-05-02T14:42:11.964Z</time></trkpt><trkpt lat="44.247062" lon="8.3966073"><ele>330.0</ele><time>2026-05-02T14:42:13.963Z</time></trkpt><trkpt lat="44.2471111" lon="8.3966659"><ele>330.0</ele><time>2026-05-02T14:42:15.963Z</time></trkpt><trkpt lat="44.2471637" lon="8.3967326"><ele>330.0</ele><time>2026-05-02T14:42:17.964Z</time></trkpt><trkpt lat="44.2472186" lon="8.3968016"><ele>330.00000000000006</ele><time>2026-05-02T14:42:19.963Z</time></trkpt><trkpt lat="44.2472695" lon="8.3968608"><ele>330.0</ele><time>2026-05-02T14:42:21.964Z</time></trkpt><trkpt lat="44.2473227" lon="8.3969358"><ele>324.6666666666667</ele><time>2026-05-02T14:42:23.962Z</time></trkpt><trkpt lat="44.2473652" lon="8.3970288"><ele>319.3333333333333</ele><time>2026-05-02T14:42:25.963Z</time></trkpt><trkpt lat="44.2473819" lon="8.3971348"><ele>314.0</ele><time>2026-05-02T14:42:27.963Z</time></trkpt><trkpt lat="44.2473888" lon="8.3972273"><ele>308.66666666666663</ele><time>2026-05-02T14:42:29.962Z</time></trkpt><trkpt lat="44.247411" lon="8.3973421"><ele>303.3333333333333</ele><time>2026-05-02T14:42:32.963Z</time></trkpt><trkpt lat="44.247436" lon="8.3974432"><ele>298.0</ele><time>2026-05-02T14:42:35.962Z</time></trkpt><trkpt lat="44.2474422" lon="8.3975483"><ele>297.8333333333333</ele><time>2026-05-02T14:42:38.962Z</time></trkpt><trkpt lat="44.2474361" lon="8.3976677"><ele>297.66666666666663</ele><time>2026-05-02T14:42:41.963Z</time></trkpt><trkpt lat="44.2473946" lon="8.397767"><ele>297.5</ele><time>2026-05-02T14:42:44.964Z</time></trkpt><trkpt lat="44.2473474" lon="8.397859"><ele>297.3333333333333</ele><time>2026-05-02T14:42:47.962Z</time></trkpt><trkpt lat="44.247303" lon="8.3979528"><ele>297.1666666666667</ele><time>2026-05-02T14:42:50.962Z</time></trkpt><trkpt lat="44.247314" lon="8.3980663"><ele>297.0</ele><time>2026-05-02T14:42:53.963Z</time></trkpt><trkpt lat="44.2472964" lon="8.3981662"><ele>300.7142857142857</ele><time>2026-05-02T14:42:55.963Z</time></trkpt><trkpt lat="44.2472635" lon="8.3982821"><ele>304.42857142857144</ele><time>2026-05-02T14:42:57.963Z</time></trkpt><trkpt lat="44.2472301" lon="8.3983666"><ele>308.14285714285717</ele><time>2026-05-02T14:43:00.963Z</time></trkpt><trkpt lat="44.2471961" lon="8.3984543"><ele>311.8571428571429</ele><time>2026-05-02T14:43:02.962Z</time></trkpt><trkpt lat="44.2471814" lon="8.3985433"><ele>315.57142857142856</ele><time>2026-05-02T14:43:04.962Z</time></trkpt><trkpt lat="44.2471929" lon="8.398631"><ele>319.28571428571433</ele><time>2026-05-02T14:43:06.963Z</time></trkpt><trkpt lat="44.2472252" lon="8.3987136"><ele>323.0</ele><time>2026-05-02T14:43:08.963Z</time></trkpt><trkpt lat="44.2472496" lon="8.3988196"><ele>322.42857142857144</ele><time>2026-05-02T14:43:11.962Z</time></trkpt><trkpt lat="44.2472651" lon="8.3989125"><ele>321.8571428571429</ele><time>2026-05-02T14:43:14.962Z</time></trkpt><trkpt lat="44.2473376" lon="8.3989508"><ele>321.28571428571433</ele><time>2026-05-02T14:43:17.962Z</time></trkpt><trkpt lat="44.2474047" lon="8.3989491"><ele>320.7142857142857</ele><time>2026-05-02T14:43:19.963Z</time></trkpt><trkpt lat="44.2474689" lon="8.3989586"><ele>320.1428571428571</ele><time>2026-05-02T14:43:21.962Z</time></trkpt><trkpt lat="44.2475314" lon="8.3989781"><ele>319.5714285714286</ele><time>2026-05-02T14:43:23.963Z</time></trkpt><trkpt lat="44.2476179" lon="8.3990078"><ele>319.0</ele><time>2026-05-02T14:43:26.964Z</time></trkpt><trkpt lat="44.2476909" lon="8.3990662"><ele>315.3333333333333</ele><time>2026-05-02T14:43:29.964Z</time></trkpt><trkpt lat="44.2477436" lon="8.3991529"><ele>311.66666666666663</ele><time>2026-05-02T14:43:32.962Z</time></trkpt><trkpt lat="44.2477859" lon="8.3992355"><ele>308.0</ele><time>2026-05-02T14:43:36.962Z</time></trkpt><trkpt lat="44.2478237" lon="8.3993064"><ele>304.3333333333333</ele><time>2026-05-02T14:43:40.962Z</time></trkpt><trkpt lat="44.2478406" lon="8.3994175"><ele>300.6666666666667</ele><time>2026-05-02T14:43:44.962Z</time></trkpt><trkpt lat="44.2477871" lon="8.3995422"><ele>297.0</ele><time>2026-05-02T14:43:47.961Z</time></trkpt><trkpt lat="44.2477407" lon="8.3996366"><ele>297.3333333333333</ele><time>2026-05-02T14:43:49.961Z</time></trkpt><trkpt lat="44.2477007" lon="8.3997639"><ele>297.6666666666667</ele><time>2026-05-02T14:43:51.961Z</time></trkpt><trkpt lat="44.2476652" lon="8.3998614"><ele>298.0</ele><time>2026-05-02T14:43:53.962Z</time></trkpt><trkpt lat="44.2476332" lon="8.3999844"><ele>298.33333333333337</ele><time>2026-05-02T14:43:55.962Z</time></trkpt><trkpt lat="44.2475905" lon="8.4000866"><ele>298.6666666666667</ele><time>2026-05-02T14:43:57.962Z</time></trkpt><trkpt lat="44.2475341" lon="8.4001582"><ele>299.0</ele><time>2026-05-02T14:43:59.962Z</time></trkpt><trkpt lat="44.2474527" lon="8.4001951"><ele>299.0</ele><time>2026-05-02T14:44:01.961Z</time></trkpt><trkpt lat="44.2473785" lon="8.400204"><ele>299.0</ele><time>2026-05-02T14:44:03.962Z</time></trkpt><trkpt lat="44.2472906" lon="8.4002203"><ele>299.0</ele><time>2026-05-02T14:44:06.962Z</time></trkpt><trkpt lat="44.2471941" lon="8.4002332"><ele>299.0</ele><time>2026-05-02T14:44:09.962Z</time></trkpt><trkpt lat="44.2471239" lon="8.4002431"><ele>299.0</ele><time>2026-05-02T14:44:11.961Z</time></trkpt><trkpt lat="44.2470353" lon="8.4002574"><ele>299.0</ele><time>2026-05-02T14:44:14.962Z</time></trkpt><trkpt lat="44.2469426" lon="8.4002802"><ele>300.83333333333337</ele><time>2026-05-02T14:44:17.962Z</time></trkpt><trkpt lat="44.2468727" lon="8.400315"><ele>302.6666666666667</ele><time>2026-05-02T14:44:19.962Z</time></trkpt><trkpt lat="44.2468273" lon="8.4004105"><ele>304.5</ele><time>2026-05-02T14:44:22.961Z</time></trkpt><trkpt lat="44.2468545" lon="8.4005021"><ele>306.3333333333333</ele><time>2026-05-02T14:44:24.962Z</time></trkpt><trkpt lat="44.2469525" lon="8.4006253"><ele>308.16666666666663</ele><time>2026-05-02T14:44:27.961Z</time></trkpt><trkpt lat="44.2470005" lon="8.4007085"><ele>310.0</ele><time>2026-05-02T14:44:29.961Z</time></trkpt><trkpt lat="44.2470008" lon="8.4008057"><ele>310.0</ele><time>2026-05-02T14:44:31.962Z</time></trkpt><trkpt lat="44.2469732" lon="8.4009315"><ele>310.0</ele><time>2026-05-02T14:44:33.961Z</time></trkpt><trkpt lat="44.2469286" lon="8.4010638"><ele>310.0</ele><time>2026-05-02T14:44:35.962Z</time></trkpt><trkpt lat="44.246887" lon="8.4011902"><ele>310.0</ele><time>2026-05-02T14:44:37.962Z</time></trkpt><trkpt lat="44.2468537" lon="8.4013174"><ele>310.0</ele><time>2026-05-02T14:44:39.961Z</time></trkpt><trkpt lat="44.2468223" lon="8.4014417"><ele>310.8333333333333</ele><time>2026-05-02T14:44:41.961Z</time></trkpt><trkpt lat="44.2467883" lon="8.401549"><ele>311.66666666666663</ele><time>2026-05-02T14:44:43.962Z</time></trkpt><trkpt lat="44.2467418" lon="8.4016259"><ele>312.5</ele><time>2026-05-02T14:44:45.962Z</time></trkpt><trkpt lat="44.2466891" lon="8.4017354"><ele>313.3333333333333</ele><time>2026-05-02T14:44:47.961Z</time></trkpt><trkpt lat="44.2466591" lon="8.4018284"><ele>314.1666666666667</ele><time>2026-05-02T14:44:49.962Z</time></trkpt><trkpt lat="44.2466038" lon="8.4019276"><ele>315.0</ele><time>2026-05-02T14:44:52.963Z</time></trkpt><trkpt lat="44.2465951" lon="8.4020167"><ele>315.0</ele><time>2026-05-02T14:44:54.961Z</time></trkpt><trkpt lat="44.2466353" lon="8.4021175"><ele>315.0</ele><time>2026-05-02T14:44:56.961Z</time></trkpt><trkpt lat="44.2466528" lon="8.4022126"><ele>315.0</ele><time>2026-05-02T14:44:58.962Z</time></trkpt><trkpt lat="44.2466474" lon="8.4023206"><ele>315.0</ele><time>2026-05-02T14:45:00.962Z</time></trkpt><trkpt lat="44.2466036" lon="8.4024279"><ele>315.0</ele><time>2026-05-02T14:45:02.961Z</time></trkpt><trkpt lat="44.2465536" lon="8.4025628"><ele>315.0</ele><time>2026-05-02T14:45:04.961Z</time></trkpt><trkpt lat="44.2465139" lon="8.402714"><ele>316.0</ele><time>2026-05-02T14:45:06.961Z</time></trkpt><trkpt lat="44.2464845" lon="8.4028656"><ele>317.0</ele><time>2026-05-02T14:45:08.961Z</time></trkpt><trkpt lat="44.2464673" lon="8.4030089"><ele>318.0</ele><time>2026-05-02T14:45:10.962Z</time></trkpt><trkpt lat="44.2464561" lon="8.4031347"><ele>319.0</ele><time>2026-05-02T14:45:12.963Z</time></trkpt><trkpt lat="44.2464305" lon="8.4032598"><ele>320.0</ele><time>2026-05-02T14:45:14.961Z</time></trkpt><trkpt lat="44.2463818" lon="8.4033615"><ele>324.83333333333337</ele><time>2026-05-02T14:45:16.961Z</time></trkpt><trkpt lat="44.2463249" lon="8.4034407"><ele>329.6666666666667</ele><time>2026-05-02T14:45:18.961Z</time></trkpt><trkpt lat="44.2462723" lon="8.4035146"><ele>334.5</ele><time>2026-05-02T14:45:20.961Z</time></trkpt><trkpt lat="44.2462156" lon="8.4035562"><ele>339.3333333333333</ele><time>2026-05-02T14:45:22.961Z</time></trkpt><trkpt lat="44.2461557" lon="8.403599"><ele>344.16666666666663</ele><time>2026-05-02T14:45:24.961Z</time></trkpt><trkpt lat="44.2460725" lon="8.4036075"><ele>349.0</ele><time>2026-05-02T14:45:27.962Z</time></trkpt><trkpt lat="44.2459819" lon="8.4036226"><ele>349.0</ele><time>2026-05-02T14:45:30.962Z</time></trkpt><trkpt lat="44.2459134" lon="8.40363"><ele>349.0</ele><time>2026-05-02T14:45:32.962Z</time></trkpt><trkpt lat="44.2458382" lon="8.4036652"><ele>349.0</ele><time>2026-05-02T14:45:34.962Z</time></trkpt><trkpt lat="44.2457721" lon="8.4037102"><ele>349.0</ele><time>2026-05-02T14:45:36.963Z</time></trkpt><trkpt lat="44.2457123" lon="8.4037908"><ele>349.0</ele><time>2026-05-02T14:45:38.963Z</time></trkpt><trkpt lat="44.2456406" lon="8.4038774"><ele>349.0</ele><time>2026-05-02T14:45:40.962Z</time></trkpt><trkpt lat="44.2455834" lon="8.4039528"><ele>350.4285714285714</ele><time>2026-05-02T14:45:42.962Z</time></trkpt><trkpt lat="44.2455652" lon="8.4040512"><ele>351.85714285714283</ele><time>2026-05-02T14:45:44.962Z</time></trkpt><trkpt lat="44.2455532" lon="8.4041441"><ele>353.2857142857143</ele><time>2026-05-02T14:45:46.963Z</time></trkpt><trkpt lat="44.2455336" lon="8.4042394"><ele>354.71428571428567</ele><time>2026-05-02T14:45:48.962Z</time></trkpt><trkpt lat="44.2455107" lon="8.4043353"><ele>356.14285714285717</ele><time>2026-05-02T14:45:50.963Z</time></trkpt><trkpt lat="44.2454906" lon="8.4044445"><ele>357.57142857142856</ele><time>2026-05-02T14:45:52.963Z</time></trkpt><trkpt lat="44.2454694" lon="8.4045532"><ele>359.0</ele><time>2026-05-02T14:45:54.962Z</time></trkpt><trkpt lat="44.2454446" lon="8.4046584"><ele>356.0</ele><time>2026-05-02T14:45:56.962Z</time></trkpt><trkpt lat="44.2454192" lon="8.4047481"><ele>353.0</ele><time>2026-05-02T14:45:58.962Z</time></trkpt><trkpt lat="44.2454148" lon="8.4048433"><ele>350.0</ele><time>2026-05-02T14:46:00.963Z</time></trkpt><trkpt lat="44.2453869" lon="8.4049526"><ele>347.0</ele><time>2026-05-02T14:46:03.963Z</time></trkpt><trkpt lat="44.2453308" lon="8.4050234"><ele>344.0</ele><time>2026-05-02T14:46:06.962Z</time></trkpt><trkpt lat="44.2452503" lon="8.4050714"><ele>341.0</ele><time>2026-05-02T14:46:09.964Z</time></trkpt><trkpt lat="44.2451629" lon="8.405089"><ele>341.0</ele><time>2026-05-02T14:46:12.962Z</time></trkpt><trkpt lat="44.2450954" lon="8.4050859"><ele>341.0</ele><time>2026-05-02T14:46:14.962Z</time></trkpt><trkpt lat="44.2450169" lon="8.4050775"><ele>341.0</ele><time>2026-05-02T14:46:18.962Z</time></trkpt><trkpt lat="44.2449349" lon="8.405105"><ele>341.0</ele><time>2026-05-02T14:46:20.962Z</time></trkpt><trkpt lat="44.2448616" lon="8.4051933"><ele>341.0</ele><time>2026-05-02T14:46:22.962Z</time></trkpt><trkpt lat="44.2448111" lon="8.405299"><ele>341.0</ele><time>2026-05-02T14:46:24.962Z</time></trkpt><trkpt lat="44.2447588" lon="8.405443"><ele>339.0</ele><time>2026-05-02T14:46:26.962Z</time></trkpt><trkpt lat="44.2447237" lon="8.4055716"><ele>337.0</ele><time>2026-05-02T14:46:28.962Z</time></trkpt><trkpt lat="44.2446997" lon="8.4056754"><ele>335.0</ele><time>2026-05-02T14:46:30.963Z</time></trkpt><trkpt lat="44.2446574" lon="8.4058349"><ele>333.0</ele><time>2026-05-02T14:46:33.964Z</time></trkpt><trkpt lat="44.2446121" lon="8.405922"><ele>331.0</ele><time>2026-05-02T14:46:35.963Z</time></trkpt><trkpt lat="44.2445925" lon="8.4060389"><ele>331.0</ele><time>2026-05-02T14:46:38.963Z</time></trkpt><trkpt lat="44.2445984" lon="8.4061471"><ele>331.0</ele><time>2026-05-02T14:46:40.963Z</time></trkpt><trkpt lat="44.244624" lon="8.406287"><ele>331.0</ele><time>2026-05-02T14:46:42.962Z</time></trkpt><trkpt lat="44.2446448" lon="8.4063997"><ele>331.0</ele><time>2026-05-02T14:46:44.963Z</time></trkpt><trkpt lat="44.2446628" lon="8.4064928"><ele>331.0</ele><time>2026-05-02T14:46:46.963Z</time></trkpt><trkpt lat="44.2446687" lon="8.4066244"><ele>331.0</ele><time>2026-05-02T14:46:48.963Z</time></trkpt><trkpt lat="44.2446559" lon="8.4067686"><ele>330.0</ele><time>2026-05-02T14:46:50.963Z</time></trkpt><trkpt lat="44.2446544" lon="8.4068986"><ele>329.0</ele><time>2026-05-02T14:46:52.962Z</time></trkpt><trkpt lat="44.2446755" lon="8.4070143"><ele>328.0</ele><time>2026-05-02T14:46:54.963Z</time></trkpt><trkpt lat="44.2447064" lon="8.40712"><ele>327.0</ele><time>2026-05-02T14:46:56.962Z</time></trkpt><trkpt lat="44.2447469" lon="8.4072305"><ele>326.0</ele><time>2026-05-02T14:46:58.963Z</time></trkpt><trkpt lat="44.2447905" lon="8.4073477"><ele>325.0</ele><time>2026-05-02T14:47:00.963Z</time></trkpt><trkpt lat="44.2448378" lon="8.4074607"><ele>325.0</ele><time>2026-05-02T14:47:02.962Z</time></trkpt><trkpt lat="44.2448788" lon="8.4075573"><ele>325.0</ele><time>2026-05-02T14:47:04.963Z</time></trkpt><trkpt lat="44.2449163" lon="8.4076528"><ele>325.0</ele><time>2026-05-02T14:47:06.962Z</time></trkpt><trkpt lat="44.2449586" lon="8.4077685"><ele>325.0</ele><time>2026-05-02T14:47:08.962Z</time></trkpt><trkpt lat="44.2449923" lon="8.407879"><ele>325.0</ele><time>2026-05-02T14:47:10.962Z</time></trkpt><trkpt lat="44.2450156" lon="8.4080029"><ele>325.0</ele><time>2026-05-02T14:47:13.962Z</time></trkpt><trkpt lat="44.2450291" lon="8.408111"><ele>324.66666666666663</ele><time>2026-05-02T14:47:15.962Z</time></trkpt><trkpt lat="44.2450428" lon="8.4082248"><ele>324.3333333333333</ele><time>2026-05-02T14:47:17.961Z</time></trkpt><trkpt lat="44.2450607" lon="8.4083123"><ele>324.0</ele><time>2026-05-02T14:47:19.961Z</time></trkpt><trkpt lat="44.2450882" lon="8.4084289"><ele>323.6666666666667</ele><time>2026-05-02T14:47:22.963Z</time></trkpt><trkpt lat="44.2451262" lon="8.4085211"><ele>323.33333333333337</ele><time>2026-05-02T14:47:24.964Z</time></trkpt><trkpt lat="44.2451582" lon="8.4086259"><ele>323.0</ele><time>2026-05-02T14:47:26.962Z</time></trkpt><trkpt lat="44.2451613" lon="8.4087181"><ele>323.0</ele><time>2026-05-02T14:47:28.962Z</time></trkpt><trkpt lat="44.2451677" lon="8.4088186"><ele>323.0</ele><time>2026-05-02T14:47:30.961Z</time></trkpt><trkpt lat="44.2451831" lon="8.4089352"><ele>323.0</ele><time>2026-05-02T14:47:32.962Z</time></trkpt><trkpt lat="44.2452055" lon="8.409055"><ele>323.0</ele><time>2026-05-02T14:47:34.963Z</time></trkpt><trkpt lat="44.2452263" lon="8.4091603"><ele>323.0</ele><time>2026-05-02T14:47:36.961Z</time></trkpt><trkpt lat="44.2452364" lon="8.4092792"><ele>323.0</ele><time>2026-05-02T14:47:38.961Z</time></trkpt><trkpt lat="44.2452395" lon="8.409437"><ele>322.14285714285717</ele><time>2026-05-02T14:47:40.962Z</time></trkpt><trkpt lat="44.2452408" lon="8.4095338"><ele>321.2857142857143</ele><time>2026-05-02T14:47:41.962Z</time></trkpt><trkpt lat="44.2452447" lon="8.4096467"><ele>320.42857142857144</ele><time>2026-05-02T14:47:42.961Z</time></trkpt><trkpt lat="44.2452466" lon="8.4097648"><ele>319.57142857142856</ele><time>2026-05-02T14:47:43.961Z</time></trkpt><trkpt lat="44.2452541" lon="8.409866"><ele>318.7142857142857</ele><time>2026-05-02T14:47:44.961Z</time></trkpt><trkpt lat="44.2452621" lon="8.409965"><ele>317.8571428571429</ele><time>2026-05-02T14:47:45.961Z</time></trkpt><trkpt lat="44.2452696" lon="8.4100562"><ele>317.0</ele><time>2026-05-02T14:47:46.963Z</time></trkpt><trkpt lat="44.2452782" lon="8.4101492"><ele>317.4</ele><time>2026-05-02T14:47:47.961Z</time></trkpt><trkpt lat="44.2452842" lon="8.4102442"><ele>317.79999999999995</ele><time>2026-05-02T14:47:48.962Z</time></trkpt><trkpt lat="44.2452863" lon="8.4104052"><ele>318.2</ele><time>2026-05-02T14:47:50.964Z</time></trkpt><trkpt lat="44.2452653" lon="8.410566"><ele>318.59999999999997</ele><time>2026-05-02T14:47:52.963Z</time></trkpt><trkpt lat="44.2452489" lon="8.4106999"><ele>319.0</ele><time>2026-05-02T14:47:54.962Z</time></trkpt><trkpt lat="44.2452282" lon="8.4108573"><ele>319.0</ele><time>2026-05-02T14:47:56.962Z</time></trkpt><trkpt lat="44.2452155" lon="8.4110155"><ele>319.0</ele><time>2026-05-02T14:47:58.961Z</time></trkpt><trkpt lat="44.2452013" lon="8.4111376"><ele>319.0</ele><time>2026-05-02T14:48:00.961Z</time></trkpt><trkpt lat="44.2451914" lon="8.4112423"><ele>319.0</ele><time>2026-05-02T14:48:03.962Z</time></trkpt><trkpt lat="44.2451884" lon="8.4113452"><ele>319.0</ele><time>2026-05-02T14:48:06.962Z</time></trkpt><trkpt lat="44.2451703" lon="8.4114997"><ele>320.6</ele><time>2026-05-02T14:51:33.961Z</time></trkpt><trkpt lat="44.2451514" lon="8.4116185"><ele>322.2</ele><time>2026-05-02T14:51:35.961Z</time></trkpt><trkpt lat="44.2451319" lon="8.4117434"><ele>323.8</ele><time>2026-05-02T14:51:37.96Z</time></trkpt><trkpt lat="44.2451119" lon="8.4118776"><ele>325.40000000000003</ele><time>2026-05-02T14:51:39.96Z</time></trkpt><trkpt lat="44.2450957" lon="8.4120959"><ele>327.0</ele><time>2026-05-02T14:51:42.96Z</time></trkpt><trkpt lat="44.2450915" lon="8.4122287"><ele>329.6</ele><time>2026-05-02T14:51:44.962Z</time></trkpt><trkpt lat="44.2450734" lon="8.4123596"><ele>332.20000000000005</ele><time>2026-05-02T14:51:46.961Z</time></trkpt><trkpt lat="44.2450422" lon="8.4124544"><ele>334.8</ele><time>2026-05-02T14:51:48.96Z</time></trkpt><trkpt lat="44.2449922" lon="8.4126234"><ele>337.4</ele><time>2026-05-02T14:51:51.961Z</time></trkpt><trkpt lat="44.2449754" lon="8.4127099"><ele>340.0</ele><time>2026-05-02T14:51:52.962Z</time></trkpt><trkpt lat="44.2449602" lon="8.4128898"><ele>342.2</ele><time>2026-05-02T14:51:54.96Z</time></trkpt><trkpt lat="44.2449941" lon="8.41303"><ele>344.4</ele><time>2026-05-02T14:51:56.961Z</time></trkpt><trkpt lat="44.2450428" lon="8.4131353"><ele>346.6</ele><time>2026-05-02T14:51:58.96Z</time></trkpt><trkpt lat="44.2450565" lon="8.4132409"><ele>348.8</ele><time>2026-05-02T14:52:00.962Z</time></trkpt><trkpt lat="44.245068" lon="8.4133645"><ele>351.0</ele><time>2026-05-02T14:52:02.961Z</time></trkpt><trkpt lat="44.245046" lon="8.4134837"><ele>351.0</ele><time>2026-05-02T14:52:04.96Z</time></trkpt><trkpt lat="44.2450008" lon="8.413598"><ele>351.0</ele><time>2026-05-02T14:52:06.96Z</time></trkpt><trkpt lat="44.2449833" lon="8.4137135"><ele>351.0</ele><time>2026-05-02T14:52:08.961Z</time></trkpt><trkpt lat="44.2449867" lon="8.4138303"><ele>351.0</ele><time>2026-05-02T14:52:10.961Z</time></trkpt><trkpt lat="44.2450053" lon="8.4139517"><ele>351.0</ele><time>2026-05-02T14:52:12.961Z</time></trkpt><trkpt lat="44.2450038" lon="8.4140698"><ele>351.0</ele><time>2026-05-02T14:52:14.961Z</time></trkpt><trkpt lat="44.2449942" lon="8.414203"><ele>352.0</ele><time>2026-05-02T14:52:16.962Z</time></trkpt><trkpt lat="44.2449931" lon="8.4142945"><ele>353.0</ele><time>2026-05-02T14:52:18.96Z</time></trkpt><trkpt lat="44.2449911" lon="8.4143936"><ele>354.0</ele><time>2026-05-02T14:52:20.96Z</time></trkpt><trkpt lat="44.2449744" lon="8.4145035"><ele>355.0</ele><time>2026-05-02T14:52:22.961Z</time></trkpt><trkpt lat="44.24497" lon="8.4146321"><ele>356.0</ele><time>2026-05-02T14:52:24.961Z</time></trkpt><trkpt lat="44.2449814" lon="8.4147681"><ele>357.0</ele><time>2026-05-02T14:52:26.96Z</time></trkpt><trkpt lat="44.2450054" lon="8.4148922"><ele>358.8</ele><time>2026-05-02T14:52:28.96Z</time></trkpt><trkpt lat="44.2450265" lon="8.4150189"><ele>360.6</ele><time>2026-05-02T14:52:30.961Z</time></trkpt><trkpt lat="44.245039" lon="8.4151683"><ele>362.40000000000003</ele><time>2026-05-02T14:52:32.96Z</time></trkpt><trkpt lat="44.2450527" lon="8.4153189"><ele>364.20000000000005</ele><time>2026-05-02T14:52:34.96Z</time></trkpt><trkpt lat="44.2450651" lon="8.4154736"><ele>366.0</ele><time>2026-05-02T14:52:36.961Z</time></trkpt><trkpt lat="44.2450732" lon="8.4156157"><ele>366.6666666666667</ele><time>2026-05-02T14:52:38.962Z</time></trkpt><trkpt lat="44.24508" lon="8.4157646"><ele>367.3333333333333</ele><time>2026-05-02T14:52:40.961Z</time></trkpt><trkpt lat="44.2450856" lon="8.4158972"><ele>368.0</ele><time>2026-05-02T14:52:42.96Z</time></trkpt><trkpt lat="44.2450961" lon="8.416012"><ele>368.66666666666663</ele><time>2026-05-02T14:52:44.96Z</time></trkpt><trkpt lat="44.2450969" lon="8.4161108"><ele>369.3333333333333</ele><time>2026-05-02T14:52:46.961Z</time></trkpt><trkpt lat="44.2450716" lon="8.4161952"><ele>370.0</ele><time>2026-05-02T14:52:48.96Z</time></trkpt><trkpt lat="44.2450336" lon="8.416276"><ele>369.3333333333333</ele><time>2026-05-02T14:52:50.961Z</time></trkpt><trkpt lat="44.2449722" lon="8.4163744"><ele>368.66666666666663</ele><time>2026-05-02T14:52:53.96Z</time></trkpt><trkpt lat="44.2448958" lon="8.4164411"><ele>368.0</ele><time>2026-05-02T14:52:56.961Z</time></trkpt><trkpt lat="44.2448291" lon="8.4165185"><ele>367.3333333333333</ele><time>2026-05-02T14:52:59.961Z</time></trkpt><trkpt lat="44.244775" lon="8.4166154"><ele>366.6666666666667</ele><time>2026-05-02T14:53:02.961Z</time></trkpt><trkpt lat="44.24473" lon="8.4167145"><ele>366.0</ele><time>2026-05-02T14:53:05.961Z</time></trkpt><trkpt lat="44.2446821" lon="8.4168142"><ele>368.1666666666667</ele><time>2026-05-02T14:53:08.961Z</time></trkpt><trkpt lat="44.2446672" lon="8.4169303"><ele>370.3333333333333</ele><time>2026-05-02T14:53:11.96Z</time></trkpt><trkpt lat="44.2446635" lon="8.4170618"><ele>372.5</ele><time>2026-05-02T14:53:14.96Z</time></trkpt><trkpt lat="44.2446633" lon="8.4171844"><ele>374.66666666666663</ele><time>2026-05-02T14:53:17.962Z</time></trkpt><trkpt lat="44.2446775" lon="8.4172706"><ele>376.8333333333333</ele><time>2026-05-02T14:53:19.961Z</time></trkpt><trkpt lat="44.244695" lon="8.4173611"><ele>379.0</ele><time>2026-05-02T14:53:21.96Z</time></trkpt><trkpt lat="44.2447055" lon="8.4174479"><ele>380.0</ele><time>2026-05-02T14:53:23.96Z</time></trkpt><trkpt lat="44.2447086" lon="8.4175398"><ele>381.0</ele><time>2026-05-02T14:53:25.96Z</time></trkpt><trkpt lat="44.2447109" lon="8.4176704"><ele>382.0</ele><time>2026-05-02T14:53:28.96Z</time></trkpt><trkpt lat="44.2447061" lon="8.4177815"><ele>383.0</ele><time>2026-05-02T14:53:30.96Z</time></trkpt><trkpt lat="44.2447026" lon="8.4179128"><ele>384.00000000000006</ele><time>2026-05-02T14:53:32.96Z</time></trkpt><trkpt lat="44.2446919" lon="8.4180266"><ele>385.0</ele><time>2026-05-02T14:53:34.96Z</time></trkpt><trkpt lat="44.2446849" lon="8.4181148"><ele>385.57142857142856</ele><time>2026-05-02T14:53:36.96Z</time></trkpt><trkpt lat="44.2446828" lon="8.4182147"><ele>386.1428571428571</ele><time>2026-05-02T14:53:38.961Z</time></trkpt><trkpt lat="44.2446881" lon="8.4183227"><ele>386.7142857142857</ele><time>2026-05-02T14:53:40.962Z</time></trkpt><trkpt lat="44.2446937" lon="8.4184438"><ele>387.2857142857143</ele><time>2026-05-02T14:53:42.961Z</time></trkpt><trkpt lat="44.2447016" lon="8.4185424"><ele>387.85714285714283</ele><time>2026-05-02T14:53:44.961Z</time></trkpt><trkpt lat="44.2447208" lon="8.41864"><ele>388.42857142857144</ele><time>2026-05-02T14:53:46.961Z</time></trkpt><trkpt lat="44.2447305" lon="8.4187329"><ele>389.0</ele><time>2026-05-02T14:53:48.962Z</time></trkpt><trkpt lat="44.2447413" lon="8.418821"><ele>389.3333333333333</ele><time>2026-05-02T14:53:50.96Z</time></trkpt><trkpt lat="44.2447393" lon="8.4189496"><ele>389.66666666666663</ele><time>2026-05-02T14:53:53.961Z</time></trkpt><trkpt lat="44.2446946" lon="8.4190682"><ele>390.0</ele><time>2026-05-02T14:53:56.96Z</time></trkpt><trkpt lat="44.2446606" lon="8.4191572"><ele>390.33333333333337</ele><time>2026-05-02T14:53:58.96Z</time></trkpt><trkpt lat="44.2446163" lon="8.4192596"><ele>390.6666666666667</ele><time>2026-05-02T14:54:01.959Z</time></trkpt><trkpt lat="44.2445763" lon="8.4193504"><ele>391.0</ele><time>2026-05-02T14:54:04.961Z</time></trkpt><trkpt lat="44.2445346" lon="8.4194505"><ele>391.00000000000006</ele><time>2026-05-02T14:54:07.961Z</time></trkpt><trkpt lat="44.2444987" lon="8.41956"><ele>391.0</ele><time>2026-05-02T14:54:10.962Z</time></trkpt><trkpt lat="44.2445076" lon="8.4196807"><ele>391.0</ele><time>2026-05-02T14:54:13.96Z</time></trkpt><trkpt lat="44.2445484" lon="8.4197936"><ele>391.0</ele><time>2026-05-02T14:54:16.961Z</time></trkpt><trkpt lat="44.2445858" lon="8.4198758"><ele>391.00000000000006</ele><time>2026-05-02T14:54:18.961Z</time></trkpt><trkpt lat="44.2446183" lon="8.4199543"><ele>391.0</ele><time>2026-05-02T14:54:20.96Z</time></trkpt><trkpt lat="44.2446526" lon="8.4200283"><ele>390.33333333333337</ele><time>2026-05-02T14:54:22.961Z</time></trkpt><trkpt lat="44.2447011" lon="8.4201239"><ele>389.6666666666667</ele><time>2026-05-02T14:54:25.961Z</time></trkpt><trkpt lat="44.2447413" lon="8.4201981"><ele>389.0</ele><time>2026-05-02T14:54:27.96Z</time></trkpt><trkpt lat="44.2448166" lon="8.4202645"><ele>388.33333333333337</ele><time>2026-05-02T14:54:29.962Z</time></trkpt><trkpt lat="44.2448963" lon="8.4203319"><ele>387.6666666666667</ele><time>2026-05-02T14:54:31.962Z</time></trkpt><trkpt lat="44.2449643" lon="8.420385"><ele>387.0</ele><time>2026-05-02T14:54:33.961Z</time></trkpt><trkpt lat="44.2450272" lon="8.4204577"><ele>381.5</ele><time>2026-05-02T14:54:35.96Z</time></trkpt><trkpt lat="44.2450854" lon="8.4205159"><ele>376.0</ele><time>2026-05-02T14:54:37.96Z</time></trkpt><trkpt lat="44.2451779" lon="8.4205668"><ele>370.5</ele><time>2026-05-02T14:54:40.96Z</time></trkpt><trkpt lat="44.2452526" lon="8.42059"><ele>365.0</ele><time>2026-05-02T14:54:42.96Z</time></trkpt><trkpt lat="44.2453171" lon="8.4206251"><ele>359.5</ele><time>2026-05-02T14:54:44.961Z</time></trkpt><trkpt lat="44.2453788" lon="8.420676"><ele>354.0</ele><time>2026-05-02T14:54:46.961Z</time></trkpt><trkpt lat="44.2454375" lon="8.4207443"><ele>354.0</ele><time>2026-05-02T14:54:48.961Z</time></trkpt><trkpt lat="44.2454788" lon="8.4208194"><ele>354.0</ele><time>2026-05-02T14:54:50.961Z</time></trkpt><trkpt lat="44.2455109" lon="8.4208958"><ele>354.0</ele><time>2026-05-02T14:54:52.961Z</time></trkpt><trkpt lat="44.245529" lon="8.4209913"><ele>354.0</ele><time>2026-05-02T14:54:54.96Z</time></trkpt><trkpt lat="44.2455321" lon="8.4211251"><ele>354.0</ele><time>2026-05-02T14:54:57.961Z</time></trkpt><trkpt lat="44.2455267" lon="8.4212134"><ele>354.0</ele><time>2026-05-02T14:54:59.96Z</time></trkpt><trkpt lat="44.2455379" lon="8.421306"><ele>354.0</ele><time>2026-05-02T14:55:01.961Z</time></trkpt><trkpt lat="44.2455642" lon="8.4214208"><ele>355.6666666666667</ele><time>2026-05-02T14:55:04.959Z</time></trkpt><trkpt lat="44.2455884" lon="8.4215364"><ele>357.3333333333333</ele><time>2026-05-02T14:55:07.961Z</time></trkpt><trkpt lat="44.2455898" lon="8.4216487"><ele>359.0</ele><time>2026-05-02T14:55:09.961Z</time></trkpt><trkpt lat="44.2455774" lon="8.421768"><ele>360.66666666666663</ele><time>2026-05-02T14:55:11.961Z</time></trkpt><trkpt lat="44.2455553" lon="8.4219013"><ele>362.3333333333333</ele><time>2026-05-02T14:55:13.961Z</time></trkpt><trkpt lat="44.2455601" lon="8.4220334"><ele>364.0</ele><time>2026-05-02T14:55:16.961Z</time></trkpt><trkpt lat="44.245571" lon="8.422138"><ele>362.3333333333333</ele><time>2026-05-02T14:55:18.96Z</time></trkpt><trkpt lat="44.245593" lon="8.4222582"><ele>360.66666666666663</ele><time>2026-05-02T14:55:20.96Z</time></trkpt><trkpt lat="44.2456092" lon="8.4223784"><ele>359.0</ele><time>2026-05-02T14:55:22.959Z</time></trkpt><trkpt lat="44.2456186" lon="8.4224793"><ele>357.3333333333333</ele><time>2026-05-02T14:55:24.961Z</time></trkpt><trkpt lat="44.2456204" lon="8.4225892"><ele>355.6666666666667</ele><time>2026-05-02T14:55:26.96Z</time></trkpt><trkpt lat="44.245636" lon="8.4226958"><ele>354.0</ele><time>2026-05-02T14:55:28.96Z</time></trkpt><trkpt lat="44.2456644" lon="8.4228098"><ele>349.6666666666667</ele><time>2026-05-02T14:55:30.961Z</time></trkpt><trkpt lat="44.2456939" lon="8.4229062"><ele>345.3333333333333</ele><time>2026-05-02T14:55:32.961Z</time></trkpt><trkpt lat="44.2457183" lon="8.4229961"><ele>341.0</ele><time>2026-05-02T14:55:34.961Z</time></trkpt><trkpt lat="44.2456972" lon="8.423106"><ele>336.66666666666663</ele><time>2026-05-02T14:55:37.961Z</time></trkpt><trkpt lat="44.245621" lon="8.4231667"><ele>332.3333333333333</ele><time>2026-05-02T14:55:40.959Z</time></trkpt><trkpt lat="44.2455329" lon="8.4232382"><ele>328.0</ele><time>2026-05-02T14:55:42.961Z</time></trkpt><trkpt lat="44.2454453" lon="8.4233039"><ele>328.0</ele><time>2026-05-02T14:55:44.96Z</time></trkpt><trkpt lat="44.2453573" lon="8.4233605"><ele>328.0</ele><time>2026-05-02T14:55:46.962Z</time></trkpt><trkpt lat="44.2452616" lon="8.4233947"><ele>328.0</ele><time>2026-05-02T14:55:48.959Z</time></trkpt><trkpt lat="44.2451911" lon="8.4234535"><ele>328.0</ele><time>2026-05-02T14:55:50.962Z</time></trkpt><trkpt lat="44.2451253" lon="8.4234942"><ele>328.0</ele><time>2026-05-02T14:55:52.961Z</time></trkpt><trkpt lat="44.2450677" lon="8.4235387"><ele>328.0</ele><time>2026-05-02T14:55:54.959Z</time></trkpt><trkpt lat="44.2449817" lon="8.4235898"><ele>328.0</ele><time>2026-05-02T14:55:57.961Z</time></trkpt><trkpt lat="44.2449354" lon="8.4236567"><ele>328.0</ele><time>2026-05-02T14:55:59.959Z</time></trkpt><trkpt lat="44.2448802" lon="8.4237468"><ele>328.0</ele><time>2026-05-02T14:56:01.961Z</time></trkpt><trkpt lat="44.2448299" lon="8.4238257"><ele>328.0</ele><time>2026-05-02T14:56:03.96Z</time></trkpt><trkpt lat="44.2447895" lon="8.4239216"><ele>328.0</ele><time>2026-05-02T14:56:05.962Z</time></trkpt><trkpt lat="44.2447639" lon="8.424021"><ele>328.0</ele><time>2026-05-02T14:56:07.961Z</time></trkpt><trkpt lat="44.2447433" lon="8.4241173"><ele>324.1428571428571</ele><time>2026-05-02T14:56:09.96Z</time></trkpt><trkpt lat="44.2447261" lon="8.4242087"><ele>320.2857142857143</ele><time>2026-05-02T14:56:11.96Z</time></trkpt><trkpt lat="44.2447" lon="8.4243146"><ele>316.42857142857144</ele><time>2026-05-02T14:56:14.959Z</time></trkpt><trkpt lat="44.2446867" lon="8.4244011"><ele>312.57142857142856</ele><time>2026-05-02T14:56:16.96Z</time></trkpt><trkpt lat="44.2446826" lon="8.4244979"><ele>308.7142857142857</ele><time>2026-05-02T14:56:18.961Z</time></trkpt><trkpt lat="44.2446905" lon="8.4246245"><ele>304.85714285714283</ele><time>2026-05-02T14:56:21.96Z</time></trkpt><trkpt lat="44.2446933" lon="8.4247126"><ele>301.0</ele><time>2026-05-02T14:56:23.959Z</time></trkpt><trkpt lat="44.2447143" lon="8.4248311"><ele>299.0</ele><time>2026-05-02T14:56:26.959Z</time></trkpt><trkpt lat="44.2447212" lon="8.4249204"><ele>297.0</ele><time>2026-05-02T14:56:28.959Z</time></trkpt><trkpt lat="44.2447235" lon="8.4250093"><ele>295.0</ele><time>2026-05-02T14:56:30.959Z</time></trkpt><trkpt lat="44.2447225" lon="8.4251158"><ele>293.0</ele><time>2026-05-02T14:56:32.961Z</time></trkpt><trkpt lat="44.2447125" lon="8.425204"><ele>291.0</ele><time>2026-05-02T14:56:34.961Z</time></trkpt><trkpt lat="44.2446949" lon="8.4253035"><ele>289.0</ele><time>2026-05-02T14:56:36.96Z</time></trkpt><trkpt lat="44.2446873" lon="8.4254376"><ele>287.0</ele><time>2026-05-02T14:56:38.96Z</time></trkpt><trkpt lat="44.2446849" lon="8.425546"><ele>286.42857142857144</ele><time>2026-05-02T14:56:40.959Z</time></trkpt><trkpt lat="44.2446955" lon="8.4256498"><ele>285.8571428571429</ele><time>2026-05-02T14:56:42.961Z</time></trkpt><trkpt lat="44.2447013" lon="8.425742"><ele>285.2857142857143</ele><time>2026-05-02T14:56:44.959Z</time></trkpt><trkpt lat="44.2447342" lon="8.4258688"><ele>284.7142857142857</ele><time>2026-05-02T14:56:47.961Z</time></trkpt><trkpt lat="44.2447829" lon="8.4259487"><ele>284.14285714285717</ele><time>2026-05-02T14:56:49.96Z</time></trkpt><trkpt lat="44.244835" lon="8.4260103"><ele>283.57142857142856</ele><time>2026-05-02T14:56:51.959Z</time></trkpt><trkpt lat="44.2448861" lon="8.4260706"><ele>283.0</ele><time>2026-05-02T14:56:53.962Z</time></trkpt><trkpt lat="44.2449481" lon="8.4261489"><ele>283.0</ele><time>2026-05-02T14:56:56.96Z</time></trkpt><trkpt lat="44.2449918" lon="8.4262515"><ele>283.0</ele><time>2026-05-02T14:56:59.96Z</time></trkpt><trkpt lat="44.2450182" lon="8.4263711"><ele>283.0</ele><time>2026-05-02T14:57:02.959Z</time></trkpt><trkpt lat="44.2450539" lon="8.4264942"><ele>283.0</ele><time>2026-05-02T14:57:05.96Z</time></trkpt><trkpt lat="44.2450815" lon="8.4265783"><ele>283.0</ele><time>2026-05-02T14:57:07.96Z</time></trkpt><trkpt lat="44.2451221" lon="8.4266562"><ele>283.0</ele><time>2026-05-02T14:57:09.96Z</time></trkpt><trkpt lat="44.2451456" lon="8.4267494"><ele>282.0</ele><time>2026-05-02T14:57:11.96Z</time></trkpt><trkpt lat="44.2451553" lon="8.4268444"><ele>281.0</ele><time>2026-05-02T14:57:13.959Z</time></trkpt><trkpt lat="44.2451621" lon="8.4269741"><ele>280.0</ele><time>2026-05-02T14:57:16.96Z</time></trkpt><trkpt lat="44.2451983" lon="8.4271014"><ele>279.0</ele><time>2026-05-02T14:57:19.959Z</time></trkpt><trkpt lat="44.2452527" lon="8.427167"><ele>278.0</ele><time>2026-05-02T14:57:21.961Z</time></trkpt><trkpt lat="44.2453172" lon="8.4272139"><ele>277.0</ele><time>2026-05-02T14:57:23.959Z</time></trkpt><trkpt lat="44.2453767" lon="8.427255"><ele>275.66666666666663</ele><time>2026-05-02T14:57:25.962Z</time></trkpt><trkpt lat="44.2454295" lon="8.4273294"><ele>274.3333333333333</ele><time>2026-05-02T14:57:27.962Z</time></trkpt><trkpt lat="44.2454918" lon="8.4273939"><ele>273.0</ele><time>2026-05-02T14:57:29.96Z</time></trkpt><trkpt lat="44.2455608" lon="8.4274283"><ele>271.6666666666667</ele><time>2026-05-02T14:57:31.96Z</time></trkpt><trkpt lat="44.2456498" lon="8.4274551"><ele>270.33333333333337</ele><time>2026-05-02T14:57:34.96Z</time></trkpt><trkpt lat="44.2457511" lon="8.4274952"><ele>269.0</ele><time>2026-05-02T14:57:36.96Z</time></trkpt><trkpt lat="44.2458433" lon="8.4275202"><ele>268.5</ele><time>2026-05-02T14:57:38.959Z</time></trkpt><trkpt lat="44.2459121" lon="8.427561"><ele>268.0</ele><time>2026-05-02T14:57:40.959Z</time></trkpt><trkpt lat="44.2459821" lon="8.4276479"><ele>267.5</ele><time>2026-05-02T14:57:43.959Z</time></trkpt><trkpt lat="44.24602" lon="8.4277532"><ele>267.0</ele><time>2026-05-02T14:57:46.959Z</time></trkpt><trkpt lat="44.2460583" lon="8.4278538"><ele>266.5</ele><time>2026-05-02T14:57:49.959Z</time></trkpt><trkpt lat="44.2460788" lon="8.4279508"><ele>266.0</ele><time>2026-05-02T14:57:52.959Z</time></trkpt><trkpt lat="44.246097" lon="8.4280732"><ele>265.14285714285717</ele><time>2026-05-02T14:57:56.96Z</time></trkpt><trkpt lat="44.2460854" lon="8.4281648"><ele>264.2857142857143</ele><time>2026-05-02T14:57:58.961Z</time></trkpt><trkpt lat="44.246049" lon="8.4282521"><ele>263.42857142857144</ele><time>2026-05-02T14:58:00.959Z</time></trkpt><trkpt lat="44.2459823" lon="8.4283379"><ele>262.57142857142856</ele><time>2026-05-02T14:58:03.961Z</time></trkpt><trkpt lat="44.2459315" lon="8.4283953"><ele>261.7142857142857</ele><time>2026-05-02T14:58:07.959Z</time></trkpt><trkpt lat="44.2458857" lon="8.4284677"><ele>260.8571428571429</ele><time>2026-05-02T14:58:11.96Z</time></trkpt><trkpt lat="44.2458902" lon="8.4285684"><ele>260.0</ele><time>2026-05-02T14:58:14.959Z</time></trkpt><trkpt lat="44.2459229" lon="8.4286491"><ele>260.0</ele><time>2026-05-02T14:58:17.96Z</time></trkpt><trkpt lat="44.2459853" lon="8.4286925"><ele>260.0</ele><time>2026-05-02T14:58:20.96Z</time></trkpt><trkpt lat="44.2460499" lon="8.4286993"><ele>260.0</ele><time>2026-05-02T14:58:22.959Z</time></trkpt><trkpt lat="44.2461208" lon="8.4286948"><ele>260.0</ele><time>2026-05-02T14:58:24.961Z</time></trkpt><trkpt lat="44.2462133" lon="8.4286728"><ele>260.0</ele><time>2026-05-02T14:58:27.961Z</time></trkpt><trkpt lat="44.2462852" lon="8.4286828"><ele>260.0</ele><time>2026-05-02T14:58:29.96Z</time></trkpt><trkpt lat="44.2463659" lon="8.4287082"><ele>260.0</ele><time>2026-05-02T14:58:31.959Z</time></trkpt><trkpt lat="44.2464532" lon="8.4287346"><ele>260.0</ele><time>2026-05-02T14:58:33.959Z</time></trkpt><trkpt lat="44.2465523" lon="8.4287554"><ele>260.0</ele><time>2026-05-02T14:58:35.961Z</time></trkpt><trkpt lat="44.2466161" lon="8.4287635"><ele>260.0</ele><time>2026-05-02T14:58:36.959Z</time></trkpt><trkpt lat="44.2466907" lon="8.4287711"><ele>260.0</ele><time>2026-05-02T14:58:37.96Z</time></trkpt><trkpt lat="44.2468102" lon="8.4287931"><ele>260.0</ele><time>2026-05-02T14:58:39.959Z</time></trkpt><trkpt lat="44.2469243" lon="8.4287907"><ele>259.5</ele><time>2026-05-02T14:58:40.959Z</time></trkpt><trkpt lat="44.2470142" lon="8.4288006"><ele>259.0</ele><time>2026-05-02T14:58:41.961Z</time></trkpt><trkpt lat="44.2471045" lon="8.4287982"><ele>258.5</ele><time>2026-05-02T14:58:42.96Z</time></trkpt><trkpt lat="44.2471869" lon="8.4288094"><ele>258.0</ele><time>2026-05-02T14:58:43.961Z</time></trkpt><trkpt lat="44.2472598" lon="8.4288228"><ele>257.5</ele><time>2026-05-02T14:58:44.96Z</time></trkpt><trkpt lat="44.2473275" lon="8.4288434"><ele>257.0</ele><time>2026-05-02T14:58:45.959Z</time></trkpt><trkpt lat="44.2473989" lon="8.4288531"><ele>256.0</ele><time>2026-05-02T14:58:46.96Z</time></trkpt><trkpt lat="44.2474678" lon="8.4288741"><ele>255.0</ele><time>2026-05-02T14:58:47.961Z</time></trkpt><trkpt lat="44.2475366" lon="8.4289098"><ele>254.0</ele><time>2026-05-02T14:58:48.959Z</time></trkpt><trkpt lat="44.2476117" lon="8.4289464"><ele>253.0</ele><time>2026-05-02T14:58:49.961Z</time></trkpt><trkpt lat="44.247682" lon="8.428989"><ele>252.0</ele><time>2026-05-02T14:58:50.96Z</time></trkpt><trkpt lat="44.2477347" lon="8.4290575"><ele>251.0</ele><time>2026-05-02T14:58:51.961Z</time></trkpt><trkpt lat="44.2477849" lon="8.4291321"><ele>250.0</ele><time>2026-05-02T14:58:52.959Z</time></trkpt><trkpt lat="44.2478338" lon="8.4292101"><ele>250.0</ele><time>2026-05-02T14:58:53.96Z</time></trkpt><trkpt lat="44.2478841" lon="8.4292896"><ele>250.0</ele><time>2026-05-02T14:58:54.961Z</time></trkpt><trkpt lat="44.2479284" lon="8.429367"><ele>250.0</ele><time>2026-05-02T14:58:55.959Z</time></trkpt><trkpt lat="44.2479805" lon="8.4294414"><ele>250.0</ele><time>2026-05-02T14:58:56.959Z</time></trkpt><trkpt lat="44.2480407" lon="8.4295001"><ele>250.0</ele><time>2026-05-02T14:58:57.959Z</time></trkpt><trkpt lat="44.2481186" lon="8.4295388"><ele>250.0</ele><time>2026-05-02T14:58:58.96Z</time></trkpt><trkpt lat="44.248178" lon="8.4295741"><ele>250.0</ele><time>2026-05-02T14:58:59.96Z</time></trkpt><trkpt lat="44.2482833" lon="8.4296379"><ele>250.99999999999997</ele><time>2026-05-02T14:59:01.959Z</time></trkpt><trkpt lat="44.2483487" lon="8.4296584"><ele>252.0</ele><time>2026-05-02T14:59:02.96Z</time></trkpt><trkpt lat="44.2484149" lon="8.4296767"><ele>253.0</ele><time>2026-05-02T14:59:03.961Z</time></trkpt><trkpt lat="44.2484866" lon="8.4296939"><ele>254.0</ele><time>2026-05-02T14:59:04.961Z</time></trkpt><trkpt lat="44.2485701" lon="8.4297039"><ele>254.99999999999997</ele><time>2026-05-02T14:59:05.959Z</time></trkpt><trkpt lat="44.2486488" lon="8.4297054"><ele>256.0</ele><time>2026-05-02T14:59:06.961Z</time></trkpt><trkpt lat="44.2487291" lon="8.4297062"><ele>255.99999999999997</ele><time>2026-05-02T14:59:07.959Z</time></trkpt><trkpt lat="44.248808" lon="8.4297085"><ele>256.0</ele><time>2026-05-02T14:59:08.96Z</time></trkpt><trkpt lat="44.2488889" lon="8.429706"><ele>256.0</ele><time>2026-05-02T14:59:09.959Z</time></trkpt><trkpt lat="44.2489682" lon="8.4297148"><ele>256.0</ele><time>2026-05-02T14:59:10.959Z</time></trkpt><trkpt lat="44.2490431" lon="8.4297339"><ele>255.99999999999997</ele><time>2026-05-02T14:59:11.961Z</time></trkpt><trkpt lat="44.2491149" lon="8.4297582"><ele>256.0</ele><time>2026-05-02T14:59:12.959Z</time></trkpt><trkpt lat="44.2491836" lon="8.4297794"><ele>254.49999999999997</ele><time>2026-05-02T14:59:13.959Z</time></trkpt><trkpt lat="44.2492589" lon="8.4297873"><ele>253.0</ele><time>2026-05-02T14:59:14.961Z</time></trkpt><trkpt lat="44.2493393" lon="8.4297913"><ele>251.5</ele><time>2026-05-02T14:59:15.96Z</time></trkpt><trkpt lat="44.2494221" lon="8.4297912"><ele>250.0</ele><time>2026-05-02T14:59:16.959Z</time></trkpt><trkpt lat="44.2495607" lon="8.4297925"><ele>248.49999999999997</ele><time>2026-05-02T14:59:18.96Z</time></trkpt><trkpt lat="44.2496237" lon="8.4298088"><ele>247.0</ele><time>2026-05-02T14:59:19.96Z</time></trkpt><trkpt lat="44.2497319" lon="8.4299094"><ele>246.99999999999997</ele><time>2026-05-02T14:59:21.959Z</time></trkpt><trkpt lat="44.2497889" lon="8.4299851"><ele>247.0</ele><time>2026-05-02T14:59:22.959Z</time></trkpt><trkpt lat="44.2498585" lon="8.4300801"><ele>247.0</ele><time>2026-05-02T14:59:23.96Z</time></trkpt><trkpt lat="44.2499077" lon="8.4301813"><ele>247.0</ele><time>2026-05-02T14:59:24.959Z</time></trkpt><trkpt lat="44.2499586" lon="8.4302729"><ele>246.99999999999997</ele><time>2026-05-02T14:59:25.96Z</time></trkpt><trkpt lat="44.2500042" lon="8.4303524"><ele>247.0</ele><time>2026-05-02T14:59:26.959Z</time></trkpt><trkpt lat="44.2500461" lon="8.4304334"><ele>247.8</ele><time>2026-05-02T14:59:27.96Z</time></trkpt><trkpt lat="44.2501303" lon="8.4305631"><ele>248.6</ele><time>2026-05-02T14:59:29.959Z</time></trkpt><trkpt lat="44.2502046" lon="8.4306784"><ele>249.40000000000003</ele><time>2026-05-02T14:59:31.959Z</time></trkpt><trkpt lat="44.2502757" lon="8.4307758"><ele>250.20000000000002</ele><time>2026-05-02T14:59:33.96Z</time></trkpt><trkpt lat="44.2503466" lon="8.4308932"><ele>251.0</ele><time>2026-05-02T14:59:35.96Z</time></trkpt><trkpt lat="44.250424" lon="8.4309982"><ele>251.0</ele><time>2026-05-02T14:59:37.96Z</time></trkpt><trkpt lat="44.2504823" lon="8.4311177"><ele>251.00000000000003</ele><time>2026-05-02T14:59:39.959Z</time></trkpt><trkpt lat="44.2505" lon="8.4312609"><ele>251.00000000000003</ele><time>2026-05-02T14:59:41.96Z</time></trkpt><trkpt lat="44.2505035" lon="8.431404"><ele>251.0</ele><time>2026-05-02T14:59:43.96Z</time></trkpt><trkpt lat="44.2505053" lon="8.4315304"><ele>251.0</ele><time>2026-05-02T14:59:45.961Z</time></trkpt><trkpt lat="44.2505192" lon="8.4316248"><ele>253.00000000000003</ele><time>2026-05-02T14:59:47.959Z</time></trkpt><trkpt lat="44.2505675" lon="8.4316898"><ele>255.0</ele><time>2026-05-02T15:00:01.959Z</time></trkpt><trkpt lat="44.2506389" lon="8.431704"><ele>257.0</ele><time>2026-05-02T15:00:04.96Z</time></trkpt><trkpt lat="44.250667" lon="8.4316146"><ele>259.0</ele><time>2026-05-02T15:00:06.96Z</time></trkpt><trkpt lat="44.2506627" lon="8.4314662"><ele>261.0</ele><time>2026-05-02T15:00:08.959Z</time></trkpt><trkpt lat="44.2506656" lon="8.4313008"><ele>263.0</ele><time>2026-05-02T15:00:10.959Z</time></trkpt><trkpt lat="44.2506854" lon="8.4311574"><ele>260.6</ele><time>2026-05-02T15:00:12.959Z</time></trkpt><trkpt lat="44.2506744" lon="8.4310201"><ele>258.20000000000005</ele><time>2026-05-02T15:00:14.96Z</time></trkpt><trkpt lat="44.250645" lon="8.4308972"><ele>255.8</ele><time>2026-05-02T15:00:16.959Z</time></trkpt><trkpt lat="44.2506094" lon="8.4307786"><ele>253.4</ele><time>2026-05-02T15:00:18.96Z</time></trkpt><trkpt lat="44.250575" lon="8.4306611"><ele>251.0</ele><time>2026-05-02T15:00:20.96Z</time></trkpt><trkpt lat="44.2505436" lon="8.4305224"><ele>248.00000000000003</ele><time>2026-05-02T15:00:22.96Z</time></trkpt><trkpt lat="44.2505078" lon="8.4303549"><ele>245.0</ele><time>2026-05-02T15:00:24.96Z</time></trkpt><trkpt lat="44.2504907" lon="8.4302542"><ele>242.0</ele><time>2026-05-02T15:00:25.96Z</time></trkpt><trkpt lat="44.2504711" lon="8.430152"><ele>239.0</ele><time>2026-05-02T15:00:26.958Z</time></trkpt><trkpt lat="44.2504522" lon="8.4300481"><ele>236.00000000000003</ele><time>2026-05-02T15:00:27.96Z</time></trkpt><trkpt lat="44.2504329" lon="8.4299531"><ele>233.0</ele><time>2026-05-02T15:00:28.959Z</time></trkpt><trkpt lat="44.2503947" lon="8.429866"><ele>233.00000000000003</ele><time>2026-05-02T15:00:29.961Z</time></trkpt><trkpt lat="44.250343" lon="8.429792"><ele>233.0</ele><time>2026-05-02T15:00:30.96Z</time></trkpt><trkpt lat="44.2503009" lon="8.4297194"><ele>233.0</ele><time>2026-05-02T15:00:31.959Z</time></trkpt><trkpt lat="44.2502068" lon="8.4295973"><ele>233.0</ele><time>2026-05-02T15:00:33.959Z</time></trkpt><trkpt lat="44.2501623" lon="8.4295296"><ele>233.00000000000003</ele><time>2026-05-02T15:00:34.961Z</time></trkpt><trkpt lat="44.2500996" lon="8.4294684"><ele>233.0</ele><time>2026-05-02T15:00:35.959Z</time></trkpt><trkpt lat="44.2500272" lon="8.4294207"><ele>229.83333333333334</ele><time>2026-05-02T15:00:36.961Z</time></trkpt><trkpt lat="44.2499404" lon="8.4293904"><ele>226.66666666666669</ele><time>2026-05-02T15:00:37.96Z</time></trkpt><trkpt lat="44.2498602" lon="8.4293609"><ele>223.5</ele><time>2026-05-02T15:00:38.959Z</time></trkpt><trkpt lat="44.2497773" lon="8.4293327"><ele>220.33333333333331</ele><time>2026-05-02T15:00:39.96Z</time></trkpt><trkpt lat="44.2497038" lon="8.4293096"><ele>217.16666666666666</ele><time>2026-05-02T15:00:40.961Z</time></trkpt><trkpt lat="44.2496354" lon="8.4292969"><ele>214.0</ele><time>2026-05-02T15:00:41.96Z</time></trkpt><trkpt lat="44.2495671" lon="8.4292874"><ele>214.00000000000003</ele><time>2026-05-02T15:00:42.958Z</time></trkpt><trkpt lat="44.2495035" lon="8.4292875"><ele>214.0</ele><time>2026-05-02T15:00:43.96Z</time></trkpt><trkpt lat="44.249431" lon="8.4292866"><ele>214.0</ele><time>2026-05-02T15:00:44.959Z</time></trkpt><trkpt lat="44.2493649" lon="8.4292575"><ele>214.0</ele><time>2026-05-02T15:00:45.96Z</time></trkpt><trkpt lat="44.2492996" lon="8.4292283"><ele>214.0</ele><time>2026-05-02T15:00:46.96Z</time></trkpt><trkpt lat="44.2492398" lon="8.4291795"><ele>214.00000000000003</ele><time>2026-05-02T15:00:47.959Z</time></trkpt><trkpt lat="44.2491761" lon="8.429109"><ele>214.0</ele><time>2026-05-02T15:00:48.958Z</time></trkpt><trkpt lat="44.2491224" lon="8.4290267"><ele>213.99999999999997</ele><time>2026-05-02T15:00:49.958Z</time></trkpt><trkpt lat="44.2490653" lon="8.4289415"><ele>214.0</ele><time>2026-05-02T15:00:50.959Z</time></trkpt><trkpt lat="44.2490092" lon="8.4288579"><ele>214.0</ele><time>2026-05-02T15:00:51.959Z</time></trkpt><trkpt lat="44.2489531" lon="8.4287665"><ele>214.0</ele><time>2026-05-02T15:00:52.958Z</time></trkpt><trkpt lat="44.2488944" lon="8.4286946"><ele>213.99999999999997</ele><time>2026-05-02T15:00:53.959Z</time></trkpt><trkpt lat="44.2488417" lon="8.4286226"><ele>214.0</ele><time>2026-05-02T15:00:54.959Z</time></trkpt><trkpt lat="44.2487892" lon="8.428567"><ele>214.83333333333331</ele><time>2026-05-02T15:00:55.96Z</time></trkpt><trkpt lat="44.2487445" lon="8.4285014"><ele>215.66666666666666</ele><time>2026-05-02T15:00:56.96Z</time></trkpt><trkpt lat="44.2487075" lon="8.4284263"><ele>216.5</ele><time>2026-05-02T15:00:57.959Z</time></trkpt><trkpt lat="44.248636" lon="8.4282923"><ele>217.33333333333331</ele><time>2026-05-02T15:00:59.96Z</time></trkpt><trkpt lat="44.248577" lon="8.4281438"><ele>218.16666666666666</ele><time>2026-05-02T15:01:01.958Z</time></trkpt><trkpt lat="44.2485501" lon="8.4280618"><ele>219.0</ele><time>2026-05-02T15:01:02.958Z</time></trkpt><trkpt lat="44.2485259" lon="8.4279775"><ele>219.0</ele><time>2026-05-02T15:01:03.961Z</time></trkpt><trkpt lat="44.2485095" lon="8.4278322"><ele>219.0</ele><time>2026-05-02T15:01:05.959Z</time></trkpt><trkpt lat="44.2485858" lon="8.4277789"><ele>219.0</ele><time>2026-05-02T15:01:07.959Z</time></trkpt><trkpt lat="44.2486703" lon="8.427861"><ele>219.0</ele><time>2026-05-02T15:01:09.959Z</time></trkpt><trkpt lat="44.2487092" lon="8.4279343"><ele>219.0</ele><time>2026-05-02T15:01:10.96Z</time></trkpt><trkpt lat="44.2487591" lon="8.4280096"><ele>219.0</ele><time>2026-05-02T15:01:11.96Z</time></trkpt><trkpt lat="44.24882" lon="8.4280955"><ele>219.0</ele><time>2026-05-02T15:01:12.959Z</time></trkpt><trkpt lat="44.2488756" lon="8.4281794"><ele>219.0</ele><time>2026-05-02T15:01:13.959Z</time></trkpt><trkpt lat="44.2489327" lon="8.4282564"><ele>219.0</ele><time>2026-05-02T15:01:14.961Z</time></trkpt><trkpt lat="44.2489872" lon="8.4283396"><ele>219.0</ele><time>2026-05-02T15:01:15.958Z</time></trkpt><trkpt lat="44.2490271" lon="8.4284231"><ele>219.0</ele><time>2026-05-02T15:01:16.958Z</time></trkpt><trkpt lat="44.2490738" lon="8.428505"><ele>219.0</ele><time>2026-05-02T15:01:17.959Z</time></trkpt><trkpt lat="44.2491203" lon="8.4285825"><ele>218.16666666666666</ele><time>2026-05-02T15:01:18.958Z</time></trkpt><trkpt lat="44.2491732" lon="8.4286453"><ele>217.33333333333331</ele><time>2026-05-02T15:01:19.96Z</time></trkpt><trkpt lat="44.2492289" lon="8.4287016"><ele>216.5</ele><time>2026-05-02T15:01:20.959Z</time></trkpt><trkpt lat="44.249292" lon="8.4287329"><ele>215.66666666666666</ele><time>2026-05-02T15:01:21.959Z</time></trkpt><trkpt lat="44.2494117" lon="8.4287912"><ele>214.83333333333331</ele><time>2026-05-02T15:01:23.959Z</time></trkpt><trkpt lat="44.2495163" lon="8.4288326"><ele>214.0</ele><time>2026-05-02T15:01:25.96Z</time></trkpt><trkpt lat="44.249623" lon="8.4288438"><ele>210.66666666666666</ele><time>2026-05-02T15:01:27.96Z</time></trkpt><trkpt lat="44.249701" lon="8.428765"><ele>207.33333333333331</ele><time>2026-05-02T15:01:29.958Z</time></trkpt><trkpt lat="44.2496677" lon="8.428649"><ele>204.0</ele><time>2026-05-02T15:01:31.959Z</time></trkpt><trkpt lat="44.2496086" lon="8.4286101"><ele>200.66666666666669</ele><time>2026-05-02T15:01:32.96Z</time></trkpt><trkpt lat="44.2494869" lon="8.4285566"><ele>197.33333333333334</ele><time>2026-05-02T15:01:34.959Z</time></trkpt><trkpt lat="44.2494238" lon="8.4285119"><ele>194.0</ele><time>2026-05-02T15:01:35.958Z</time></trkpt><trkpt lat="44.2493689" lon="8.4284543"><ele>194.0</ele><time>2026-05-02T15:01:36.964Z</time></trkpt><trkpt lat="44.249319" lon="8.4283941"><ele>194.0</ele><time>2026-05-02T15:01:37.96Z</time></trkpt><trkpt lat="44.2492587" lon="8.4282486"><ele>194.0</ele><time>2026-05-02T15:01:39.959Z</time></trkpt><trkpt lat="44.249216" lon="8.4281088"><ele>194.0</ele><time>2026-05-02T15:01:41.958Z</time></trkpt><trkpt lat="44.2491691" lon="8.4279723"><ele>194.0</ele><time>2026-05-02T15:01:43.959Z</time></trkpt><trkpt lat="44.2491288" lon="8.4278349"><ele>191.39999999999998</ele><time>2026-05-02T15:01:45.958Z</time></trkpt><trkpt lat="44.2490864" lon="8.4277107"><ele>188.8</ele><time>2026-05-02T15:01:47.96Z</time></trkpt><trkpt lat="44.2490471" lon="8.4275623"><ele>186.2</ele><time>2026-05-02T15:01:49.959Z</time></trkpt><trkpt lat="44.249023" lon="8.4274318"><ele>183.60000000000002</ele><time>2026-05-02T15:01:51.961Z</time></trkpt><trkpt lat="44.2489824" lon="8.4273053"><ele>181.0</ele><time>2026-05-02T15:01:53.958Z</time></trkpt><trkpt lat="44.2489687" lon="8.4271781"><ele>180.33333333333334</ele><time>2026-05-02T15:01:55.959Z</time></trkpt><trkpt lat="44.248981" lon="8.4270712"><ele>179.66666666666669</ele><time>2026-05-02T15:01:57.959Z</time></trkpt><trkpt lat="44.2489748" lon="8.4269752"><ele>179.0</ele><time>2026-05-02T15:01:59.96Z</time></trkpt><trkpt lat="44.2490191" lon="8.4268844"><ele>178.33333333333334</ele><time>2026-05-02T15:02:02.959Z</time></trkpt><trkpt lat="44.249094" lon="8.426923"><ele>177.66666666666666</ele><time>2026-05-02T15:02:19.958Z</time></trkpt><trkpt lat="44.2491296" lon="8.4270143"><ele>177.0</ele><time>2026-05-02T15:02:21.96Z</time></trkpt><trkpt lat="44.2491453" lon="8.4271226"><ele>177.8</ele><time>2026-05-02T15:02:23.961Z</time></trkpt><trkpt lat="44.249158" lon="8.4272203"><ele>178.6</ele><time>2026-05-02T15:02:25.96Z</time></trkpt><trkpt lat="44.249208" lon="8.4273979"><ele>179.4</ele><time>2026-05-02T15:02:27.959Z</time></trkpt><trkpt lat="44.2492392" lon="8.4274991"><ele>180.20000000000002</ele><time>2026-05-02T15:02:28.959Z</time></trkpt><trkpt lat="44.2492697" lon="8.4276002"><ele>181.0</ele><time>2026-05-02T15:02:29.96Z</time></trkpt><trkpt lat="44.2493175" lon="8.4276992"><ele>181.0</ele><time>2026-05-02T15:02:30.96Z</time></trkpt><trkpt lat="44.2493869" lon="8.4277843"><ele>181.0</ele><time>2026-05-02T15:02:31.958Z</time></trkpt><trkpt lat="44.2494752" lon="8.4278804"><ele>181.0</ele><time>2026-05-02T15:02:32.96Z</time></trkpt><trkpt lat="44.2495611" lon="8.4279617"><ele>181.0</ele><time>2026-05-02T15:02:33.958Z</time></trkpt><trkpt lat="44.2496575" lon="8.4280429"><ele>181.0</ele><time>2026-05-02T15:02:34.96Z</time></trkpt><trkpt lat="44.2497498" lon="8.428117"><ele>180.4</ele><time>2026-05-02T15:02:35.958Z</time></trkpt><trkpt lat="44.2498449" lon="8.4281836"><ele>179.8</ele><time>2026-05-02T15:02:36.96Z</time></trkpt><trkpt lat="44.2499404" lon="8.4282414"><ele>179.20000000000002</ele><time>2026-05-02T15:02:37.96Z</time></trkpt><trkpt lat="44.250044" lon="8.4282904"><ele>178.60000000000002</ele><time>2026-05-02T15:02:38.96Z</time></trkpt><trkpt lat="44.2501489" lon="8.4283391"><ele>178.0</ele><time>2026-05-02T15:02:39.96Z</time></trkpt><trkpt lat="44.2502435" lon="8.4283931"><ele>178.0</ele><time>2026-05-02T15:02:40.959Z</time></trkpt><trkpt lat="44.2503371" lon="8.4284509"><ele>178.0</ele><time>2026-05-02T15:02:41.959Z</time></trkpt><trkpt lat="44.2504223" lon="8.4285053"><ele>178.0</ele><time>2026-05-02T15:02:42.959Z</time></trkpt><trkpt lat="44.2505156" lon="8.4285312"><ele>178.0</ele><time>2026-05-02T15:02:43.96Z</time></trkpt><trkpt lat="44.250612" lon="8.4285562"><ele>178.0</ele><time>2026-05-02T15:02:44.959Z</time></trkpt><trkpt lat="44.2507012" lon="8.4285816"><ele>174.20000000000002</ele><time>2026-05-02T15:02:45.959Z</time></trkpt><trkpt lat="44.2507933" lon="8.428608"><ele>170.4</ele><time>2026-05-02T15:02:46.96Z</time></trkpt><trkpt lat="44.2508819" lon="8.4286321"><ele>166.60000000000002</ele><time>2026-05-02T15:02:47.959Z</time></trkpt><trkpt lat="44.250964" lon="8.4286558"><ele>162.8</ele><time>2026-05-02T15:02:48.959Z</time></trkpt><trkpt lat="44.2510502" lon="8.4286853"><ele>159.0</ele><time>2026-05-02T15:02:49.96Z</time></trkpt><trkpt lat="44.2511382" lon="8.428741"><ele>159.0</ele><time>2026-05-02T15:02:50.959Z</time></trkpt><trkpt lat="44.2512164" lon="8.4288085"><ele>159.0</ele><time>2026-05-02T15:02:51.96Z</time></trkpt><trkpt lat="44.2512898" lon="8.428899"><ele>159.0</ele><time>2026-05-02T15:02:52.961Z</time></trkpt><trkpt lat="44.2513472" lon="8.429002"><ele>159.0</ele><time>2026-05-02T15:02:53.958Z</time></trkpt><trkpt lat="44.2513994" lon="8.429099"><ele>159.0</ele><time>2026-05-02T15:02:54.959Z</time></trkpt><trkpt lat="44.2514652" lon="8.4291873"><ele>160.0</ele><time>2026-05-02T15:02:55.96Z</time></trkpt><trkpt lat="44.2515209" lon="8.4292814"><ele>161.0</ele><time>2026-05-02T15:02:56.959Z</time></trkpt><trkpt lat="44.25156" lon="8.429377"><ele>162.0</ele><time>2026-05-02T15:02:57.96Z</time></trkpt><trkpt lat="44.2515721" lon="8.4294891"><ele>163.0</ele><time>2026-05-02T15:02:58.959Z</time></trkpt><trkpt lat="44.2515735" lon="8.4295834"><ele>164.0</ele><time>2026-05-02T15:02:59.961Z</time></trkpt><trkpt lat="44.2515874" lon="8.4296778"><ele>165.0</ele><time>2026-05-02T15:03:00.958Z</time></trkpt><trkpt lat="44.2516211" lon="8.4297779"><ele>165.0</ele><time>2026-05-02T15:03:01.959Z</time></trkpt><trkpt lat="44.25168" lon="8.4298698"><ele>165.0</ele><time>2026-05-02T15:03:02.958Z</time></trkpt><trkpt lat="44.2517364" lon="8.4299519"><ele>165.0</ele><time>2026-05-02T15:03:03.959Z</time></trkpt><trkpt lat="44.2517761" lon="8.4300413"><ele>165.0</ele><time>2026-05-02T15:03:04.958Z</time></trkpt><trkpt lat="44.2518034" lon="8.4301479"><ele>165.0</ele><time>2026-05-02T15:03:05.959Z</time></trkpt><trkpt lat="44.2518152" lon="8.4302578"><ele>165.0</ele><time>2026-05-02T15:03:06.959Z</time></trkpt><trkpt lat="44.2518228" lon="8.430365"><ele>165.0</ele><time>2026-05-02T15:03:07.958Z</time></trkpt><trkpt lat="44.2518438" lon="8.4304565"><ele>165.0</ele><time>2026-05-02T15:03:08.958Z</time></trkpt><trkpt lat="44.251887" lon="8.4305267"><ele>165.0</ele><time>2026-05-02T15:03:09.958Z</time></trkpt><trkpt lat="44.2519558" lon="8.4305683"><ele>165.0</ele><time>2026-05-02T15:03:10.958Z</time></trkpt><trkpt lat="44.2520569" lon="8.4305846"><ele>165.0</ele><time>2026-05-02T15:03:11.959Z</time></trkpt><trkpt lat="44.2521783" lon="8.4305873"><ele>165.0</ele><time>2026-05-02T15:03:12.958Z</time></trkpt><trkpt lat="44.2523033" lon="8.4305947"><ele>163.0</ele><time>2026-05-02T15:03:13.959Z</time></trkpt><trkpt lat="44.2524279" lon="8.4306082"><ele>161.0</ele><time>2026-05-02T15:03:14.959Z</time></trkpt><trkpt lat="44.2525459" lon="8.43062"><ele>159.0</ele><time>2026-05-02T15:03:15.958Z</time></trkpt><trkpt lat="44.2526586" lon="8.4306304"><ele>157.0</ele><time>2026-05-02T15:03:16.96Z</time></trkpt><trkpt lat="44.2527678" lon="8.4306351"><ele>157.0</ele><time>2026-05-02T15:03:17.958Z</time></trkpt><trkpt lat="44.2528775" lon="8.4306439"><ele>157.0</ele><time>2026-05-02T15:03:18.958Z</time></trkpt><trkpt lat="44.2529846" lon="8.4306571"><ele>157.0</ele><time>2026-05-02T15:03:19.958Z</time></trkpt><trkpt lat="44.2530863" lon="8.4306603"><ele>157.0</ele><time>2026-05-02T15:03:20.958Z</time></trkpt><trkpt lat="44.2531869" lon="8.4306733"><ele>157.0</ele><time>2026-05-02T15:03:21.958Z</time></trkpt><trkpt lat="44.2532847" lon="8.4306692"><ele>155.0</ele><time>2026-05-02T15:03:22.959Z</time></trkpt><trkpt lat="44.2533845" lon="8.4306355"><ele>153.0</ele><time>2026-05-02T15:03:23.959Z</time></trkpt><trkpt lat="44.2534924" lon="8.4305765"><ele>151.0</ele><time>2026-05-02T15:03:24.958Z</time></trkpt><trkpt lat="44.2536054" lon="8.4304835"><ele>149.0</ele><time>2026-05-02T15:03:25.959Z</time></trkpt><trkpt lat="44.2536995" lon="8.4303712"><ele>144.75</ele><time>2026-05-02T15:03:26.958Z</time></trkpt><trkpt lat="44.253786" lon="8.4302567"><ele>140.5</ele><time>2026-05-02T15:03:27.958Z</time></trkpt><trkpt lat="44.2538655" lon="8.4301367"><ele>136.25</ele><time>2026-05-02T15:03:28.958Z</time></trkpt><trkpt lat="44.2539302" lon="8.4300116"><ele>132.0</ele><time>2026-05-02T15:03:29.959Z</time></trkpt><trkpt lat="44.2539845" lon="8.4298814"><ele>132.0</ele><time>2026-05-02T15:03:30.959Z</time></trkpt><trkpt lat="44.2540159" lon="8.4297429"><ele>132.0</ele><time>2026-05-02T15:03:31.959Z</time></trkpt><trkpt lat="44.2540446" lon="8.4296147"><ele>132.0</ele><time>2026-05-02T15:03:32.959Z</time></trkpt><trkpt lat="44.2540705" lon="8.4294896"><ele>132.0</ele><time>2026-05-02T15:03:33.959Z</time></trkpt><trkpt lat="44.2541009" lon="8.4293627"><ele>132.0</ele><time>2026-05-02T15:03:34.96Z</time></trkpt><trkpt lat="44.2541291" lon="8.4292424"><ele>131.66666666666666</ele><time>2026-05-02T15:03:35.96Z</time></trkpt><trkpt lat="44.2541496" lon="8.4291204"><ele>131.33333333333334</ele><time>2026-05-02T15:03:36.959Z</time></trkpt><trkpt lat="44.2541682" lon="8.4290098"><ele>131.0</ele><time>2026-05-02T15:03:37.96Z</time></trkpt><trkpt lat="44.2541919" lon="8.428906"><ele>130.66666666666669</ele><time>2026-05-02T15:03:38.958Z</time></trkpt><trkpt lat="44.2542213" lon="8.428812"><ele>130.33333333333334</ele><time>2026-05-02T15:03:39.958Z</time></trkpt><trkpt lat="44.2542602" lon="8.4287278"><ele>130.0</ele><time>2026-05-02T15:03:40.96Z</time></trkpt><trkpt lat="44.2543162" lon="8.4286634"><ele>128.16666666666669</ele><time>2026-05-02T15:03:41.958Z</time></trkpt><trkpt lat="44.254383" lon="8.4286098"><ele>126.33333333333334</ele><time>2026-05-02T15:03:42.961Z</time></trkpt><trkpt lat="44.2544569" lon="8.4285628"><ele>124.5</ele><time>2026-05-02T15:03:43.959Z</time></trkpt><trkpt lat="44.2545344" lon="8.4285269"><ele>122.66666666666666</ele><time>2026-05-02T15:03:44.96Z</time></trkpt><trkpt lat="44.2546176" lon="8.4285003"><ele>120.83333333333333</ele><time>2026-05-02T15:03:45.959Z</time></trkpt><trkpt lat="44.2547147" lon="8.4284771"><ele>119.0</ele><time>2026-05-02T15:03:46.959Z</time></trkpt><trkpt lat="44.2548115" lon="8.4284501"><ele>118.99999999999999</ele><time>2026-05-02T15:03:47.958Z</time></trkpt><trkpt lat="44.2549026" lon="8.4284402"><ele>119.0</ele><time>2026-05-02T15:03:48.96Z</time></trkpt><trkpt lat="44.2549849" lon="8.4284389"><ele>119.0</ele><time>2026-05-02T15:03:49.959Z</time></trkpt><trkpt lat="44.2550587" lon="8.4284546"><ele>119.0</ele><time>2026-05-02T15:03:50.959Z</time></trkpt><trkpt lat="44.2551226" lon="8.4284919"><ele>118.99999999999999</ele><time>2026-05-02T15:03:51.958Z</time></trkpt><trkpt lat="44.2551907" lon="8.4286327"><ele>119.0</ele><time>2026-05-02T15:03:53.959Z</time></trkpt><trkpt lat="44.2551396" lon="8.4288019"><ele>120.4</ele><time>2026-05-02T15:03:55.958Z</time></trkpt><trkpt lat="44.2550827" lon="8.4288895"><ele>121.80000000000001</ele><time>2026-05-02T15:03:56.959Z</time></trkpt><trkpt lat="44.2550162" lon="8.4289967"><ele>123.19999999999999</ele><time>2026-05-02T15:03:57.959Z</time></trkpt><trkpt lat="44.2549493" lon="8.4291482"><ele>124.6</ele><time>2026-05-02T15:03:58.96Z</time></trkpt><trkpt lat="44.2548914" lon="8.4293161"><ele>126.0</ele><time>2026-05-02T15:03:59.958Z</time></trkpt><trkpt lat="44.2548413" lon="8.429491"><ele>127.5</ele><time>2026-05-02T15:04:00.958Z</time></trkpt><trkpt lat="44.2548068" lon="8.4296664"><ele>129.0</ele><time>2026-05-02T15:04:01.958Z</time></trkpt><trkpt lat="44.2547869" lon="8.4298335"><ele>130.5</ele><time>2026-05-02T15:04:02.959Z</time></trkpt><trkpt lat="44.2547677" lon="8.4299992"><ele>132.0</ele><time>2026-05-02T15:04:03.958Z</time></trkpt><trkpt lat="44.2547457" lon="8.4301633"><ele>132.0</ele><time>2026-05-02T15:04:04.958Z</time></trkpt><trkpt lat="44.2547228" lon="8.4303227"><ele>132.0</ele><time>2026-05-02T15:04:05.958Z</time></trkpt><trkpt lat="44.2546836" lon="8.430471"><ele>132.0</ele><time>2026-05-02T15:04:06.958Z</time></trkpt><trkpt lat="44.2546335" lon="8.4306115"><ele>132.0</ele><time>2026-05-02T15:04:07.958Z</time></trkpt><trkpt lat="44.2545908" lon="8.4307508"><ele>132.14285714285714</ele><time>2026-05-02T15:04:08.96Z</time></trkpt><trkpt lat="44.2545639" lon="8.4308741"><ele>132.28571428571428</ele><time>2026-05-02T15:04:09.96Z</time></trkpt><trkpt lat="44.2545396" lon="8.4309839"><ele>132.42857142857144</ele><time>2026-05-02T15:04:10.958Z</time></trkpt><trkpt lat="44.2545332" lon="8.4310874"><ele>132.57142857142856</ele><time>2026-05-02T15:04:11.958Z</time></trkpt><trkpt lat="44.2545442" lon="8.4311778"><ele>132.71428571428572</ele><time>2026-05-02T15:04:12.958Z</time></trkpt><trkpt lat="44.2545753" lon="8.4312566"><ele>132.85714285714286</ele><time>2026-05-02T15:04:13.958Z</time></trkpt><trkpt lat="44.2546248" lon="8.4313123"><ele>133.0</ele><time>2026-05-02T15:04:14.959Z</time></trkpt><trkpt lat="44.2546896" lon="8.4313366"><ele>134.6</ele><time>2026-05-02T15:04:15.958Z</time></trkpt><trkpt lat="44.2547699" lon="8.4313231"><ele>136.20000000000002</ele><time>2026-05-02T15:04:16.959Z</time></trkpt><trkpt lat="44.2548623" lon="8.4312845"><ele>137.8</ele><time>2026-05-02T15:04:17.959Z</time></trkpt><trkpt lat="44.2549633" lon="8.4312254"><ele>139.4</ele><time>2026-05-02T15:04:18.959Z</time></trkpt><trkpt lat="44.2550623" lon="8.4311664"><ele>141.0</ele><time>2026-05-02T15:04:19.958Z</time></trkpt><trkpt lat="44.2551586" lon="8.4311148"><ele>135.4</ele><time>2026-05-02T15:04:20.959Z</time></trkpt><trkpt lat="44.2552518" lon="8.43107"><ele>129.8</ele><time>2026-05-02T15:04:21.96Z</time></trkpt><trkpt lat="44.2553512" lon="8.4310349"><ele>124.20000000000002</ele><time>2026-05-02T15:04:22.958Z</time></trkpt><trkpt lat="44.2554514" lon="8.4310154"><ele>118.60000000000001</ele><time>2026-05-02T15:04:23.958Z</time></trkpt><trkpt lat="44.2555676" lon="8.431007"><ele>113.0</ele><time>2026-05-02T15:04:24.96Z</time></trkpt><trkpt lat="44.2556951" lon="8.4309947"><ele>111.0</ele><time>2026-05-02T15:04:25.958Z</time></trkpt><trkpt lat="44.2558186" lon="8.4309865"><ele>109.0</ele><time>2026-05-02T15:04:26.959Z</time></trkpt><trkpt lat="44.25595" lon="8.4310007"><ele>107.0</ele><time>2026-05-02T15:04:27.958Z</time></trkpt><trkpt lat="44.2560793" lon="8.431013"><ele>105.0</ele><time>2026-05-02T15:04:28.959Z</time></trkpt><trkpt lat="44.2562066" lon="8.4310218"><ele>105.0</ele><time>2026-05-02T15:04:29.958Z</time></trkpt><trkpt lat="44.2563303" lon="8.4310184"><ele>105.0</ele><time>2026-05-02T15:04:30.96Z</time></trkpt><trkpt lat="44.2564579" lon="8.431012"><ele>105.0</ele><time>2026-05-02T15:04:31.959Z</time></trkpt><trkpt lat="44.2565786" lon="8.4310082"><ele>105.0</ele><time>2026-05-02T15:04:32.958Z</time></trkpt><trkpt lat="44.2566947" lon="8.4310178"><ele>102.5</ele><time>2026-05-02T15:04:33.959Z</time></trkpt><trkpt lat="44.2568208" lon="8.4310388"><ele>100.0</ele><time>2026-05-02T15:04:34.958Z</time></trkpt><trkpt lat="44.2569493" lon="8.431056"><ele>97.5</ele><time>2026-05-02T15:04:35.959Z</time></trkpt><trkpt lat="44.2570811" lon="8.4310712"><ele>95.0</ele><time>2026-05-02T15:04:36.959Z</time></trkpt><trkpt lat="44.2572229" lon="8.4310693"><ele>94.0</ele><time>2026-05-02T15:04:37.959Z</time></trkpt><trkpt lat="44.2573817" lon="8.4310368"><ele>93.0</ele><time>2026-05-02T15:04:38.959Z</time></trkpt><trkpt lat="44.2575273" lon="8.4309755"><ele>92.0</ele><time>2026-05-02T15:04:39.961Z</time></trkpt><trkpt lat="44.2576703" lon="8.4309182"><ele>92.0</ele><time>2026-05-02T15:04:40.959Z</time></trkpt><trkpt lat="44.2577975" lon="8.4308708"><ele>92.0</ele><time>2026-05-02T15:04:41.958Z</time></trkpt><trkpt lat="44.2579224" lon="8.4308217"><ele>92.0</ele><time>2026-05-02T15:04:42.959Z</time></trkpt><trkpt lat="44.2580402" lon="8.4307493"><ele>92.0</ele><time>2026-05-02T15:04:43.959Z</time></trkpt><trkpt lat="44.2581506" lon="8.4306664"><ele>93.19999999999999</ele><time>2026-05-02T15:04:44.959Z</time></trkpt><trkpt lat="44.2582499" lon="8.4305729"><ele>94.4</ele><time>2026-05-02T15:04:45.96Z</time></trkpt><trkpt lat="44.2583384" lon="8.430501"><ele>95.6</ele><time>2026-05-02T15:04:46.958Z</time></trkpt><trkpt lat="44.2584337" lon="8.4304094"><ele>96.80000000000001</ele><time>2026-05-02T15:04:47.959Z</time></trkpt><trkpt lat="44.2585184" lon="8.4303215"><ele>98.0</ele><time>2026-05-02T15:04:48.958Z</time></trkpt><trkpt lat="44.2586034" lon="8.4302288"><ele>95.4</ele><time>2026-05-02T15:04:49.96Z</time></trkpt><trkpt lat="44.2586972" lon="8.4301377"><ele>92.80000000000001</ele><time>2026-05-02T15:04:50.958Z</time></trkpt><trkpt lat="44.2587854" lon="8.4300499"><ele>90.2</ele><time>2026-05-02T15:04:51.959Z</time></trkpt><trkpt lat="44.2588663" lon="8.4299587"><ele>87.6</ele><time>2026-05-02T15:04:52.959Z</time></trkpt><trkpt lat="44.2589469" lon="8.4298774"><ele>85.0</ele><time>2026-05-02T15:04:53.958Z</time></trkpt><trkpt lat="44.2590303" lon="8.4298078"><ele>85.0</ele><time>2026-05-02T15:04:54.96Z</time></trkpt><trkpt lat="44.2591155" lon="8.4297603"><ele>85.0</ele><time>2026-05-02T15:04:55.958Z</time></trkpt><trkpt lat="44.2592187" lon="8.4297545"><ele>85.0</ele><time>2026-05-02T15:04:56.96Z</time></trkpt><trkpt lat="44.2593264" lon="8.4297591"><ele>85.0</ele><time>2026-05-02T15:04:57.959Z</time></trkpt><trkpt lat="44.2594316" lon="8.4297407"><ele>85.0</ele><time>2026-05-02T15:04:58.958Z</time></trkpt><trkpt lat="44.2595282" lon="8.4296941"><ele>81.4</ele><time>2026-05-02T15:04:59.959Z</time></trkpt><trkpt lat="44.2596193" lon="8.4296186"><ele>77.8</ele><time>2026-05-02T15:05:00.959Z</time></trkpt><trkpt lat="44.2597049" lon="8.4295459"><ele>74.2</ele><time>2026-05-02T15:05:01.958Z</time></trkpt><trkpt lat="44.2597887" lon="8.4294815"><ele>70.6</ele><time>2026-05-02T15:05:02.959Z</time></trkpt><trkpt lat="44.2598658" lon="8.4294273"><ele>67.0</ele><time>2026-05-02T15:05:03.958Z</time></trkpt><trkpt lat="44.2599414" lon="8.4293904"><ele>67.0</ele><time>2026-05-02T15:05:04.958Z</time></trkpt><trkpt lat="44.2600173" lon="8.429383"><ele>67.0</ele><time>2026-05-02T15:05:05.958Z</time></trkpt><trkpt lat="44.2600899" lon="8.4294075"><ele>67.0</ele><time>2026-05-02T15:05:06.959Z</time></trkpt><trkpt lat="44.2601541" lon="8.4294685"><ele>67.0</ele><time>2026-05-02T15:05:07.958Z</time></trkpt><trkpt lat="44.2602043" lon="8.4295475"><ele>67.0</ele><time>2026-05-02T15:05:08.958Z</time></trkpt><trkpt lat="44.2602305" lon="8.4296466"><ele>67.0</ele><time>2026-05-02T15:05:09.958Z</time></trkpt><trkpt lat="44.260245" lon="8.4297458"><ele>67.0</ele><time>2026-05-02T15:05:10.958Z</time></trkpt><trkpt lat="44.2603132" lon="8.4298668"><ele>67.0</ele><time>2026-05-02T15:05:12.96Z</time></trkpt><trkpt lat="44.2604017" lon="8.4298359"><ele>67.0</ele><time>2026-05-02T15:05:14.959Z</time></trkpt><trkpt lat="44.2604299" lon="8.4296641"><ele>67.0</ele><time>2026-05-02T15:05:16.958Z</time></trkpt><trkpt lat="44.2604184" lon="8.4295403"><ele>67.0</ele><time>2026-05-02T15:05:17.959Z</time></trkpt><trkpt lat="44.2604049" lon="8.4294094"><ele>67.0</ele><time>2026-05-02T15:05:18.958Z</time></trkpt><trkpt lat="44.2603972" lon="8.4292777"><ele>67.0</ele><time>2026-05-02T15:05:19.96Z</time></trkpt><trkpt lat="44.2603863" lon="8.4291489"><ele>67.0</ele><time>2026-05-02T15:05:20.959Z</time></trkpt><trkpt lat="44.2603781" lon="8.429041"><ele>67.0</ele><time>2026-05-02T15:05:21.959Z</time></trkpt><trkpt lat="44.2603561" lon="8.4289371"><ele>67.0</ele><time>2026-05-02T15:05:22.96Z</time></trkpt><trkpt lat="44.2603152" lon="8.4288569"><ele>67.0</ele><time>2026-05-02T15:05:23.96Z</time></trkpt><trkpt lat="44.2602506" lon="8.4288038"><ele>67.0</ele><time>2026-05-02T15:05:24.958Z</time></trkpt><trkpt lat="44.2601772" lon="8.4287858"><ele>67.0</ele><time>2026-05-02T15:05:25.959Z</time></trkpt><trkpt lat="44.2600977" lon="8.4287953"><ele>67.0</ele><time>2026-05-02T15:05:26.96Z</time></trkpt><trkpt lat="44.2600223" lon="8.4288299"><ele>67.0</ele><time>2026-05-02T15:05:27.958Z</time></trkpt><trkpt lat="44.2599488" lon="8.4288622"><ele>67.0</ele><time>2026-05-02T15:05:28.96Z</time></trkpt><trkpt lat="44.2598724" lon="8.4288825"><ele>67.0</ele><time>2026-05-02T15:05:29.958Z</time></trkpt><trkpt lat="44.2597923" lon="8.4288815"><ele>65.5</ele><time>2026-05-02T15:05:30.959Z</time></trkpt><trkpt lat="44.2597115" lon="8.4289086"><ele>64.0</ele><time>2026-05-02T15:05:31.958Z</time></trkpt><trkpt lat="44.2596125" lon="8.4289654"><ele>62.5</ele><time>2026-05-02T15:05:32.959Z</time></trkpt><trkpt lat="44.2594792" lon="8.4290284"><ele>61.0</ele><time>2026-05-02T15:05:33.959Z</time></trkpt><trkpt lat="44.2593422" lon="8.4290834"><ele>61.0</ele><time>2026-05-02T15:05:34.958Z</time></trkpt><trkpt lat="44.2591865" lon="8.4290937"><ele>61.0</ele><time>2026-05-02T15:05:35.958Z</time></trkpt><trkpt lat="44.259025" lon="8.4290739"><ele>61.0</ele><time>2026-05-02T15:05:36.959Z</time></trkpt><trkpt lat="44.2588684" lon="8.4290739"><ele>60.0</ele><time>2026-05-02T15:05:37.959Z</time></trkpt><trkpt lat="44.258721" lon="8.4290791"><ele>59.0</ele><time>2026-05-02T15:05:38.958Z</time></trkpt><trkpt lat="44.2585934" lon="8.429078"><ele>58.0</ele><time>2026-05-02T15:05:39.958Z</time></trkpt><trkpt lat="44.2584751" lon="8.4290613"><ele>57.0</ele><time>2026-05-02T15:05:40.958Z</time></trkpt><trkpt lat="44.2583643" lon="8.4290133"><ele>57.0</ele><time>2026-05-02T15:05:41.958Z</time></trkpt><trkpt lat="44.258266" lon="8.4289363"><ele>57.0</ele><time>2026-05-02T15:05:42.959Z</time></trkpt><trkpt lat="44.2581789" lon="8.4288307"><ele>57.0</ele><time>2026-05-02T15:05:43.959Z</time></trkpt><trkpt lat="44.2581102" lon="8.4287111"><ele>57.0</ele><time>2026-05-02T15:05:44.958Z</time></trkpt><trkpt lat="44.258062" lon="8.4285658"><ele>56.0</ele><time>2026-05-02T15:05:45.958Z</time></trkpt><trkpt lat="44.2580334" lon="8.4284056"><ele>55.0</ele><time>2026-05-02T15:05:46.958Z</time></trkpt><trkpt lat="44.2580274" lon="8.4282395"><ele>54.0</ele><time>2026-05-02T15:05:47.958Z</time></trkpt><trkpt lat="44.2580503" lon="8.4280772"><ele>53.0</ele><time>2026-05-02T15:05:48.958Z</time></trkpt><trkpt lat="44.2580923" lon="8.4279269"><ele>51.5</ele><time>2026-05-02T15:05:49.958Z</time></trkpt><trkpt lat="44.2581598" lon="8.4277974"><ele>50.0</ele><time>2026-05-02T15:05:50.959Z</time></trkpt><trkpt lat="44.258244" lon="8.4276821"><ele>48.5</ele><time>2026-05-02T15:05:51.959Z</time></trkpt><trkpt lat="44.2583439" lon="8.4275863"><ele>47.0</ele><time>2026-05-02T15:05:52.958Z</time></trkpt><trkpt lat="44.258459" lon="8.4275247"><ele>47.0</ele><time>2026-05-02T15:05:53.958Z</time></trkpt><trkpt lat="44.258587" lon="8.4274907"><ele>47.0</ele><time>2026-05-02T15:05:54.959Z</time></trkpt><trkpt lat="44.2587373" lon="8.4274983"><ele>47.0</ele><time>2026-05-02T15:05:55.958Z</time></trkpt><trkpt lat="44.2589088" lon="8.4275407"><ele>42.0</ele><time>2026-05-02T15:05:56.96Z</time></trkpt><trkpt lat="44.2590895" lon="8.4275788"><ele>37.0</ele><time>2026-05-02T15:05:57.959Z</time></trkpt><trkpt lat="44.25928" lon="8.4276135"><ele>32.0</ele><time>2026-05-02T15:05:58.959Z</time></trkpt><trkpt lat="44.259491" lon="8.4276249"><ele>32.0</ele><time>2026-05-02T15:05:59.959Z</time></trkpt><trkpt lat="44.2597017" lon="8.427617"><ele>32.0</ele><time>2026-05-02T15:06:00.958Z</time></trkpt><trkpt lat="44.259905" lon="8.4276132"><ele>32.0</ele><time>2026-05-02T15:06:01.958Z</time></trkpt><trkpt lat="44.2601083" lon="8.4276066"><ele>31.333333333333332</ele><time>2026-05-02T15:06:02.959Z</time></trkpt><trkpt lat="44.2602979" lon="8.4275971"><ele>30.666666666666664</ele><time>2026-05-02T15:06:03.958Z</time></trkpt><trkpt lat="44.2604834" lon="8.4275841"><ele>30.0</ele><time>2026-05-02T15:06:04.96Z</time></trkpt><trkpt lat="44.260663" lon="8.4275731"><ele>30.0</ele><time>2026-05-02T15:06:05.959Z</time></trkpt><trkpt lat="44.2608322" lon="8.4275621"><ele>30.0</ele><time>2026-05-02T15:06:06.96Z</time></trkpt><trkpt lat="44.2609996" lon="8.4275487"><ele>30.0</ele><time>2026-05-02T15:06:07.958Z</time></trkpt><trkpt lat="44.2611636" lon="8.4275332"><ele>30.0</ele><time>2026-05-02T15:06:08.958Z</time></trkpt><trkpt lat="44.2613325" lon="8.4275137"><ele>30.0</ele><time>2026-05-02T15:06:09.959Z</time></trkpt><trkpt lat="44.2616827" lon="8.4274658"><ele>28.333333333333336</ele><time>2026-05-02T15:06:11.959Z</time></trkpt><trkpt lat="44.2618563" lon="8.4274265"><ele>26.666666666666668</ele><time>2026-05-02T15:06:12.958Z</time></trkpt><trkpt lat="44.2620296" lon="8.4273905"><ele>25.0</ele><time>2026-05-02T15:06:13.957Z</time></trkpt><trkpt lat="44.2621986" lon="8.4273551"><ele>23.333333333333336</ele><time>2026-05-02T15:06:14.958Z</time></trkpt><trkpt lat="44.2623661" lon="8.4273276"><ele>21.666666666666668</ele><time>2026-05-02T15:06:15.959Z</time></trkpt><trkpt lat="44.2625336" lon="8.4272932"><ele>20.0</ele><time>2026-05-02T15:06:16.958Z</time></trkpt><trkpt lat="44.2626906" lon="8.4272558"><ele>20.0</ele><time>2026-05-02T15:06:17.958Z</time></trkpt><trkpt lat="44.2628464" lon="8.427227"><ele>20.0</ele><time>2026-05-02T15:06:18.959Z</time></trkpt><trkpt lat="44.2629938" lon="8.4271901"><ele>20.0</ele><time>2026-05-02T15:06:19.959Z</time></trkpt><trkpt lat="44.2631538" lon="8.42714"><ele>18.666666666666668</ele><time>2026-05-02T15:06:20.959Z</time></trkpt><trkpt lat="44.2633186" lon="8.4270705"><ele>17.333333333333332</ele><time>2026-05-02T15:06:21.958Z</time></trkpt><trkpt lat="44.2634726" lon="8.4270066"><ele>16.0</ele><time>2026-05-02T15:06:22.958Z</time></trkpt><trkpt lat="44.26362" lon="8.4269506"><ele>16.0</ele><time>2026-05-02T15:06:23.959Z</time></trkpt><trkpt lat="44.2637694" lon="8.4268981"><ele>16.0</ele><time>2026-05-02T15:06:24.959Z</time></trkpt><trkpt lat="44.2639128" lon="8.4268629"><ele>16.0</ele><time>2026-05-02T15:06:25.96Z</time></trkpt><trkpt lat="44.264061" lon="8.4268451"><ele>16.0</ele><time>2026-05-02T15:06:26.959Z</time></trkpt><trkpt lat="44.2642163" lon="8.4268302"><ele>16.0</ele><time>2026-05-02T15:06:27.96Z</time></trkpt><trkpt lat="44.2643669" lon="8.426821"><ele>16.0</ele><time>2026-05-02T15:06:28.959Z</time></trkpt><trkpt lat="44.2645058" lon="8.4268127"><ele>16.0</ele><time>2026-05-02T15:06:29.959Z</time></trkpt><trkpt lat="44.2646416" lon="8.4267986"><ele>16.0</ele><time>2026-05-02T15:06:30.959Z</time></trkpt><trkpt lat="44.2647742" lon="8.4267825"><ele>15.600000000000001</ele><time>2026-05-02T15:06:31.958Z</time></trkpt><trkpt lat="44.2648954" lon="8.4267666"><ele>15.200000000000001</ele><time>2026-05-02T15:06:32.959Z</time></trkpt><trkpt lat="44.2649994" lon="8.4267389"><ele>14.799999999999999</ele><time>2026-05-02T15:06:33.957Z</time></trkpt><trkpt lat="44.2650903" lon="8.4266961"><ele>14.399999999999999</ele><time>2026-05-02T15:06:34.958Z</time></trkpt><trkpt lat="44.2651732" lon="8.4266439"><ele>14.0</ele><time>2026-05-02T15:06:35.959Z</time></trkpt><trkpt lat="44.2652484" lon="8.4265918"><ele>14.000000000000002</ele><time>2026-05-02T15:06:36.959Z</time></trkpt><trkpt lat="44.2653093" lon="8.4265537"><ele>14.0</ele><time>2026-05-02T15:06:37.958Z</time></trkpt><trkpt lat="44.2653891" lon="8.4264776"><ele>14.0</ele><time>2026-05-02T15:06:39.958Z</time></trkpt><trkpt lat="44.265443" lon="8.426392"><ele>14.0</ele><time>2026-05-02T15:06:52.958Z</time></trkpt><trkpt lat="44.2655187" lon="8.4263211"><ele>14.000000000000002</ele><time>2026-05-02T15:06:54.959Z</time></trkpt><trkpt lat="44.2655794" lon="8.4262819"><ele>14.0</ele><time>2026-05-02T15:06:55.959Z</time></trkpt><trkpt lat="44.2656668" lon="8.426224"><ele>14.5</ele><time>2026-05-02T15:06:56.958Z</time></trkpt><trkpt lat="44.2657586" lon="8.4261309"><ele>15.0</ele><time>2026-05-02T15:06:57.959Z</time></trkpt><trkpt lat="44.2658577" lon="8.4260024"><ele>15.5</ele><time>2026-05-02T15:06:58.959Z</time></trkpt><trkpt lat="44.2659548" lon="8.4258661"><ele>16.0</ele><time>2026-05-02T15:06:59.96Z</time></trkpt><trkpt lat="44.2660629" lon="8.425738"><ele>16.0</ele><time>2026-05-02T15:07:00.958Z</time></trkpt><trkpt lat="44.2661812" lon="8.4256326"><ele>16.0</ele><time>2026-05-02T15:07:01.958Z</time></trkpt><trkpt lat="44.2663026" lon="8.4255414"><ele>16.0</ele><time>2026-05-02T15:07:02.959Z</time></trkpt><trkpt lat="44.2664284" lon="8.4254553"><ele>16.0</ele><time>2026-05-02T15:07:03.959Z</time></trkpt><trkpt lat="44.2665536" lon="8.425378"><ele>17.75</ele><time>2026-05-02T15:07:04.958Z</time></trkpt><trkpt lat="44.2666729" lon="8.4252935"><ele>19.5</ele><time>2026-05-02T15:07:05.958Z</time></trkpt><trkpt lat="44.2667983" lon="8.4252229"><ele>21.25</ele><time>2026-05-02T15:07:06.958Z</time></trkpt><trkpt lat="44.266909" lon="8.4251443"><ele>23.0</ele><time>2026-05-02T15:07:07.958Z</time></trkpt><trkpt lat="44.2670082" lon="8.4250778"><ele>23.0</ele><time>2026-05-02T15:07:08.959Z</time></trkpt><trkpt lat="44.2671102" lon="8.4250196"><ele>23.0</ele><time>2026-05-02T15:07:09.958Z</time></trkpt><trkpt lat="44.2671943" lon="8.4249566"><ele>23.0</ele><time>2026-05-02T15:07:10.959Z</time></trkpt><trkpt lat="44.2672759" lon="8.4248993"><ele>23.0</ele><time>2026-05-02T15:07:11.959Z</time></trkpt><trkpt lat="44.2673521" lon="8.4248512"><ele>23.0</ele><time>2026-05-02T15:07:12.958Z</time></trkpt><trkpt lat="44.2674272" lon="8.4247947"><ele>22.833333333333336</ele><time>2026-05-02T15:07:13.957Z</time></trkpt><trkpt lat="44.2675088" lon="8.4247508"><ele>22.666666666666668</ele><time>2026-05-02T15:07:14.958Z</time></trkpt><trkpt lat="44.2675951" lon="8.4247299"><ele>22.5</ele><time>2026-05-02T15:07:15.958Z</time></trkpt><trkpt lat="44.2676789" lon="8.4247402"><ele>22.333333333333332</ele><time>2026-05-02T15:07:16.959Z</time></trkpt><trkpt lat="44.2677594" lon="8.4247789"><ele>22.166666666666664</ele><time>2026-05-02T15:07:17.96Z</time></trkpt><trkpt lat="44.2678283" lon="8.4248404"><ele>22.0</ele><time>2026-05-02T15:07:18.958Z</time></trkpt><trkpt lat="44.2678969" lon="8.4249192"><ele>22.0</ele><time>2026-05-02T15:07:19.958Z</time></trkpt><trkpt lat="44.2679634" lon="8.4250076"><ele>22.0</ele><time>2026-05-02T15:07:20.959Z</time></trkpt><trkpt lat="44.2680309" lon="8.4250921"><ele>22.0</ele><time>2026-05-02T15:07:21.958Z</time></trkpt><trkpt lat="44.268099" lon="8.425182"><ele>22.0</ele><time>2026-05-02T15:07:22.957Z</time></trkpt><trkpt lat="44.2681737" lon="8.4252559"><ele>22.0</ele><time>2026-05-02T15:07:23.958Z</time></trkpt><trkpt lat="44.2682471" lon="8.4253429"><ele>21.25</ele><time>2026-05-02T15:07:24.958Z</time></trkpt><trkpt lat="44.2683356" lon="8.4254439"><ele>20.5</ele><time>2026-05-02T15:07:25.958Z</time></trkpt><trkpt lat="44.2684382" lon="8.4255481"><ele>19.75</ele><time>2026-05-02T15:07:26.958Z</time></trkpt><trkpt lat="44.2685323" lon="8.4256586"><ele>19.0</ele><time>2026-05-02T15:07:27.957Z</time></trkpt><trkpt lat="44.2686176" lon="8.4257701"><ele>18.599999999999998</ele><time>2026-05-02T15:07:28.958Z</time></trkpt><trkpt lat="44.2686978" lon="8.4258721"><ele>18.2</ele><time>2026-05-02T15:07:29.959Z</time></trkpt><trkpt lat="44.2687794" lon="8.4259741"><ele>17.799999999999997</ele><time>2026-05-02T15:07:30.959Z</time></trkpt><trkpt lat="44.2688473" lon="8.426084"><ele>17.4</ele><time>2026-05-02T15:07:31.957Z</time></trkpt><trkpt lat="44.2689142" lon="8.4261768"><ele>17.0</ele><time>2026-05-02T15:07:32.958Z</time></trkpt><trkpt lat="44.2689708" lon="8.426264"><ele>18.166666666666668</ele><time>2026-05-02T15:07:33.958Z</time></trkpt><trkpt lat="44.2690298" lon="8.4263464"><ele>19.333333333333336</ele><time>2026-05-02T15:07:34.958Z</time></trkpt><trkpt lat="44.2690831" lon="8.4264232"><ele>20.5</ele><time>2026-05-02T15:07:35.958Z</time></trkpt><trkpt lat="44.2691269" lon="8.4264967"><ele>21.666666666666668</ele><time>2026-05-02T15:07:36.958Z</time></trkpt><trkpt lat="44.2691955" lon="8.4266191"><ele>22.833333333333332</ele><time>2026-05-02T15:07:38.959Z</time></trkpt><trkpt lat="44.2692613" lon="8.4267178"><ele>24.0</ele><time>2026-05-02T15:07:40.958Z</time></trkpt><trkpt lat="44.2693149" lon="8.4267768"><ele>24.0</ele><time>2026-05-02T15:07:42.958Z</time></trkpt><trkpt lat="44.2693936" lon="8.4268022"><ele>24.0</ele><time>2026-05-02T15:08:01.959Z</time></trkpt><trkpt lat="44.2694583" lon="8.426814"><ele>24.0</ele><time>2026-05-02T15:08:18.957Z</time></trkpt><trkpt lat="44.2695211" lon="8.4268482"><ele>24.0</ele><time>2026-05-02T15:08:19.957Z</time></trkpt><trkpt lat="44.269591" lon="8.4269113"><ele>24.0</ele><time>2026-05-02T15:08:20.96Z</time></trkpt><trkpt lat="44.2696604" lon="8.4270019"><ele>24.0</ele><time>2026-05-02T15:08:21.957Z</time></trkpt><trkpt lat="44.2697364" lon="8.427104"><ele>23.4</ele><time>2026-05-02T15:08:22.959Z</time></trkpt><trkpt lat="44.2697998" lon="8.4271993"><ele>22.799999999999997</ele><time>2026-05-02T15:08:23.957Z</time></trkpt><trkpt lat="44.2698698" lon="8.4272827"><ele>22.200000000000003</ele><time>2026-05-02T15:08:24.957Z</time></trkpt><trkpt lat="44.2699486" lon="8.4273813"><ele>21.6</ele><time>2026-05-02T15:08:25.959Z</time></trkpt><trkpt lat="44.2700207" lon="8.4274795"><ele>21.0</ele><time>2026-05-02T15:08:26.959Z</time></trkpt><trkpt lat="44.2700945" lon="8.4275745"><ele>21.0</ele><time>2026-05-02T15:08:27.957Z</time></trkpt><trkpt lat="44.27017" lon="8.4276677"><ele>21.0</ele><time>2026-05-02T15:08:28.957Z</time></trkpt><trkpt lat="44.2702486" lon="8.427771"><ele>21.0</ele><time>2026-05-02T15:08:29.959Z</time></trkpt><trkpt lat="44.2703285" lon="8.427871"><ele>21.0</ele><time>2026-05-02T15:08:30.958Z</time></trkpt><trkpt lat="44.2704084" lon="8.4279758"><ele>21.0</ele><time>2026-05-02T15:08:31.957Z</time></trkpt><trkpt lat="44.270496" lon="8.4280853"><ele>19.5</ele><time>2026-05-02T15:08:32.958Z</time></trkpt><trkpt lat="44.2705813" lon="8.4281942"><ele>18.0</ele><time>2026-05-02T15:08:33.957Z</time></trkpt><trkpt lat="44.2706701" lon="8.42831"><ele>16.5</ele><time>2026-05-02T15:08:34.959Z</time></trkpt><trkpt lat="44.270766" lon="8.4284204"><ele>15.0</ele><time>2026-05-02T15:08:35.957Z</time></trkpt><trkpt lat="44.2708537" lon="8.4285334"><ele>14.75</ele><time>2026-05-02T15:08:36.958Z</time></trkpt><trkpt lat="44.2709424" lon="8.4286469"><ele>14.5</ele><time>2026-05-02T15:08:37.959Z</time></trkpt><trkpt lat="44.2710281" lon="8.4287624"><ele>14.25</ele><time>2026-05-02T15:08:38.957Z</time></trkpt><trkpt lat="44.2711197" lon="8.4288795"><ele>14.0</ele><time>2026-05-02T15:08:39.957Z</time></trkpt><trkpt lat="44.2712102" lon="8.4289983"><ele>14.0</ele><time>2026-05-02T15:08:40.958Z</time></trkpt><trkpt lat="44.2713025" lon="8.4291167"><ele>14.0</ele><time>2026-05-02T15:08:41.958Z</time></trkpt><trkpt lat="44.2713904" lon="8.4292502"><ele>14.0</ele><time>2026-05-02T15:08:42.957Z</time></trkpt><trkpt lat="44.2714755" lon="8.4293843"><ele>14.0</ele><time>2026-05-02T15:08:43.957Z</time></trkpt><trkpt lat="44.2715527" lon="8.4295208"><ele>14.25</ele><time>2026-05-02T15:08:44.958Z</time></trkpt><trkpt lat="44.2716298" lon="8.4296568"><ele>14.5</ele><time>2026-05-02T15:08:45.958Z</time></trkpt><trkpt lat="44.271702" lon="8.4297975"><ele>14.75</ele><time>2026-05-02T15:08:46.959Z</time></trkpt><trkpt lat="44.2717747" lon="8.4299394"><ele>15.0</ele><time>2026-05-02T15:08:47.958Z</time></trkpt><trkpt lat="44.2718462" lon="8.4300834"><ele>15.0</ele><time>2026-05-02T15:08:48.959Z</time></trkpt><trkpt lat="44.2719214" lon="8.4302271"><ele>15.0</ele><time>2026-05-02T15:08:49.958Z</time></trkpt><trkpt lat="44.2719977" lon="8.4303651"><ele>15.0</ele><time>2026-05-02T15:08:50.957Z</time></trkpt><trkpt lat="44.2720706" lon="8.4304987"><ele>15.0</ele><time>2026-05-02T15:08:51.959Z</time></trkpt><trkpt lat="44.2721357" lon="8.4306291"><ele>15.25</ele><time>2026-05-02T15:08:52.959Z</time></trkpt><trkpt lat="44.2722062" lon="8.4307568"><ele>15.5</ele><time>2026-05-02T15:08:53.959Z</time></trkpt><trkpt lat="44.2722778" lon="8.4308781"><ele>15.75</ele><time>2026-05-02T15:08:54.959Z</time></trkpt><trkpt lat="44.2723595" lon="8.4309992"><ele>16.0</ele><time>2026-05-02T15:08:55.958Z</time></trkpt><trkpt lat="44.2724405" lon="8.4311258"><ele>16.0</ele><time>2026-05-02T15:08:56.957Z</time></trkpt><trkpt lat="44.2725274" lon="8.4312446"><ele>16.0</ele><time>2026-05-02T15:08:57.958Z</time></trkpt><trkpt lat="44.272609" lon="8.4313552"><ele>16.0</ele><time>2026-05-02T15:08:58.957Z</time></trkpt><trkpt lat="44.2726908" lon="8.4314592"><ele>16.0</ele><time>2026-05-02T15:08:59.957Z</time></trkpt><trkpt lat="44.2727704" lon="8.431562"><ele>16.0</ele><time>2026-05-02T15:09:00.958Z</time></trkpt><trkpt lat="44.2728515" lon="8.4316595"><ele>16.0</ele><time>2026-05-02T15:09:01.959Z</time></trkpt><trkpt lat="44.2729297" lon="8.4317527"><ele>16.0</ele><time>2026-05-02T15:09:02.959Z</time></trkpt><trkpt lat="44.2730141" lon="8.4318507"><ele>16.0</ele><time>2026-05-02T15:09:03.958Z</time></trkpt><trkpt lat="44.273091" lon="8.4319425"><ele>16.0</ele><time>2026-05-02T15:09:04.959Z</time></trkpt><trkpt lat="44.2731736" lon="8.4320329"><ele>16.0</ele><time>2026-05-02T15:09:05.957Z</time></trkpt><trkpt lat="44.2732542" lon="8.4321271"><ele>16.0</ele><time>2026-05-02T15:09:06.957Z</time></trkpt><trkpt lat="44.2733339" lon="8.4322236"><ele>16.0</ele><time>2026-05-02T15:09:07.958Z</time></trkpt><trkpt lat="44.2734061" lon="8.4323093"><ele>16.0</ele><time>2026-05-02T15:09:08.957Z</time></trkpt><trkpt lat="44.2734787" lon="8.432389"><ele>16.0</ele><time>2026-05-02T15:09:09.959Z</time></trkpt><trkpt lat="44.2735461" lon="8.4324631"><ele>16.833333333333332</ele><time>2026-05-02T15:09:10.958Z</time></trkpt><trkpt lat="44.2736101" lon="8.4325366"><ele>17.666666666666664</ele><time>2026-05-02T15:09:11.959Z</time></trkpt><trkpt lat="44.2736713" lon="8.4326141"><ele>18.5</ele><time>2026-05-02T15:09:12.958Z</time></trkpt><trkpt lat="44.2737231" lon="8.4327006"><ele>19.333333333333332</ele><time>2026-05-02T15:09:13.957Z</time></trkpt><trkpt lat="44.2737468" lon="8.432804"><ele>20.166666666666668</ele><time>2026-05-02T15:09:14.957Z</time></trkpt><trkpt lat="44.2737638" lon="8.432903"><ele>21.0</ele><time>2026-05-02T15:09:15.957Z</time></trkpt><trkpt lat="44.2737592" lon="8.4330011"><ele>21.0</ele><time>2026-05-02T15:09:16.959Z</time></trkpt><trkpt lat="44.2737276" lon="8.4331022"><ele>21.0</ele><time>2026-05-02T15:09:17.958Z</time></trkpt><trkpt lat="44.2736766" lon="8.4332006"><ele>21.0</ele><time>2026-05-02T15:09:18.96Z</time></trkpt><trkpt lat="44.2736207" lon="8.4332811"><ele>21.0</ele><time>2026-05-02T15:09:19.958Z</time></trkpt><trkpt lat="44.2735681" lon="8.4333611"><ele>21.0</ele><time>2026-05-02T15:09:20.958Z</time></trkpt><trkpt lat="44.2735222" lon="8.4334331"><ele>21.0</ele><time>2026-05-02T15:09:21.957Z</time></trkpt><trkpt lat="44.2734717" lon="8.4334939"><ele>21.0</ele><time>2026-05-02T15:09:22.958Z</time></trkpt><trkpt lat="44.2733781" lon="8.433583"><ele>21.0</ele><time>2026-05-02T15:09:24.958Z</time></trkpt><trkpt lat="44.2732924" lon="8.4336395"><ele>21.0</ele><time>2026-05-02T15:09:26.957Z</time></trkpt><trkpt lat="44.2731952" lon="8.4336941"><ele>21.0</ele><time>2026-05-02T15:09:28.958Z</time></trkpt><trkpt lat="44.2731342" lon="8.433796"><ele>21.0</ele><time>2026-05-02T15:09:30.958Z</time></trkpt><trkpt lat="44.273159" lon="8.4339209"><ele>20.166666666666668</ele><time>2026-05-02T15:09:32.958Z</time></trkpt><trkpt lat="44.2732479" lon="8.4339927"><ele>19.333333333333332</ele><time>2026-05-02T15:09:34.958Z</time></trkpt><trkpt lat="44.273337" lon="8.4340873"><ele>18.5</ele><time>2026-05-02T15:09:36.957Z</time></trkpt><trkpt lat="44.2733766" lon="8.4341598"><ele>17.666666666666664</ele><time>2026-05-02T15:09:37.958Z</time></trkpt><trkpt lat="44.273421" lon="8.4342375"><ele>16.833333333333332</ele><time>2026-05-02T15:09:38.959Z</time></trkpt><trkpt lat="44.2734668" lon="8.4343127"><ele>16.0</ele><time>2026-05-02T15:09:39.959Z</time></trkpt><trkpt lat="44.2735172" lon="8.4343814"><ele>15.999999999999998</ele><time>2026-05-02T15:09:40.957Z</time></trkpt><trkpt lat="44.2735715" lon="8.434463"><ele>16.0</ele><time>2026-05-02T15:09:41.958Z</time></trkpt><trkpt lat="44.2736348" lon="8.4345584"><ele>16.0</ele><time>2026-05-02T15:09:42.958Z</time></trkpt><trkpt lat="44.2736951" lon="8.4346488"><ele>16.0</ele><time>2026-05-02T15:09:43.958Z</time></trkpt><trkpt lat="44.2737483" lon="8.4347212"><ele>15.999999999999998</ele><time>2026-05-02T15:09:44.957Z</time></trkpt><trkpt lat="44.273795" lon="8.4347986"><ele>16.0</ele><time>2026-05-02T15:09:45.958Z</time></trkpt><trkpt lat="44.2738428" lon="8.4348709"><ele>15.499999999999998</ele><time>2026-05-02T15:09:46.958Z</time></trkpt><trkpt lat="44.2738806" lon="8.4349479"><ele>15.0</ele><time>2026-05-02T15:09:47.957Z</time></trkpt><trkpt lat="44.2739253" lon="8.4350111"><ele>14.5</ele><time>2026-05-02T15:09:48.958Z</time></trkpt><trkpt lat="44.2739742" lon="8.4350752"><ele>14.0</ele><time>2026-05-02T15:09:49.958Z</time></trkpt><trkpt lat="44.2740951" lon="8.4351198"><ele>13.499999999999998</ele><time>2026-05-02T15:09:51.959Z</time></trkpt><trkpt lat="44.2741807" lon="8.4351419"><ele>13.0</ele><time>2026-05-02T15:09:53.957Z</time></trkpt><trkpt lat="44.2742653" lon="8.4351496"><ele>12.8</ele><time>2026-05-02T15:09:56.958Z</time></trkpt><trkpt lat="44.2743319" lon="8.4351126"><ele>12.600000000000001</ele><time>2026-05-02T15:09:59.958Z</time></trkpt><trkpt lat="44.2744373" lon="8.4351035"><ele>12.399999999999999</ele><time>2026-05-02T15:10:02.958Z</time></trkpt><trkpt lat="44.2745491" lon="8.4351353"><ele>12.2</ele><time>2026-05-02T15:10:04.958Z</time></trkpt><trkpt lat="44.2746691" lon="8.4351798"><ele>12.0</ele><time>2026-05-02T15:10:06.959Z</time></trkpt><trkpt lat="44.2747805" lon="8.4352774"><ele>11.0</ele><time>2026-05-02T15:10:08.959Z</time></trkpt><trkpt lat="44.2748602" lon="8.4353197"><ele>10.0</ele><time>2026-05-02T15:10:09.959Z</time></trkpt><trkpt lat="44.2749405" lon="8.4353333"><ele>9.0</ele><time>2026-05-02T15:10:10.957Z</time></trkpt><trkpt lat="44.2750348" lon="8.4353344"><ele>8.0</ele><time>2026-05-02T15:10:11.958Z</time></trkpt><trkpt lat="44.2751464" lon="8.435332"><ele>7.0</ele><time>2026-05-02T15:10:12.957Z</time></trkpt><trkpt lat="44.275256" lon="8.4353284"><ele>7.0</ele><time>2026-05-02T15:10:13.957Z</time></trkpt><trkpt lat="44.275364" lon="8.4353523"><ele>7.0</ele><time>2026-05-02T15:10:14.958Z</time></trkpt><trkpt lat="44.2754849" lon="8.4353781"><ele>7.0</ele><time>2026-05-02T15:10:15.958Z</time></trkpt><trkpt lat="44.2756048" lon="8.4354236"><ele>7.0</ele><time>2026-05-02T15:10:16.958Z</time></trkpt><trkpt lat="44.2757111" lon="8.4354917"><ele>7.25</ele><time>2026-05-02T15:10:17.957Z</time></trkpt><trkpt lat="44.2758177" lon="8.435551"><ele>7.5</ele><time>2026-05-02T15:10:18.959Z</time></trkpt><trkpt lat="44.2759218" lon="8.4356013"><ele>7.75</ele><time>2026-05-02T15:10:19.96Z</time></trkpt><trkpt lat="44.2760246" lon="8.4356566"><ele>8.0</ele><time>2026-05-02T15:10:20.957Z</time></trkpt><trkpt lat="44.2761368" lon="8.4357118"><ele>8.0</ele><time>2026-05-02T15:10:21.958Z</time></trkpt><trkpt lat="44.2762438" lon="8.4357619"><ele>8.0</ele><time>2026-05-02T15:10:22.958Z</time></trkpt><trkpt lat="44.2763512" lon="8.4358143"><ele>8.0</ele><time>2026-05-02T15:10:23.957Z</time></trkpt><trkpt lat="44.2764748" lon="8.4358639"><ele>8.0</ele><time>2026-05-02T15:10:24.959Z</time></trkpt><trkpt lat="44.2765991" lon="8.4359174"><ele>8.0</ele><time>2026-05-02T15:10:25.958Z</time></trkpt><trkpt lat="44.2767324" lon="8.4359772"><ele>8.0</ele><time>2026-05-02T15:10:26.958Z</time></trkpt><trkpt lat="44.2768701" lon="8.4360477"><ele>8.0</ele><time>2026-05-02T15:10:27.958Z</time></trkpt><trkpt lat="44.2770049" lon="8.436122"><ele>8.0</ele><time>2026-05-02T15:10:28.959Z</time></trkpt><trkpt lat="44.2771326" lon="8.4361869"><ele>8.0</ele><time>2026-05-02T15:10:29.959Z</time></trkpt><trkpt lat="44.277253" lon="8.4362466"><ele>8.0</ele><time>2026-05-02T15:10:30.958Z</time></trkpt><trkpt lat="44.2773707" lon="8.4363126"><ele>8.0</ele><time>2026-05-02T15:10:31.958Z</time></trkpt><trkpt lat="44.2774836" lon="8.4363765"><ele>8.0</ele><time>2026-05-02T15:10:32.957Z</time></trkpt><trkpt lat="44.2775981" lon="8.4364413"><ele>8.0</ele><time>2026-05-02T15:10:33.958Z</time></trkpt><trkpt lat="44.2777056" lon="8.4364987"><ele>8.0</ele><time>2026-05-02T15:10:34.957Z</time></trkpt><trkpt lat="44.2778084" lon="8.4365587"><ele>8.0</ele><time>2026-05-02T15:10:35.957Z</time></trkpt><trkpt lat="44.2779142" lon="8.4366177"><ele>8.0</ele><time>2026-05-02T15:10:36.959Z</time></trkpt><trkpt lat="44.2780167" lon="8.4366743"><ele>7.800000000000001</ele><time>2026-05-02T15:10:37.958Z</time></trkpt><trkpt lat="44.2781168" lon="8.436728"><ele>7.6000000000000005</ele><time>2026-05-02T15:10:38.958Z</time></trkpt><trkpt lat="44.2782119" lon="8.4367844"><ele>7.3999999999999995</ele><time>2026-05-02T15:10:39.957Z</time></trkpt><trkpt lat="44.2783063" lon="8.4368413"><ele>7.199999999999999</ele><time>2026-05-02T15:10:40.958Z</time></trkpt><trkpt lat="44.278401" lon="8.4368918"><ele>7.0</ele><time>2026-05-02T15:10:41.958Z</time></trkpt><trkpt lat="44.2784961" lon="8.4369456"><ele>7.0</ele><time>2026-05-02T15:10:42.957Z</time></trkpt><trkpt lat="44.2785889" lon="8.4369934"><ele>6.999999999999999</ele><time>2026-05-02T15:10:43.957Z</time></trkpt><trkpt lat="44.2786857" lon="8.4370457"><ele>6.999999999999999</ele><time>2026-05-02T15:10:44.957Z</time></trkpt><trkpt lat="44.2787814" lon="8.4371061"><ele>7.0</ele><time>2026-05-02T15:10:45.957Z</time></trkpt><trkpt lat="44.2788718" lon="8.4371819"><ele>7.0</ele><time>2026-05-02T15:10:46.958Z</time></trkpt><trkpt lat="44.2789457" lon="8.4372693"><ele>6.3999999999999995</ele><time>2026-05-02T15:10:47.958Z</time></trkpt><trkpt lat="44.2790208" lon="8.4373651"><ele>5.799999999999999</ele><time>2026-05-02T15:10:48.957Z</time></trkpt><trkpt lat="44.2790796" lon="8.437476"><ele>5.2</ele><time>2026-05-02T15:10:49.957Z</time></trkpt><trkpt lat="44.279131" lon="8.4375961"><ele>4.6</ele><time>2026-05-02T15:10:50.958Z</time></trkpt><trkpt lat="44.2791735" lon="8.4377123"><ele>4.0</ele><time>2026-05-02T15:10:51.958Z</time></trkpt><trkpt lat="44.2792147" lon="8.4378217"><ele>3.9999999999999996</ele><time>2026-05-02T15:10:52.959Z</time></trkpt><trkpt lat="44.2792473" lon="8.4379337"><ele>4.0</ele><time>2026-05-02T15:10:53.959Z</time></trkpt><trkpt lat="44.2792795" lon="8.4380327"><ele>4.0</ele><time>2026-05-02T15:10:54.959Z</time></trkpt><trkpt lat="44.2793092" lon="8.4381467"><ele>4.0</ele><time>2026-05-02T15:10:55.957Z</time></trkpt><trkpt lat="44.2793319" lon="8.4382623"><ele>3.9999999999999996</ele><time>2026-05-02T15:10:56.958Z</time></trkpt><trkpt lat="44.2793568" lon="8.438383"><ele>4.0</ele><time>2026-05-02T15:10:57.96Z</time></trkpt><trkpt lat="44.2793778" lon="8.4385078"><ele>3.833333333333333</ele><time>2026-05-02T15:10:58.957Z</time></trkpt><trkpt lat="44.2794024" lon="8.4386215"><ele>3.6666666666666665</ele><time>2026-05-02T15:10:59.957Z</time></trkpt><trkpt lat="44.2794194" lon="8.438729"><ele>3.5</ele><time>2026-05-02T15:11:00.957Z</time></trkpt><trkpt lat="44.2794368" lon="8.4388299"><ele>3.333333333333333</ele><time>2026-05-02T15:11:01.958Z</time></trkpt><trkpt lat="44.2794631" lon="8.4389255"><ele>3.1666666666666665</ele><time>2026-05-02T15:11:02.959Z</time></trkpt><trkpt lat="44.2795029" lon="8.4390172"><ele>3.0</ele><time>2026-05-02T15:11:03.957Z</time></trkpt><trkpt lat="44.2795577" lon="8.4390961"><ele>3.3333333333333335</ele><time>2026-05-02T15:11:04.959Z</time></trkpt><trkpt lat="44.2796268" lon="8.4391685"><ele>3.666666666666667</ele><time>2026-05-02T15:11:05.957Z</time></trkpt><trkpt lat="44.2797004" lon="8.4392336"><ele>4.0</ele><time>2026-05-02T15:11:06.957Z</time></trkpt><trkpt lat="44.2797823" lon="8.439298"><ele>4.333333333333334</ele><time>2026-05-02T15:11:07.957Z</time></trkpt><trkpt lat="44.2798582" lon="8.4393634"><ele>4.666666666666667</ele><time>2026-05-02T15:11:08.958Z</time></trkpt><trkpt lat="44.2799379" lon="8.4394157"><ele>5.0</ele><time>2026-05-02T15:11:09.957Z</time></trkpt><trkpt lat="44.2800205" lon="8.4394807"><ele>5.2</ele><time>2026-05-02T15:11:10.958Z</time></trkpt><trkpt lat="44.2800949" lon="8.4395428"><ele>5.4</ele><time>2026-05-02T15:11:11.957Z</time></trkpt><trkpt lat="44.2801739" lon="8.4395966"><ele>5.6</ele><time>2026-05-02T15:11:12.958Z</time></trkpt><trkpt lat="44.2802553" lon="8.4396541"><ele>5.8</ele><time>2026-05-02T15:11:13.959Z</time></trkpt><trkpt lat="44.2803427" lon="8.439708"><ele>6.0</ele><time>2026-05-02T15:11:14.957Z</time></trkpt><trkpt lat="44.2804269" lon="8.4397646"><ele>6.0</ele><time>2026-05-02T15:11:15.957Z</time></trkpt><trkpt lat="44.2805155" lon="8.4398189"><ele>6.0</ele><time>2026-05-02T15:11:16.958Z</time></trkpt><trkpt lat="44.2806078" lon="8.4398794"><ele>6.0</ele><time>2026-05-02T15:11:17.957Z</time></trkpt><trkpt lat="44.2807105" lon="8.4399241"><ele>6.0</ele><time>2026-05-02T15:11:18.958Z</time></trkpt><trkpt lat="44.2808205" lon="8.4399607"><ele>6.0</ele><time>2026-05-02T15:11:19.957Z</time></trkpt><trkpt lat="44.2809421" lon="8.439985"><ele>6.0</ele><time>2026-05-02T15:11:20.957Z</time></trkpt><trkpt lat="44.2810756" lon="8.439986"><ele>6.0</ele><time>2026-05-02T15:11:21.958Z</time></trkpt><trkpt lat="44.2811997" lon="8.4399767"><ele>6.0</ele><time>2026-05-02T15:11:22.957Z</time></trkpt><trkpt lat="44.2813297" lon="8.4399702"><ele>6.0</ele><time>2026-05-02T15:11:23.958Z</time></trkpt><trkpt lat="44.281463" lon="8.4399583"><ele>6.25</ele><time>2026-05-02T15:11:24.957Z</time></trkpt><trkpt lat="44.281602" lon="8.4399513"><ele>6.5</ele><time>2026-05-02T15:11:25.958Z</time></trkpt><trkpt lat="44.2817367" lon="8.4399489"><ele>6.75</ele><time>2026-05-02T15:11:26.957Z</time></trkpt><trkpt lat="44.2818666" lon="8.4399513"><ele>7.0</ele><time>2026-05-02T15:11:27.957Z</time></trkpt><trkpt lat="44.2820007" lon="8.4399664"><ele>7.0</ele><time>2026-05-02T15:11:28.957Z</time></trkpt><trkpt lat="44.2821272" lon="8.4399874"><ele>6.999999999999999</ele><time>2026-05-02T15:11:29.957Z</time></trkpt><trkpt lat="44.2822416" lon="8.44001"><ele>6.999999999999999</ele><time>2026-05-02T15:11:30.957Z</time></trkpt><trkpt lat="44.2823417" lon="8.4400404"><ele>7.0</ele><time>2026-05-02T15:11:31.958Z</time></trkpt><trkpt lat="44.2824323" lon="8.4400605"><ele>7.0</ele><time>2026-05-02T15:11:32.959Z</time></trkpt><trkpt lat="44.2825158" lon="8.4400849"><ele>6.500000000000001</ele><time>2026-05-02T15:11:33.958Z</time></trkpt><trkpt lat="44.2825941" lon="8.4401108"><ele>6.0</ele><time>2026-05-02T15:11:34.957Z</time></trkpt><trkpt lat="44.2826633" lon="8.4401454"><ele>5.5</ele><time>2026-05-02T15:11:35.958Z</time></trkpt><trkpt lat="44.2827323" lon="8.4401703"><ele>5.0</ele><time>2026-05-02T15:11:36.957Z</time></trkpt><trkpt lat="44.2827952" lon="8.4401979"><ele>4.5</ele><time>2026-05-02T15:11:37.957Z</time></trkpt><trkpt lat="44.2828565" lon="8.4402186"><ele>4.0</ele><time>2026-05-02T15:11:38.959Z</time></trkpt><trkpt lat="44.2829721" lon="8.4402747"><ele>3.9999999999999996</ele><time>2026-05-02T15:11:40.958Z</time></trkpt><trkpt lat="44.283048" lon="8.4403037"><ele>4.0</ele><time>2026-05-02T15:11:41.957Z</time></trkpt><trkpt lat="44.2831194" lon="8.4403346"><ele>4.0</ele><time>2026-05-02T15:11:42.958Z</time></trkpt><trkpt lat="44.2832019" lon="8.4403689"><ele>4.0</ele><time>2026-05-02T15:11:43.958Z</time></trkpt><trkpt lat="44.2832778" lon="8.4403993"><ele>3.9999999999999996</ele><time>2026-05-02T15:11:44.957Z</time></trkpt><trkpt lat="44.283349" lon="8.4404306"><ele>4.0</ele><time>2026-05-02T15:11:45.957Z</time></trkpt><trkpt lat="44.2834232" lon="8.440471"><ele>4.2</ele><time>2026-05-02T15:11:46.959Z</time></trkpt><trkpt lat="44.2835021" lon="8.4405103"><ele>4.4</ele><time>2026-05-02T15:11:47.959Z</time></trkpt><trkpt lat="44.2835869" lon="8.4405474"><ele>4.6</ele><time>2026-05-02T15:11:48.957Z</time></trkpt><trkpt lat="44.2836755" lon="8.440592"><ele>4.8</ele><time>2026-05-02T15:11:49.958Z</time></trkpt><trkpt lat="44.2837674" lon="8.4406367"><ele>5.0</ele><time>2026-05-02T15:11:50.958Z</time></trkpt><trkpt lat="44.2838569" lon="8.4406788"><ele>6.0</ele><time>2026-05-02T15:11:51.957Z</time></trkpt><trkpt lat="44.2839498" lon="8.4407252"><ele>7.0</ele><time>2026-05-02T15:11:52.957Z</time></trkpt><trkpt lat="44.284039" lon="8.4407684"><ele>8.0</ele><time>2026-05-02T15:11:53.957Z</time></trkpt><trkpt lat="44.2841287" lon="8.44081"><ele>9.0</ele><time>2026-05-02T15:11:54.958Z</time></trkpt><trkpt lat="44.2842165" lon="8.4408472"><ele>10.0</ele><time>2026-05-02T15:11:55.958Z</time></trkpt><trkpt lat="44.2843022" lon="8.4408925"><ele>10.0</ele><time>2026-05-02T15:11:56.958Z</time></trkpt><trkpt lat="44.2843933" lon="8.440943"><ele>10.0</ele><time>2026-05-02T15:11:57.957Z</time></trkpt><trkpt lat="44.2844879" lon="8.4409947"><ele>10.0</ele><time>2026-05-02T15:11:58.957Z</time></trkpt><trkpt lat="44.2845816" lon="8.4410378"><ele>10.0</ele><time>2026-05-02T15:11:59.957Z</time></trkpt><trkpt lat="44.284673" lon="8.441084"><ele>10.0</ele><time>2026-05-02T15:12:00.958Z</time></trkpt><trkpt lat="44.2847646" lon="8.4411254"><ele>9.6</ele><time>2026-05-02T15:12:01.957Z</time></trkpt><trkpt lat="44.2848574" lon="8.4411709"><ele>9.2</ele><time>2026-05-02T15:12:02.957Z</time></trkpt><trkpt lat="44.2849506" lon="8.4412141"><ele>8.8</ele><time>2026-05-02T15:12:03.957Z</time></trkpt><trkpt lat="44.2850358" lon="8.4412554"><ele>8.4</ele><time>2026-05-02T15:12:04.958Z</time></trkpt><trkpt lat="44.285115" lon="8.4412968"><ele>8.0</ele><time>2026-05-02T15:12:05.958Z</time></trkpt><trkpt lat="44.2851946" lon="8.4413349"><ele>8.833333333333332</ele><time>2026-05-02T15:12:06.957Z</time></trkpt><trkpt lat="44.2852686" lon="8.4413737"><ele>9.666666666666666</ele><time>2026-05-02T15:12:07.957Z</time></trkpt><trkpt lat="44.2853468" lon="8.4414117"><ele>10.5</ele><time>2026-05-02T15:12:08.957Z</time></trkpt><trkpt lat="44.2854232" lon="8.441459"><ele>11.333333333333332</ele><time>2026-05-02T15:12:09.958Z</time></trkpt><trkpt lat="44.2855008" lon="8.4415106"><ele>12.166666666666666</ele><time>2026-05-02T15:12:10.958Z</time></trkpt><trkpt lat="44.2855848" lon="8.4415696"><ele>13.0</ele><time>2026-05-02T15:12:11.956Z</time></trkpt><trkpt lat="44.2856544" lon="8.4416329"><ele>14.0</ele><time>2026-05-02T15:12:12.958Z</time></trkpt><trkpt lat="44.2857278" lon="8.4417038"><ele>15.0</ele><time>2026-05-02T15:12:13.958Z</time></trkpt><trkpt lat="44.2857986" lon="8.4417807"><ele>16.0</ele><time>2026-05-02T15:12:14.957Z</time></trkpt><trkpt lat="44.2858643" lon="8.4418636"><ele>17.0</ele><time>2026-05-02T15:12:15.957Z</time></trkpt><trkpt lat="44.2859352" lon="8.4419532"><ele>18.0</ele><time>2026-05-02T15:12:16.958Z</time></trkpt><trkpt lat="44.2860012" lon="8.4420606"><ele>19.4</ele><time>2026-05-02T15:12:17.956Z</time></trkpt><trkpt lat="44.2860732" lon="8.4421738"><ele>20.8</ele><time>2026-05-02T15:12:18.958Z</time></trkpt><trkpt lat="44.2861362" lon="8.4422871"><ele>22.2</ele><time>2026-05-02T15:12:19.958Z</time></trkpt><trkpt lat="44.2861875" lon="8.4424058"><ele>23.6</ele><time>2026-05-02T15:12:20.957Z</time></trkpt><trkpt lat="44.2862301" lon="8.4425331"><ele>25.0</ele><time>2026-05-02T15:12:21.957Z</time></trkpt><trkpt lat="44.2862714" lon="8.4426559"><ele>25.0</ele><time>2026-05-02T15:12:22.956Z</time></trkpt><trkpt lat="44.2863165" lon="8.4428096"><ele>25.0</ele><time>2026-05-02T15:12:23.958Z</time></trkpt><trkpt lat="44.2863614" lon="8.4429568"><ele>25.0</ele><time>2026-05-02T15:12:24.958Z</time></trkpt><trkpt lat="44.2864052" lon="8.4431075"><ele>25.0</ele><time>2026-05-02T15:12:25.957Z</time></trkpt><trkpt lat="44.2864481" lon="8.4432462"><ele>25.2</ele><time>2026-05-02T15:12:26.958Z</time></trkpt><trkpt lat="44.2864883" lon="8.4433628"><ele>25.4</ele><time>2026-05-02T15:12:27.957Z</time></trkpt><trkpt lat="44.2865283" lon="8.4435043"><ele>25.6</ele><time>2026-05-02T15:12:28.958Z</time></trkpt><trkpt lat="44.2865676" lon="8.4436358"><ele>25.8</ele><time>2026-05-02T15:12:29.956Z</time></trkpt><trkpt lat="44.2866064" lon="8.4437634"><ele>26.0</ele><time>2026-05-02T15:12:30.957Z</time></trkpt><trkpt lat="44.2866436" lon="8.4438865"><ele>26.4</ele><time>2026-05-02T15:12:31.956Z</time></trkpt><trkpt lat="44.2866791" lon="8.4440143"><ele>26.8</ele><time>2026-05-02T15:12:32.957Z</time></trkpt><trkpt lat="44.2867168" lon="8.4441581"><ele>27.199999999999996</ele><time>2026-05-02T15:12:33.957Z</time></trkpt><trkpt lat="44.2867583" lon="8.4442867"><ele>27.599999999999998</ele><time>2026-05-02T15:12:34.957Z</time></trkpt><trkpt lat="44.2867984" lon="8.4444135"><ele>28.0</ele><time>2026-05-02T15:12:35.958Z</time></trkpt><trkpt lat="44.286834" lon="8.4445375"><ele>27.833333333333336</ele><time>2026-05-02T15:12:36.958Z</time></trkpt><trkpt lat="44.286869" lon="8.4446605"><ele>27.666666666666668</ele><time>2026-05-02T15:12:37.958Z</time></trkpt><trkpt lat="44.2869092" lon="8.4447767"><ele>27.5</ele><time>2026-05-02T15:12:38.959Z</time></trkpt><trkpt lat="44.2869433" lon="8.4448825"><ele>27.333333333333336</ele><time>2026-05-02T15:12:39.958Z</time></trkpt><trkpt lat="44.2869758" lon="8.4449881"><ele>27.166666666666668</ele><time>2026-05-02T15:12:40.958Z</time></trkpt><trkpt lat="44.2870091" lon="8.4450934"><ele>27.0</ele><time>2026-05-02T15:12:41.957Z</time></trkpt><trkpt lat="44.2870396" lon="8.445202"><ele>27.0</ele><time>2026-05-02T15:12:42.958Z</time></trkpt><trkpt lat="44.2870742" lon="8.4453024"><ele>27.000000000000004</ele><time>2026-05-02T15:12:43.958Z</time></trkpt><trkpt lat="44.287113" lon="8.4454177"><ele>27.000000000000004</ele><time>2026-05-02T15:12:44.957Z</time></trkpt><trkpt lat="44.2871533" lon="8.4455305"><ele>27.0</ele><time>2026-05-02T15:12:45.958Z</time></trkpt><trkpt lat="44.2872063" lon="8.4456609"><ele>27.0</ele><time>2026-05-02T15:12:46.958Z</time></trkpt><trkpt lat="44.2872717" lon="8.4457801"><ele>26.0</ele><time>2026-05-02T15:12:47.958Z</time></trkpt><trkpt lat="44.2873304" lon="8.445903"><ele>25.000000000000004</ele><time>2026-05-02T15:12:48.958Z</time></trkpt><trkpt lat="44.2873852" lon="8.4460282"><ele>24.0</ele><time>2026-05-02T15:12:49.958Z</time></trkpt><trkpt lat="44.2874376" lon="8.4461562"><ele>23.0</ele><time>2026-05-02T15:12:50.958Z</time></trkpt><trkpt lat="44.2874928" lon="8.4462889"><ele>22.0</ele><time>2026-05-02T15:12:51.959Z</time></trkpt><trkpt lat="44.2875519" lon="8.4464252"><ele>21.0</ele><time>2026-05-02T15:12:52.958Z</time></trkpt><trkpt lat="44.2876154" lon="8.4465677"><ele>20.0</ele><time>2026-05-02T15:12:53.957Z</time></trkpt><trkpt lat="44.2876842" lon="8.4466961"><ele>19.0</ele><time>2026-05-02T15:12:54.957Z</time></trkpt><trkpt lat="44.2877609" lon="8.4468241"><ele>18.0</ele><time>2026-05-02T15:12:55.957Z</time></trkpt><trkpt lat="44.2878334" lon="8.4469555"><ele>18.0</ele><time>2026-05-02T15:12:56.956Z</time></trkpt><trkpt lat="44.2879084" lon="8.4470863"><ele>18.0</ele><time>2026-05-02T15:12:57.958Z</time></trkpt><trkpt lat="44.28798" lon="8.4472095"><ele>18.0</ele><time>2026-05-02T15:12:58.957Z</time></trkpt><trkpt lat="44.2880584" lon="8.4473354"><ele>18.0</ele><time>2026-05-02T15:12:59.957Z</time></trkpt><trkpt lat="44.2881344" lon="8.447459"><ele>17.4</ele><time>2026-05-02T15:13:00.957Z</time></trkpt><trkpt lat="44.2882092" lon="8.4475776"><ele>16.8</ele><time>2026-05-02T15:13:01.956Z</time></trkpt><trkpt lat="44.2882786" lon="8.4476915"><ele>16.2</ele><time>2026-05-02T15:13:02.957Z</time></trkpt><trkpt lat="44.2883502" lon="8.4478053"><ele>15.6</ele><time>2026-05-02T15:13:03.958Z</time></trkpt><trkpt lat="44.28842" lon="8.4479095"><ele>15.0</ele><time>2026-05-02T15:13:04.958Z</time></trkpt><trkpt lat="44.2884865" lon="8.4480158"><ele>15.0</ele><time>2026-05-02T15:13:05.956Z</time></trkpt><trkpt lat="44.2885524" lon="8.4481172"><ele>15.0</ele><time>2026-05-02T15:13:06.956Z</time></trkpt><trkpt lat="44.2886136" lon="8.4482194"><ele>15.0</ele><time>2026-05-02T15:13:07.959Z</time></trkpt><trkpt lat="44.2886789" lon="8.448323"><ele>15.0</ele><time>2026-05-02T15:13:08.958Z</time></trkpt><trkpt lat="44.2887412" lon="8.4484198"><ele>15.0</ele><time>2026-05-02T15:13:09.957Z</time></trkpt><trkpt lat="44.2888092" lon="8.4485181"><ele>15.0</ele><time>2026-05-02T15:13:10.958Z</time></trkpt><trkpt lat="44.2888811" lon="8.4486239"><ele>15.0</ele><time>2026-05-02T15:13:11.957Z</time></trkpt><trkpt lat="44.2889631" lon="8.4487277"><ele>15.0</ele><time>2026-05-02T15:13:12.956Z</time></trkpt><trkpt lat="44.2890469" lon="8.4488316"><ele>15.0</ele><time>2026-05-02T15:13:13.956Z</time></trkpt><trkpt lat="44.2891328" lon="8.4489303"><ele>15.0</ele><time>2026-05-02T15:13:14.956Z</time></trkpt><trkpt lat="44.2892226" lon="8.4490268"><ele>14.5</ele><time>2026-05-02T15:13:15.956Z</time></trkpt><trkpt lat="44.2893164" lon="8.4491165"><ele>14.0</ele><time>2026-05-02T15:13:16.956Z</time></trkpt><trkpt lat="44.2894014" lon="8.4492135"><ele>13.5</ele><time>2026-05-02T15:13:17.958Z</time></trkpt><trkpt lat="44.2894902" lon="8.4493125"><ele>13.0</ele><time>2026-05-02T15:13:18.957Z</time></trkpt><trkpt lat="44.2895872" lon="8.4494065"><ele>13.0</ele><time>2026-05-02T15:13:19.957Z</time></trkpt><trkpt lat="44.2896717" lon="8.4494905"><ele>13.0</ele><time>2026-05-02T15:13:20.957Z</time></trkpt><trkpt lat="44.2897642" lon="8.4495744"><ele>13.0</ele><time>2026-05-02T15:13:21.957Z</time></trkpt><trkpt lat="44.2898542" lon="8.4496556"><ele>13.0</ele><time>2026-05-02T15:13:22.958Z</time></trkpt><trkpt lat="44.2899474" lon="8.4497313"><ele>13.0</ele><time>2026-05-02T15:13:23.956Z</time></trkpt><trkpt lat="44.2900411" lon="8.449802"><ele>12.8</ele><time>2026-05-02T15:13:24.958Z</time></trkpt><trkpt lat="44.2901375" lon="8.4498782"><ele>12.600000000000001</ele><time>2026-05-02T15:13:25.958Z</time></trkpt><trkpt lat="44.2902304" lon="8.4499501"><ele>12.399999999999999</ele><time>2026-05-02T15:13:26.957Z</time></trkpt><trkpt lat="44.2903239" lon="8.4500181"><ele>12.2</ele><time>2026-05-02T15:13:27.957Z</time></trkpt><trkpt lat="44.2904154" lon="8.4500936"><ele>12.0</ele><time>2026-05-02T15:13:28.957Z</time></trkpt><trkpt lat="44.2905066" lon="8.4501645"><ele>14.75</ele><time>2026-05-02T15:13:29.958Z</time></trkpt><trkpt lat="44.2906031" lon="8.4502333"><ele>17.5</ele><time>2026-05-02T15:13:30.957Z</time></trkpt><trkpt lat="44.2907003" lon="8.4502929"><ele>20.25</ele><time>2026-05-02T15:13:31.957Z</time></trkpt><trkpt lat="44.2908088" lon="8.4503413"><ele>23.0</ele><time>2026-05-02T15:13:32.957Z</time></trkpt><trkpt lat="44.2909264" lon="8.4503841"><ele>23.0</ele><time>2026-05-02T15:13:33.958Z</time></trkpt><trkpt lat="44.2910447" lon="8.45042"><ele>23.0</ele><time>2026-05-02T15:13:34.958Z</time></trkpt><trkpt lat="44.2911598" lon="8.4504393"><ele>23.0</ele><time>2026-05-02T15:13:35.958Z</time></trkpt><trkpt lat="44.2912679" lon="8.4504649"><ele>23.0</ele><time>2026-05-02T15:13:36.956Z</time></trkpt><trkpt lat="44.2913741" lon="8.4504888"><ele>21.0</ele><time>2026-05-02T15:13:37.957Z</time></trkpt><trkpt lat="44.2914798" lon="8.4504971"><ele>19.0</ele><time>2026-05-02T15:13:38.957Z</time></trkpt><trkpt lat="44.2915859" lon="8.450513"><ele>17.0</ele><time>2026-05-02T15:13:39.957Z</time></trkpt><trkpt lat="44.2916919" lon="8.4505284"><ele>15.0</ele><time>2026-05-02T15:13:40.957Z</time></trkpt><trkpt lat="44.2917962" lon="8.4505425"><ele>13.0</ele><time>2026-05-02T15:13:41.958Z</time></trkpt><trkpt lat="44.2919006" lon="8.4505531"><ele>13.0</ele><time>2026-05-02T15:13:42.957Z</time></trkpt><trkpt lat="44.2920095" lon="8.4505689"><ele>13.0</ele><time>2026-05-02T15:13:43.957Z</time></trkpt><trkpt lat="44.2921241" lon="8.4505884"><ele>13.0</ele><time>2026-05-02T15:13:44.957Z</time></trkpt><trkpt lat="44.2922409" lon="8.4506185"><ele>13.0</ele><time>2026-05-02T15:13:45.956Z</time></trkpt><trkpt lat="44.2923551" lon="8.4506613"><ele>12.5</ele><time>2026-05-02T15:13:46.957Z</time></trkpt><trkpt lat="44.2924724" lon="8.450721"><ele>12.0</ele><time>2026-05-02T15:13:47.957Z</time></trkpt><trkpt lat="44.2925863" lon="8.4507886"><ele>11.5</ele><time>2026-05-02T15:13:48.957Z</time></trkpt><trkpt lat="44.2926917" lon="8.4508657"><ele>11.0</ele><time>2026-05-02T15:13:49.957Z</time></trkpt><trkpt lat="44.2927911" lon="8.4509499"><ele>11.0</ele><time>2026-05-02T15:13:50.957Z</time></trkpt><trkpt lat="44.2928884" lon="8.4510401"><ele>11.0</ele><time>2026-05-02T15:13:51.959Z</time></trkpt><trkpt lat="44.2929786" lon="8.4511362"><ele>11.0</ele><time>2026-05-02T15:13:52.957Z</time></trkpt><trkpt lat="44.293066" lon="8.4512419"><ele>11.0</ele><time>2026-05-02T15:13:53.957Z</time></trkpt><trkpt lat="44.2931507" lon="8.451349"><ele>10.600000000000001</ele><time>2026-05-02T15:13:54.957Z</time></trkpt><trkpt lat="44.2932361" lon="8.4514548"><ele>10.200000000000001</ele><time>2026-05-02T15:13:55.959Z</time></trkpt><trkpt lat="44.2933069" lon="8.4515738"><ele>9.8</ele><time>2026-05-02T15:13:56.957Z</time></trkpt><trkpt lat="44.2933794" lon="8.4516843"><ele>9.4</ele><time>2026-05-02T15:13:57.958Z</time></trkpt><trkpt lat="44.2934419" lon="8.4517982"><ele>9.0</ele><time>2026-05-02T15:13:58.956Z</time></trkpt><trkpt lat="44.2934982" lon="8.4518969"><ele>9.0</ele><time>2026-05-02T15:13:59.957Z</time></trkpt><trkpt lat="44.2935505" lon="8.4519877"><ele>9.0</ele><time>2026-05-02T15:14:00.958Z</time></trkpt><trkpt lat="44.2935984" lon="8.4520717"><ele>9.0</ele><time>2026-05-02T15:14:01.956Z</time></trkpt><trkpt lat="44.2936365" lon="8.452144"><ele>9.0</ele><time>2026-05-02T15:14:02.957Z</time></trkpt><trkpt lat="44.2936736" lon="8.4522945"><ele>9.0</ele><time>2026-05-02T15:14:04.957Z</time></trkpt><trkpt lat="44.2936535" lon="8.4524428"><ele>9.0</ele><time>2026-05-02T15:14:06.957Z</time></trkpt><trkpt lat="44.2936136" lon="8.4525508"><ele>9.0</ele><time>2026-05-02T15:14:08.957Z</time></trkpt><trkpt lat="44.2935738" lon="8.4526569"><ele>9.0</ele><time>2026-05-02T15:14:10.956Z</time></trkpt><trkpt lat="44.2935155" lon="8.4527503"><ele>9.0</ele><time>2026-05-02T15:14:12.956Z</time></trkpt><trkpt lat="44.2934767" lon="8.4528347"><ele>9.0</ele><time>2026-05-02T15:14:14.958Z</time></trkpt><trkpt lat="44.2934927" lon="8.4529557"><ele>9.0</ele><time>2026-05-02T15:14:16.957Z</time></trkpt><trkpt lat="44.2935363" lon="8.4530239"><ele>9.0</ele><time>2026-05-02T15:14:17.957Z</time></trkpt><trkpt lat="44.2935909" lon="8.4530998"><ele>9.0</ele><time>2026-05-02T15:14:18.958Z</time></trkpt><trkpt lat="44.2936564" lon="8.4531779"><ele>9.0</ele><time>2026-05-02T15:14:19.958Z</time></trkpt><trkpt lat="44.2937221" lon="8.4532606"><ele>9.0</ele><time>2026-05-02T15:14:20.957Z</time></trkpt><trkpt lat="44.2937838" lon="8.4533417"><ele>9.0</ele><time>2026-05-02T15:14:21.957Z</time></trkpt><trkpt lat="44.2938514" lon="8.4534217"><ele>9.0</ele><time>2026-05-02T15:14:22.957Z</time></trkpt><trkpt lat="44.2939158" lon="8.453504"><ele>9.0</ele><time>2026-05-02T15:14:23.957Z</time></trkpt><trkpt lat="44.2939829" lon="8.4535822"><ele>9.0</ele><time>2026-05-02T15:14:24.956Z</time></trkpt><trkpt lat="44.2940554" lon="8.4536721"><ele>9.0</ele><time>2026-05-02T15:14:25.956Z</time></trkpt><trkpt lat="44.2941302" lon="8.4537597"><ele>9.0</ele><time>2026-05-02T15:14:26.956Z</time></trkpt><trkpt lat="44.2941947" lon="8.4538516"><ele>9.0</ele><time>2026-05-02T15:14:27.956Z</time></trkpt><trkpt lat="44.2942577" lon="8.453935"><ele>9.0</ele><time>2026-05-02T15:14:28.957Z</time></trkpt><trkpt lat="44.2943226" lon="8.4540193"><ele>9.166666666666666</ele><time>2026-05-02T15:14:29.957Z</time></trkpt><trkpt lat="44.2943822" lon="8.4541131"><ele>9.333333333333334</ele><time>2026-05-02T15:14:30.957Z</time></trkpt><trkpt lat="44.2944425" lon="8.454205"><ele>9.5</ele><time>2026-05-02T15:14:31.956Z</time></trkpt><trkpt lat="44.2944993" lon="8.4542935"><ele>9.666666666666668</ele><time>2026-05-02T15:14:32.957Z</time></trkpt><trkpt lat="44.2945488" lon="8.4543835"><ele>9.833333333333334</ele><time>2026-05-02T15:14:33.957Z</time></trkpt><trkpt lat="44.2945841" lon="8.4544818"><ele>10.0</ele><time>2026-05-02T15:14:34.956Z</time></trkpt><trkpt lat="44.2946228" lon="8.454586"><ele>9.8</ele><time>2026-05-02T15:14:35.957Z</time></trkpt><trkpt lat="44.2946803" lon="8.4546914"><ele>9.6</ele><time>2026-05-02T15:14:36.957Z</time></trkpt><trkpt lat="44.2947407" lon="8.4547892"><ele>9.4</ele><time>2026-05-02T15:14:37.957Z</time></trkpt><trkpt lat="44.2948053" lon="8.4548876"><ele>9.2</ele><time>2026-05-02T15:14:38.956Z</time></trkpt><trkpt lat="44.294866" lon="8.4549841"><ele>9.0</ele><time>2026-05-02T15:14:39.957Z</time></trkpt><trkpt lat="44.2949269" lon="8.4550717"><ele>9.0</ele><time>2026-05-02T15:14:40.957Z</time></trkpt><trkpt lat="44.2949843" lon="8.4551569"><ele>9.0</ele><time>2026-05-02T15:14:41.957Z</time></trkpt><trkpt lat="44.2950403" lon="8.455234"><ele>9.0</ele><time>2026-05-02T15:14:42.957Z</time></trkpt><trkpt lat="44.2951053" lon="8.4552999"><ele>9.0</ele><time>2026-05-02T15:14:43.957Z</time></trkpt><trkpt lat="44.2951803" lon="8.4553588"><ele>9.0</ele><time>2026-05-02T15:14:44.957Z</time></trkpt><trkpt lat="44.2952536" lon="8.4554208"><ele>9.0</ele><time>2026-05-02T15:14:45.957Z</time></trkpt><trkpt lat="44.2953171" lon="8.4554966"><ele>8.8</ele><time>2026-05-02T15:14:46.957Z</time></trkpt><trkpt lat="44.2953854" lon="8.4556138"><ele>8.600000000000001</ele><time>2026-05-02T15:14:47.957Z</time></trkpt><trkpt lat="44.2954593" lon="8.455721"><ele>8.4</ele><time>2026-05-02T15:14:48.956Z</time></trkpt><trkpt lat="44.2955265" lon="8.4558482"><ele>8.200000000000001</ele><time>2026-05-02T15:14:49.957Z</time></trkpt><trkpt lat="44.2955958" lon="8.4559748"><ele>8.0</ele><time>2026-05-02T15:14:50.956Z</time></trkpt><trkpt lat="44.295669" lon="8.4560978"><ele>8.0</ele><time>2026-05-02T15:14:51.956Z</time></trkpt><trkpt lat="44.2957418" lon="8.4562208"><ele>8.0</ele><time>2026-05-02T15:14:52.958Z</time></trkpt><trkpt lat="44.2958151" lon="8.4563416"><ele>8.0</ele><time>2026-05-02T15:14:53.956Z</time></trkpt><trkpt lat="44.2958896" lon="8.4564697"><ele>8.0</ele><time>2026-05-02T15:14:54.956Z</time></trkpt><trkpt lat="44.295961" lon="8.4565931"><ele>8.0</ele><time>2026-05-02T15:14:55.958Z</time></trkpt><trkpt lat="44.2960387" lon="8.4567055"><ele>8.0</ele><time>2026-05-02T15:14:56.957Z</time></trkpt><trkpt lat="44.2961104" lon="8.4568215"><ele>8.0</ele><time>2026-05-02T15:14:57.956Z</time></trkpt><trkpt lat="44.2961745" lon="8.4569295"><ele>8.0</ele><time>2026-05-02T15:14:58.956Z</time></trkpt><trkpt lat="44.2962395" lon="8.4570401"><ele>8.0</ele><time>2026-05-02T15:14:59.958Z</time></trkpt><trkpt lat="44.2963066" lon="8.4571548"><ele>8.0</ele><time>2026-05-02T15:15:00.957Z</time></trkpt><trkpt lat="44.2963755" lon="8.4572715"><ele>8.0</ele><time>2026-05-02T15:15:01.956Z</time></trkpt><trkpt lat="44.2964455" lon="8.4573898"><ele>8.0</ele><time>2026-05-02T15:15:02.957Z</time></trkpt><trkpt lat="44.2965184" lon="8.4575081"><ele>8.0</ele><time>2026-05-02T15:15:03.956Z</time></trkpt><trkpt lat="44.2965909" lon="8.4576213"><ele>8.0</ele><time>2026-05-02T15:15:04.956Z</time></trkpt><trkpt lat="44.2966552" lon="8.4577264"><ele>8.0</ele><time>2026-05-02T15:15:05.957Z</time></trkpt><trkpt lat="44.2967201" lon="8.4578478"><ele>8.0</ele><time>2026-05-02T15:15:06.956Z</time></trkpt><trkpt lat="44.2967902" lon="8.4579678"><ele>8.0</ele><time>2026-05-02T15:15:07.957Z</time></trkpt><trkpt lat="44.2968693" lon="8.4580845"><ele>8.0</ele><time>2026-05-02T15:15:08.957Z</time></trkpt><trkpt lat="44.2969406" lon="8.4582136"><ele>8.5</ele><time>2026-05-02T15:15:09.956Z</time></trkpt><trkpt lat="44.2970183" lon="8.4583243"><ele>9.0</ele><time>2026-05-02T15:15:10.959Z</time></trkpt><trkpt lat="44.2970918" lon="8.4584585"><ele>9.5</ele><time>2026-05-02T15:15:11.958Z</time></trkpt><trkpt lat="44.2971648" lon="8.4585847"><ele>10.0</ele><time>2026-05-02T15:15:12.956Z</time></trkpt><trkpt lat="44.297236" lon="8.4587127"><ele>9.75</ele><time>2026-05-02T15:15:13.958Z</time></trkpt><trkpt lat="44.2973103" lon="8.4588423"><ele>9.5</ele><time>2026-05-02T15:15:14.957Z</time></trkpt><trkpt lat="44.2973879" lon="8.4589642"><ele>9.25</ele><time>2026-05-02T15:15:15.958Z</time></trkpt><trkpt lat="44.297465" lon="8.4591018"><ele>9.0</ele><time>2026-05-02T15:15:16.957Z</time></trkpt><trkpt lat="44.2975398" lon="8.4592457"><ele>9.0</ele><time>2026-05-02T15:15:17.957Z</time></trkpt><trkpt lat="44.2976151" lon="8.4593828"><ele>9.0</ele><time>2026-05-02T15:15:18.956Z</time></trkpt><trkpt lat="44.2976842" lon="8.4595184"><ele>9.0</ele><time>2026-05-02T15:15:19.956Z</time></trkpt><trkpt lat="44.2977513" lon="8.4596553"><ele>9.0</ele><time>2026-05-02T15:15:20.956Z</time></trkpt><trkpt lat="44.2978206" lon="8.4597905"><ele>9.0</ele><time>2026-05-02T15:15:21.958Z</time></trkpt><trkpt lat="44.2978895" lon="8.4599351"><ele>9.0</ele><time>2026-05-02T15:15:22.957Z</time></trkpt><trkpt lat="44.2979578" lon="8.4600743"><ele>9.0</ele><time>2026-05-02T15:15:23.956Z</time></trkpt><trkpt lat="44.2980251" lon="8.4602232"><ele>9.0</ele><time>2026-05-02T15:15:24.957Z</time></trkpt><trkpt lat="44.2980959" lon="8.4603744"><ele>9.0</ele><time>2026-05-02T15:15:25.956Z</time></trkpt><trkpt lat="44.2981585" lon="8.4605289"><ele>9.0</ele><time>2026-05-02T15:15:26.957Z</time></trkpt><trkpt lat="44.2982168" lon="8.4606837"><ele>9.0</ele><time>2026-05-02T15:15:27.957Z</time></trkpt><trkpt lat="44.2982718" lon="8.4608369"><ele>9.0</ele><time>2026-05-02T15:15:28.956Z</time></trkpt><trkpt lat="44.2983291" lon="8.4609895"><ele>9.0</ele><time>2026-05-02T15:15:29.957Z</time></trkpt><trkpt lat="44.2983826" lon="8.4611335"><ele>9.0</ele><time>2026-05-02T15:15:30.957Z</time></trkpt><trkpt lat="44.2984305" lon="8.4612793"><ele>9.0</ele><time>2026-05-02T15:15:31.956Z</time></trkpt><trkpt lat="44.2984798" lon="8.4614144"><ele>9.0</ele><time>2026-05-02T15:15:32.956Z</time></trkpt><trkpt lat="44.2985276" lon="8.4615479"><ele>9.0</ele><time>2026-05-02T15:15:33.957Z</time></trkpt><trkpt lat="44.2985723" lon="8.4616891"><ele>9.0</ele><time>2026-05-02T15:15:34.959Z</time></trkpt><trkpt lat="44.2986128" lon="8.4618257"><ele>9.0</ele><time>2026-05-02T15:15:35.957Z</time></trkpt><trkpt lat="44.2986539" lon="8.4619474"><ele>9.0</ele><time>2026-05-02T15:15:36.958Z</time></trkpt><trkpt lat="44.2986845" lon="8.4620591"><ele>9.0</ele><time>2026-05-02T15:15:37.957Z</time></trkpt><trkpt lat="44.2987104" lon="8.462163"><ele>9.0</ele><time>2026-05-02T15:15:38.957Z</time></trkpt><trkpt lat="44.2987369" lon="8.4622532"><ele>9.0</ele><time>2026-05-02T15:15:39.957Z</time></trkpt><trkpt lat="44.2987557" lon="8.4623457"><ele>9.0</ele><time>2026-05-02T15:15:40.956Z</time></trkpt><trkpt lat="44.2987668" lon="8.4624524"><ele>9.0</ele><time>2026-05-02T15:15:41.956Z</time></trkpt><trkpt lat="44.2987606" lon="8.4625775"><ele>9.0</ele><time>2026-05-02T15:15:42.956Z</time></trkpt><trkpt lat="44.2987343" lon="8.462701"><ele>9.0</ele><time>2026-05-02T15:15:43.957Z</time></trkpt><trkpt lat="44.2987061" lon="8.4628191"><ele>9.0</ele><time>2026-05-02T15:15:44.957Z</time></trkpt><trkpt lat="44.2986816" lon="8.4629329"><ele>9.0</ele><time>2026-05-02T15:15:45.957Z</time></trkpt><trkpt lat="44.2986748" lon="8.4630504"><ele>8.75</ele><time>2026-05-02T15:15:46.957Z</time></trkpt><trkpt lat="44.298696" lon="8.4631721"><ele>8.5</ele><time>2026-05-02T15:15:47.957Z</time></trkpt><trkpt lat="44.2987334" lon="8.4632949"><ele>8.25</ele><time>2026-05-02T15:15:48.957Z</time></trkpt><trkpt lat="44.2988256" lon="8.4634521"><ele>8.0</ele><time>2026-05-02T15:15:49.957Z</time></trkpt><trkpt lat="44.2989327" lon="8.4636363"><ele>8.0</ele><time>2026-05-02T15:15:50.958Z</time></trkpt><trkpt lat="44.2990599" lon="8.4638546"><ele>8.0</ele><time>2026-05-02T15:15:51.958Z</time></trkpt><trkpt lat="44.2991963" lon="8.4640969"><ele>8.0</ele><time>2026-05-02T15:15:52.956Z</time></trkpt><trkpt lat="44.2993368" lon="8.4643471"><ele>8.0</ele><time>2026-05-02T15:15:53.958Z</time></trkpt><trkpt lat="44.2994675" lon="8.4645772"><ele>8.0</ele><time>2026-05-02T15:15:54.957Z</time></trkpt><trkpt lat="44.2995881" lon="8.4647977"><ele>8.0</ele><time>2026-05-02T15:15:55.958Z</time></trkpt><trkpt lat="44.2997004" lon="8.4650098"><ele>8.333333333333332</ele><time>2026-05-02T15:15:56.956Z</time></trkpt><trkpt lat="44.2998101" lon="8.4652003"><ele>8.666666666666666</ele><time>2026-05-02T15:15:57.957Z</time></trkpt><trkpt lat="44.2999204" lon="8.4653788"><ele>9.0</ele><time>2026-05-02T15:15:58.956Z</time></trkpt><trkpt lat="44.3000295" lon="8.4655403"><ele>9.0</ele><time>2026-05-02T15:15:59.956Z</time></trkpt><trkpt lat="44.3001375" lon="8.4657018"><ele>9.0</ele><time>2026-05-02T15:16:00.957Z</time></trkpt><trkpt lat="44.3002416" lon="8.4658596"><ele>9.0</ele><time>2026-05-02T15:16:01.958Z</time></trkpt><trkpt lat="44.3003455" lon="8.4660168"><ele>9.0</ele><time>2026-05-02T15:16:02.957Z</time></trkpt><trkpt lat="44.3004493" lon="8.4661716"><ele>9.0</ele><time>2026-05-02T15:16:03.958Z</time></trkpt><trkpt lat="44.3005531" lon="8.4663275"><ele>9.0</ele><time>2026-05-02T15:16:04.957Z</time></trkpt><trkpt lat="44.3006531" lon="8.4664819"><ele>9.25</ele><time>2026-05-02T15:16:05.957Z</time></trkpt><trkpt lat="44.3007442" lon="8.4666409"><ele>9.5</ele><time>2026-05-02T15:16:06.957Z</time></trkpt><trkpt lat="44.3008282" lon="8.4668005"><ele>9.75</ele><time>2026-05-02T15:16:07.958Z</time></trkpt><trkpt lat="44.3009053" lon="8.4669489"><ele>10.0</ele><time>2026-05-02T15:16:08.957Z</time></trkpt><trkpt lat="44.30098" lon="8.4670893"><ele>10.2</ele><time>2026-05-02T15:16:09.956Z</time></trkpt><trkpt lat="44.3010484" lon="8.4672283"><ele>10.4</ele><time>2026-05-02T15:16:10.957Z</time></trkpt><trkpt lat="44.3011133" lon="8.4673519"><ele>10.600000000000001</ele><time>2026-05-02T15:16:11.956Z</time></trkpt><trkpt lat="44.3011793" lon="8.4674746"><ele>10.8</ele><time>2026-05-02T15:16:12.957Z</time></trkpt><trkpt lat="44.3012433" lon="8.4675948"><ele>11.0</ele><time>2026-05-02T15:16:13.956Z</time></trkpt><trkpt lat="44.3013155" lon="8.4677107"><ele>11.0</ele><time>2026-05-02T15:16:14.958Z</time></trkpt><trkpt lat="44.3013883" lon="8.4678379"><ele>11.0</ele><time>2026-05-02T15:16:15.957Z</time></trkpt><trkpt lat="44.3014566" lon="8.4679618"><ele>11.0</ele><time>2026-05-02T15:16:16.956Z</time></trkpt><trkpt lat="44.3015279" lon="8.4680842"><ele>11.0</ele><time>2026-05-02T15:16:17.957Z</time></trkpt><trkpt lat="44.3015898" lon="8.4682"><ele>11.0</ele><time>2026-05-02T15:16:18.956Z</time></trkpt><trkpt lat="44.3016544" lon="8.4683138"><ele>11.0</ele><time>2026-05-02T15:16:19.957Z</time></trkpt><trkpt lat="44.3017169" lon="8.4684307"><ele>11.0</ele><time>2026-05-02T15:16:20.957Z</time></trkpt><trkpt lat="44.301784" lon="8.468531"><ele>11.0</ele><time>2026-05-02T15:16:21.957Z</time></trkpt><trkpt lat="44.3018504" lon="8.4686167"><ele>11.0</ele><time>2026-05-02T15:16:22.956Z</time></trkpt><trkpt lat="44.3019297" lon="8.4686918"><ele>11.0</ele><time>2026-05-02T15:16:23.957Z</time></trkpt><trkpt lat="44.3020089" lon="8.468745"><ele>11.0</ele><time>2026-05-02T15:16:24.956Z</time></trkpt><trkpt lat="44.3020882" lon="8.4687867"><ele>11.0</ele><time>2026-05-02T15:16:25.956Z</time></trkpt><trkpt lat="44.3021611" lon="8.4688288"><ele>11.0</ele><time>2026-05-02T15:16:26.957Z</time></trkpt><trkpt lat="44.302232" lon="8.4688548"><ele>11.0</ele><time>2026-05-02T15:16:27.957Z</time></trkpt><trkpt lat="44.3023045" lon="8.4688816"><ele>11.0</ele><time>2026-05-02T15:16:28.958Z</time></trkpt><trkpt lat="44.3023666" lon="8.4689036"><ele>11.0</ele><time>2026-05-02T15:16:29.957Z</time></trkpt><trkpt lat="44.3024815" lon="8.4689409"><ele>11.0</ele><time>2026-05-02T15:16:31.957Z</time></trkpt><trkpt lat="44.3025573" lon="8.4689745"><ele>11.0</ele><time>2026-05-02T15:16:33.956Z</time></trkpt><trkpt lat="44.3026242" lon="8.4690229"><ele>11.0</ele><time>2026-05-02T15:16:37.957Z</time></trkpt><trkpt lat="44.3026537" lon="8.4691689"><ele>11.0</ele><time>2026-05-02T15:16:39.957Z</time></trkpt><trkpt lat="44.3026572" lon="8.4692654"><ele>11.0</ele><time>2026-05-02T15:16:40.958Z</time></trkpt><trkpt lat="44.3026305" lon="8.4694479"><ele>11.0</ele><time>2026-05-02T15:16:42.956Z</time></trkpt><trkpt lat="44.3026185" lon="8.4695377"><ele>11.0</ele><time>2026-05-02T15:16:43.956Z</time></trkpt><trkpt lat="44.3026113" lon="8.4696741"><ele>11.0</ele><time>2026-05-02T15:16:45.957Z</time></trkpt><trkpt lat="44.3025898" lon="8.4697834"><ele>11.0</ele><time>2026-05-02T15:16:47.957Z</time></trkpt><trkpt lat="44.3025331" lon="8.4698301"><ele>11.0</ele><time>2026-05-02T15:16:49.957Z</time></trkpt><trkpt lat="44.3025078" lon="8.469743"><ele>11.0</ele><time>2026-05-02T15:16:53.956Z</time></trkpt><trkpt lat="44.3025378" lon="8.4696323"><ele>11.0</ele><time>2026-05-02T15:16:55.956Z</time></trkpt><trkpt lat="44.3024987" lon="8.4695209"><ele>11.0</ele><time>2026-05-02T15:16:57.957Z</time></trkpt><trkpt lat="44.3024089" lon="8.4694693"><ele>11.0</ele><time>2026-05-02T15:16:59.956Z</time></trkpt><trkpt lat="44.302323" lon="8.4694419"><ele>11.0</ele><time>2026-05-02T15:17:01.957Z</time></trkpt><trkpt lat="44.3022476" lon="8.4694246"><ele>11.0</ele><time>2026-05-02T15:17:03.956Z</time></trkpt><trkpt lat="44.3021839" lon="8.4694484"><ele>11.0</ele><time>2026-05-02T15:17:06.958Z</time></trkpt><trkpt lat="44.3022177" lon="8.4695252"><ele>11.0</ele><time>2026-05-02T15:18:32.958Z</time></trkpt><trkpt lat="44.3022888" lon="8.4695157"><ele>11.0</ele><time>2026-05-02T15:19:01.956Z</time></trkpt><trkpt lat="44.3022252" lon="8.4695074"><ele>11.0</ele><time>2026-05-02T15:19:25.957Z</time></trkpt><trkpt lat="44.302173" lon="8.469455"><ele>11.0</ele><time>2026-05-02T15:19:35.958Z</time></trkpt><trkpt lat="44.3021559" lon="8.4695422"><ele>11.0</ele><time>2026-05-02T15:23:35.955Z</time></trkpt><trkpt lat="44.3022284" lon="8.4696427"><ele>11.0</ele><time>2026-05-02T15:26:44.956Z</time></trkpt><trkpt lat="44.302163" lon="8.469616"><ele>11.0</ele><time>2026-05-02T15:27:15.944Z</time></trkpt><trkpt lat="44.3022374" lon="8.4696475"><ele>11.428571428571429</ele><time>2026-05-02T15:29:16.955Z</time></trkpt><trkpt lat="44.3023014" lon="8.4696496"><ele>11.857142857142858</ele><time>2026-05-02T15:29:18.955Z</time></trkpt><trkpt lat="44.3023644" lon="8.4696758"><ele>12.285714285714285</ele><time>2026-05-02T15:29:20.954Z</time></trkpt><trkpt lat="44.3024549" lon="8.4696959"><ele>12.714285714285715</ele><time>2026-05-02T15:29:23.955Z</time></trkpt><trkpt lat="44.3025073" lon="8.4697486"><ele>13.142857142857142</ele><time>2026-05-02T15:29:25.956Z</time></trkpt><trkpt lat="44.3024962" lon="8.4698476"><ele>13.571428571428571</ele><time>2026-05-02T15:29:27.954Z</time></trkpt><trkpt lat="44.302496" lon="8.4699376"><ele>14.0</ele><time>2026-05-02T15:29:29.954Z</time></trkpt><trkpt lat="44.3024784" lon="8.470038"><ele>14.000000000000002</ele><time>2026-05-02T15:29:32.954Z</time></trkpt><trkpt lat="44.3024136" lon="8.4701183"><ele>14.0</ele><time>2026-05-02T15:29:35.941Z</time></trkpt><trkpt lat="44.3024517" lon="8.4701926"><ele>14.0</ele><time>2026-05-02T15:29:42.954Z</time></trkpt><trkpt lat="44.3025188" lon="8.4702332"><ele>14.0</ele><time>2026-05-02T15:30:19.955Z</time></trkpt><trkpt lat="44.3025963" lon="8.4702683"><ele>14.000000000000002</ele><time>2026-05-02T15:30:20.954Z</time></trkpt><trkpt lat="44.302706" lon="8.470229"><ele>14.0</ele><time>2026-05-02T15:30:22.954Z</time></trkpt><trkpt lat="44.302772" lon="8.4701866"><ele>14.000000000000002</ele><time>2026-05-02T15:30:23.955Z</time></trkpt><trkpt lat="44.3028457" lon="8.470154"><ele>14.0</ele><time>2026-05-02T15:30:24.956Z</time></trkpt><trkpt lat="44.3029247" lon="8.4701494"><ele>14.0</ele><time>2026-05-02T15:30:25.955Z</time></trkpt><trkpt lat="44.3030093" lon="8.470167"><ele>14.0</ele><time>2026-05-02T15:30:26.954Z</time></trkpt><trkpt lat="44.3031014" lon="8.470194"><ele>14.000000000000002</ele><time>2026-05-02T15:30:27.954Z</time></trkpt><trkpt lat="44.3032024" lon="8.4702208"><ele>14.0</ele><time>2026-05-02T15:30:28.955Z</time></trkpt><trkpt lat="44.3033039" lon="8.4702497"><ele>14.399999999999999</ele><time>2026-05-02T15:30:29.954Z</time></trkpt><trkpt lat="44.3034124" lon="8.4702821"><ele>14.799999999999999</ele><time>2026-05-02T15:30:30.954Z</time></trkpt><trkpt lat="44.3035203" lon="8.4703159"><ele>15.200000000000001</ele><time>2026-05-02T15:30:31.954Z</time></trkpt><trkpt lat="44.3036202" lon="8.4703458"><ele>15.600000000000001</ele><time>2026-05-02T15:30:32.955Z</time></trkpt><trkpt lat="44.3037214" lon="8.4703724"><ele>16.0</ele><time>2026-05-02T15:30:33.955Z</time></trkpt><trkpt lat="44.3038181" lon="8.4704016"><ele>16.0</ele><time>2026-05-02T15:30:34.955Z</time></trkpt><trkpt lat="44.3039105" lon="8.4704334"><ele>16.0</ele><time>2026-05-02T15:30:35.954Z</time></trkpt><trkpt lat="44.3039973" lon="8.4704656"><ele>16.0</ele><time>2026-05-02T15:30:36.954Z</time></trkpt><trkpt lat="44.3040785" lon="8.4704842"><ele>16.0</ele><time>2026-05-02T15:30:37.956Z</time></trkpt><trkpt lat="44.3041551" lon="8.4705202"><ele>16.0</ele><time>2026-05-02T15:30:38.953Z</time></trkpt><trkpt lat="44.304275" lon="8.4705738"><ele>15.999999999999998</ele><time>2026-05-02T15:30:40.954Z</time></trkpt><trkpt lat="44.3043269" lon="8.4706255"><ele>16.0</ele><time>2026-05-02T15:30:41.954Z</time></trkpt><trkpt lat="44.3044454" lon="8.4706839"><ele>16.0</ele><time>2026-05-02T15:30:43.955Z</time></trkpt><trkpt lat="44.3045109" lon="8.4706876"><ele>16.0</ele><time>2026-05-02T15:30:44.954Z</time></trkpt><trkpt lat="44.3045944" lon="8.4706873"><ele>15.999999999999998</ele><time>2026-05-02T15:30:45.956Z</time></trkpt><trkpt lat="44.3046718" lon="8.4706992"><ele>16.0</ele><time>2026-05-02T15:30:46.954Z</time></trkpt><trkpt lat="44.3047674" lon="8.4707209"><ele>16.0</ele><time>2026-05-02T15:30:47.954Z</time></trkpt><trkpt lat="44.304865" lon="8.4707455"><ele>16.0</ele><time>2026-05-02T15:30:48.954Z</time></trkpt><trkpt lat="44.3049564" lon="8.470769"><ele>16.0</ele><time>2026-05-02T15:30:49.956Z</time></trkpt><trkpt lat="44.3050543" lon="8.4707953"><ele>16.0</ele><time>2026-05-02T15:30:50.954Z</time></trkpt><trkpt lat="44.3051431" lon="8.4708194"><ele>16.0</ele><time>2026-05-02T15:30:51.954Z</time></trkpt><trkpt lat="44.3052137" lon="8.4708392"><ele>15.999999999999998</ele><time>2026-05-02T15:30:52.953Z</time></trkpt><trkpt lat="44.3052872" lon="8.4708488"><ele>16.0</ele><time>2026-05-02T15:30:54.954Z</time></trkpt><trkpt lat="44.3053604" lon="8.4708518"><ele>16.0</ele><time>2026-05-02T15:30:56.954Z</time></trkpt><trkpt lat="44.3054242" lon="8.4708508"><ele>16.0</ele><time>2026-05-02T15:30:57.955Z</time></trkpt><trkpt lat="44.3055047" lon="8.4708533"><ele>15.999999999999998</ele><time>2026-05-02T15:30:58.954Z</time></trkpt><trkpt lat="44.3055932" lon="8.4708601"><ele>16.0</ele><time>2026-05-02T15:30:59.955Z</time></trkpt><trkpt lat="44.3056879" lon="8.4708725"><ele>16.0</ele><time>2026-05-02T15:31:00.954Z</time></trkpt><trkpt lat="44.3057866" lon="8.4708819"><ele>16.0</ele><time>2026-05-02T15:31:01.955Z</time></trkpt><trkpt lat="44.3058786" lon="8.4708873"><ele>16.0</ele><time>2026-05-02T15:31:02.955Z</time></trkpt><trkpt lat="44.3059677" lon="8.470912"><ele>16.0</ele><time>2026-05-02T15:31:03.955Z</time></trkpt><trkpt lat="44.3060491" lon="8.4709604"><ele>16.0</ele><time>2026-05-02T15:31:04.955Z</time></trkpt><trkpt lat="44.306121" lon="8.4710352"><ele>16.0</ele><time>2026-05-02T15:31:05.954Z</time></trkpt><trkpt lat="44.3061922" lon="8.4711344"><ele>16.0</ele><time>2026-05-02T15:31:06.955Z</time></trkpt><trkpt lat="44.3062502" lon="8.4712521"><ele>16.0</ele><time>2026-05-02T15:31:07.954Z</time></trkpt><trkpt lat="44.3063105" lon="8.4713662"><ele>16.0</ele><time>2026-05-02T15:31:08.954Z</time></trkpt><trkpt lat="44.3063748" lon="8.4714766"><ele>16.0</ele><time>2026-05-02T15:31:09.954Z</time></trkpt><trkpt lat="44.3064446" lon="8.4715663"><ele>14.8</ele><time>2026-05-02T15:31:10.956Z</time></trkpt><trkpt lat="44.3065186" lon="8.471644"><ele>13.600000000000001</ele><time>2026-05-02T15:31:11.954Z</time></trkpt><trkpt lat="44.3066048" lon="8.4717044"><ele>12.4</ele><time>2026-05-02T15:31:12.954Z</time></trkpt><trkpt lat="44.3066948" lon="8.4717291"><ele>11.2</ele><time>2026-05-02T15:31:13.956Z</time></trkpt><trkpt lat="44.3067898" lon="8.4717313"><ele>10.0</ele><time>2026-05-02T15:31:14.955Z</time></trkpt><trkpt lat="44.306894" lon="8.4717152"><ele>10.0</ele><time>2026-05-02T15:31:15.955Z</time></trkpt><trkpt lat="44.3069924" lon="8.4716766"><ele>10.0</ele><time>2026-05-02T15:31:16.955Z</time></trkpt><trkpt lat="44.3070834" lon="8.471634"><ele>10.0</ele><time>2026-05-02T15:31:17.955Z</time></trkpt><trkpt lat="44.3071743" lon="8.4715875"><ele>10.0</ele><time>2026-05-02T15:31:18.954Z</time></trkpt><trkpt lat="44.3072679" lon="8.4715518"><ele>10.0</ele><time>2026-05-02T15:31:19.955Z</time></trkpt><trkpt lat="44.3073606" lon="8.4715163"><ele>10.0</ele><time>2026-05-02T15:31:20.955Z</time></trkpt><trkpt lat="44.3074515" lon="8.4714733"><ele>10.0</ele><time>2026-05-02T15:31:21.955Z</time></trkpt><trkpt lat="44.3075554" lon="8.4714381"><ele>10.0</ele><time>2026-05-02T15:31:22.955Z</time></trkpt><trkpt lat="44.3076737" lon="8.4713963"><ele>10.0</ele><time>2026-05-02T15:31:23.953Z</time></trkpt><trkpt lat="44.3077953" lon="8.4713501"><ele>10.0</ele><time>2026-05-02T15:31:24.954Z</time></trkpt><trkpt lat="44.3079041" lon="8.4713153"><ele>10.0</ele><time>2026-05-02T15:31:25.955Z</time></trkpt><trkpt lat="44.3080055" lon="8.4712792"><ele>10.0</ele><time>2026-05-02T15:31:26.954Z</time></trkpt><trkpt lat="44.3080985" lon="8.4712414"><ele>10.0</ele><time>2026-05-02T15:31:27.954Z</time></trkpt><trkpt lat="44.3081743" lon="8.4712122"><ele>10.0</ele><time>2026-05-02T15:31:28.953Z</time></trkpt><trkpt lat="44.3082416" lon="8.4711896"><ele>10.666666666666668</ele><time>2026-05-02T15:31:29.955Z</time></trkpt><trkpt lat="44.308317" lon="8.4711645"><ele>11.333333333333334</ele><time>2026-05-02T15:31:30.954Z</time></trkpt><trkpt lat="44.3083853" lon="8.4711333"><ele>12.0</ele><time>2026-05-02T15:31:31.954Z</time></trkpt><trkpt lat="44.3084594" lon="8.4711163"><ele>12.666666666666668</ele><time>2026-05-02T15:31:32.954Z</time></trkpt><trkpt lat="44.3085241" lon="8.4711145"><ele>13.333333333333334</ele><time>2026-05-02T15:31:33.955Z</time></trkpt><trkpt lat="44.3086533" lon="8.4711537"><ele>14.0</ele><time>2026-05-02T15:31:35.953Z</time></trkpt><trkpt lat="44.3087189" lon="8.4712005"><ele>14.0</ele><time>2026-05-02T15:31:36.956Z</time></trkpt><trkpt lat="44.3087815" lon="8.4712728"><ele>13.999999999999998</ele><time>2026-05-02T15:31:37.954Z</time></trkpt><trkpt lat="44.3088464" lon="8.4714479"><ele>13.999999999999998</ele><time>2026-05-02T15:31:39.954Z</time></trkpt><trkpt lat="44.3088703" lon="8.4715642"><ele>14.0</ele><time>2026-05-02T15:31:40.956Z</time></trkpt><trkpt lat="44.3088898" lon="8.4716891"><ele>14.0</ele><time>2026-05-02T15:31:41.956Z</time></trkpt><trkpt lat="44.3089142" lon="8.4718178"><ele>15.333333333333334</ele><time>2026-05-02T15:31:42.955Z</time></trkpt><trkpt lat="44.3089285" lon="8.4719327"><ele>16.666666666666668</ele><time>2026-05-02T15:31:43.955Z</time></trkpt><trkpt lat="44.3089473" lon="8.4720527"><ele>18.0</ele><time>2026-05-02T15:31:44.955Z</time></trkpt><trkpt lat="44.3089648" lon="8.4721668"><ele>19.333333333333332</ele><time>2026-05-02T15:31:45.953Z</time></trkpt><trkpt lat="44.3089771" lon="8.4722694"><ele>20.666666666666664</ele><time>2026-05-02T15:31:46.955Z</time></trkpt><trkpt lat="44.3089915" lon="8.472384"><ele>22.0</ele><time>2026-05-02T15:31:47.954Z</time></trkpt><trkpt lat="44.3090092" lon="8.4725081"><ele>22.0</ele><time>2026-05-02T15:31:48.955Z</time></trkpt><trkpt lat="44.3090293" lon="8.4726222"><ele>22.0</ele><time>2026-05-02T15:31:49.954Z</time></trkpt><trkpt lat="44.3090385" lon="8.4727484"><ele>22.0</ele><time>2026-05-02T15:31:50.955Z</time></trkpt><trkpt lat="44.309049" lon="8.4728637"><ele>22.0</ele><time>2026-05-02T15:31:51.955Z</time></trkpt><trkpt lat="44.3090617" lon="8.4729741"><ele>22.0</ele><time>2026-05-02T15:31:52.954Z</time></trkpt><trkpt lat="44.3090781" lon="8.4730708"><ele>22.0</ele><time>2026-05-02T15:31:53.953Z</time></trkpt><trkpt lat="44.3090944" lon="8.4731732"><ele>22.0</ele><time>2026-05-02T15:31:54.954Z</time></trkpt><trkpt lat="44.3091067" lon="8.4732743"><ele>22.0</ele><time>2026-05-02T15:31:55.954Z</time></trkpt><trkpt lat="44.3091216" lon="8.4733663"><ele>22.0</ele><time>2026-05-02T15:31:56.956Z</time></trkpt><trkpt lat="44.3091438" lon="8.4734515"><ele>22.0</ele><time>2026-05-02T15:31:57.956Z</time></trkpt><trkpt lat="44.3091724" lon="8.4736049"><ele>22.0</ele><time>2026-05-02T15:31:59.954Z</time></trkpt><trkpt lat="44.3091852" lon="8.4737076"><ele>22.0</ele><time>2026-05-02T15:32:01.954Z</time></trkpt><trkpt lat="44.3092117" lon="8.4738002"><ele>21.200000000000003</ele><time>2026-05-02T15:32:07.954Z</time></trkpt><trkpt lat="44.3092338" lon="8.4739162"><ele>20.400000000000002</ele><time>2026-05-02T15:32:10.954Z</time></trkpt><trkpt lat="44.309254" lon="8.4740314"><ele>19.6</ele><time>2026-05-02T15:32:13.956Z</time></trkpt><trkpt lat="44.309274" lon="8.4741586"><ele>18.8</ele><time>2026-05-02T15:32:16.955Z</time></trkpt><trkpt lat="44.3092834" lon="8.4742924"><ele>18.0</ele><time>2026-05-02T15:32:18.953Z</time></trkpt><trkpt lat="44.3092854" lon="8.4744389"><ele>16.833333333333332</ele><time>2026-05-02T15:32:20.954Z</time></trkpt><trkpt lat="44.3093262" lon="8.4746055"><ele>15.666666666666666</ele><time>2026-05-02T15:32:22.954Z</time></trkpt><trkpt lat="44.3093436" lon="8.4747033"><ele>14.5</ele><time>2026-05-02T15:32:23.953Z</time></trkpt><trkpt lat="44.3093666" lon="8.4748102"><ele>13.333333333333332</ele><time>2026-05-02T15:32:24.954Z</time></trkpt><trkpt lat="44.3093757" lon="8.4748987"><ele>12.166666666666666</ele><time>2026-05-02T15:32:25.954Z</time></trkpt><trkpt lat="44.3093898" lon="8.4750068"><ele>11.0</ele><time>2026-05-02T15:32:26.955Z</time></trkpt><trkpt lat="44.3094038" lon="8.4750986"><ele>11.0</ele><time>2026-05-02T15:32:27.955Z</time></trkpt><trkpt lat="44.3094594" lon="8.4752157"><ele>11.0</ele><time>2026-05-02T15:32:29.953Z</time></trkpt><trkpt lat="44.3095529" lon="8.4752303"><ele>11.0</ele><time>2026-05-02T15:32:31.955Z</time></trkpt><trkpt lat="44.309665" lon="8.4751989"><ele>11.0</ele><time>2026-05-02T15:32:33.954Z</time></trkpt><trkpt lat="44.30977" lon="8.4751569"><ele>11.0</ele><time>2026-05-02T15:32:35.953Z</time></trkpt><trkpt lat="44.3098534" lon="8.4751596"><ele>10.8</ele><time>2026-05-02T15:32:37.953Z</time></trkpt><trkpt lat="44.3099096" lon="8.4752579"><ele>10.600000000000001</ele><time>2026-05-02T15:32:39.954Z</time></trkpt><trkpt lat="44.309926" lon="8.4754029"><ele>10.4</ele><time>2026-05-02T15:32:41.953Z</time></trkpt><trkpt lat="44.3099564" lon="8.4755631"><ele>10.2</ele><time>2026-05-02T15:32:43.954Z</time></trkpt><trkpt lat="44.3099776" lon="8.4756543"><ele>10.0</ele><time>2026-05-02T15:32:44.954Z</time></trkpt><trkpt lat="44.3099966" lon="8.4757463"><ele>10.333333333333334</ele><time>2026-05-02T15:32:45.953Z</time></trkpt><trkpt lat="44.3100183" lon="8.475834"><ele>10.666666666666668</ele><time>2026-05-02T15:32:46.955Z</time></trkpt><trkpt lat="44.3100382" lon="8.4759263"><ele>11.0</ele><time>2026-05-02T15:32:47.955Z</time></trkpt><trkpt lat="44.3100655" lon="8.4760692"><ele>11.333333333333334</ele><time>2026-05-02T15:32:49.953Z</time></trkpt><trkpt lat="44.310098" lon="8.4762143"><ele>11.666666666666666</ele><time>2026-05-02T15:32:51.955Z</time></trkpt><trkpt lat="44.3101142" lon="8.4763428"><ele>12.0</ele><time>2026-05-02T15:32:53.955Z</time></trkpt><trkpt lat="44.3101535" lon="8.4765124"><ele>13.0</ele><time>2026-05-02T15:32:55.954Z</time></trkpt><trkpt lat="44.3101715" lon="8.4765974"><ele>14.0</ele><time>2026-05-02T15:32:56.954Z</time></trkpt><trkpt lat="44.3102036" lon="8.4767583"><ele>15.0</ele><time>2026-05-02T15:32:58.954Z</time></trkpt><trkpt lat="44.3102283" lon="8.4769069"><ele>16.0</ele><time>2026-05-02T15:33:00.954Z</time></trkpt><trkpt lat="44.3102918" lon="8.4770173"><ele>17.0</ele><time>2026-05-02T15:33:02.953Z</time></trkpt><trkpt lat="44.3103587" lon="8.477012"><ele>17.0</ele><time>2026-05-02T15:33:03.954Z</time></trkpt><trkpt lat="44.3104694" lon="8.47698"><ele>17.0</ele><time>2026-05-02T15:33:05.953Z</time></trkpt><trkpt lat="44.3105699" lon="8.4768994"><ele>17.0</ele><time>2026-05-02T15:33:07.954Z</time></trkpt><trkpt lat="44.3106532" lon="8.4768193"><ele>17.0</ele><time>2026-05-02T15:33:09.953Z</time></trkpt><trkpt lat="44.3107239" lon="8.4767644"><ele>17.0</ele><time>2026-05-02T15:33:11.953Z</time></trkpt><trkpt lat="44.3107946" lon="8.4767232"><ele>17.166666666666668</ele><time>2026-05-02T15:33:13.953Z</time></trkpt><trkpt lat="44.3108584" lon="8.4767164"><ele>17.333333333333336</ele><time>2026-05-02T15:33:15.953Z</time></trkpt><trkpt lat="44.3109161" lon="8.4767988"><ele>17.5</ele><time>2026-05-02T15:33:17.954Z</time></trkpt><trkpt lat="44.3109643" lon="8.4769084"><ele>17.666666666666668</ele><time>2026-05-02T15:33:19.954Z</time></trkpt><trkpt lat="44.311005" lon="8.4770168"><ele>17.833333333333332</ele><time>2026-05-02T15:33:21.953Z</time></trkpt><trkpt lat="44.3110415" lon="8.4770942"><ele>18.0</ele><time>2026-05-02T15:33:23.954Z</time></trkpt><trkpt lat="44.3110736" lon="8.4771765"><ele>18.0</ele><time>2026-05-02T15:33:26.954Z</time></trkpt><trkpt lat="44.3110899" lon="8.4772881"><ele>18.0</ele><time>2026-05-02T15:33:29.953Z</time></trkpt><trkpt lat="44.3110724" lon="8.4773868"><ele>18.0</ele><time>2026-05-02T15:33:31.953Z</time></trkpt><trkpt lat="44.3109936" lon="8.4775176"><ele>18.0</ele><time>2026-05-02T15:33:33.954Z</time></trkpt><trkpt lat="44.3109307" lon="8.4776449"><ele>18.0</ele><time>2026-05-02T15:33:35.953Z</time></trkpt><trkpt lat="44.3109008" lon="8.4777792"><ele>18.0</ele><time>2026-05-02T15:33:37.953Z</time></trkpt><trkpt lat="44.3109162" lon="8.4779099"><ele>18.0</ele><time>2026-05-02T15:33:39.954Z</time></trkpt><trkpt lat="44.3109677" lon="8.4779888"><ele>18.0</ele><time>2026-05-02T15:33:41.955Z</time></trkpt><trkpt lat="44.3110437" lon="8.4779978"><ele>18.0</ele><time>2026-05-02T15:33:43.955Z</time></trkpt><trkpt lat="44.3111334" lon="8.4779634"><ele>18.0</ele><time>2026-05-02T15:33:45.954Z</time></trkpt><trkpt lat="44.3112125" lon="8.4778626"><ele>18.0</ele><time>2026-05-02T15:33:47.953Z</time></trkpt><trkpt lat="44.3112825" lon="8.4777494"><ele>18.0</ele><time>2026-05-02T15:33:49.955Z</time></trkpt><trkpt lat="44.3113536" lon="8.4776838"><ele>18.0</ele><time>2026-05-02T15:33:51.954Z</time></trkpt><trkpt lat="44.3114243" lon="8.4776459"><ele>18.0</ele><time>2026-05-02T15:33:52.955Z</time></trkpt><trkpt lat="44.3115021" lon="8.4776105"><ele>18.0</ele><time>2026-05-02T15:33:53.953Z</time></trkpt><trkpt lat="44.3115795" lon="8.4775663"><ele>18.0</ele><time>2026-05-02T15:33:54.954Z</time></trkpt><trkpt lat="44.3116448" lon="8.4775001"><ele>18.0</ele><time>2026-05-02T15:33:55.953Z</time></trkpt><trkpt lat="44.3117133" lon="8.4774479"><ele>17.666666666666668</ele><time>2026-05-02T15:33:56.953Z</time></trkpt><trkpt lat="44.3117813" lon="8.4773785"><ele>17.333333333333332</ele><time>2026-05-02T15:33:57.955Z</time></trkpt><trkpt lat="44.3118468" lon="8.4773177"><ele>17.0</ele><time>2026-05-02T15:33:58.953Z</time></trkpt><trkpt lat="44.3119146" lon="8.477249"><ele>16.666666666666664</ele><time>2026-05-02T15:33:59.954Z</time></trkpt><trkpt lat="44.3119851" lon="8.4771969"><ele>16.333333333333332</ele><time>2026-05-02T15:34:00.954Z</time></trkpt><trkpt lat="44.3120506" lon="8.4771263"><ele>16.0</ele><time>2026-05-02T15:34:01.955Z</time></trkpt><trkpt lat="44.3121179" lon="8.4770562"><ele>15.833333333333332</ele><time>2026-05-02T15:34:02.954Z</time></trkpt><trkpt lat="44.3121925" lon="8.4769877"><ele>15.666666666666666</ele><time>2026-05-02T15:34:03.955Z</time></trkpt><trkpt lat="44.3122697" lon="8.4769303"><ele>15.5</ele><time>2026-05-02T15:34:04.954Z</time></trkpt><trkpt lat="44.3123392" lon="8.4768889"><ele>15.333333333333332</ele><time>2026-05-02T15:34:05.953Z</time></trkpt><trkpt lat="44.3124285" lon="8.4769638"><ele>15.166666666666666</ele><time>2026-05-02T15:34:08.954Z</time></trkpt><trkpt lat="44.3125159" lon="8.4769645"><ele>15.0</ele><time>2026-05-02T15:34:09.953Z</time></trkpt><trkpt lat="44.3125948" lon="8.4769441"><ele>16.0</ele><time>2026-05-02T15:34:10.954Z</time></trkpt><trkpt lat="44.3126908" lon="8.4768944"><ele>17.0</ele><time>2026-05-02T15:34:12.954Z</time></trkpt><trkpt lat="44.3127284" lon="8.4767951"><ele>18.0</ele><time>2026-05-02T15:34:14.953Z</time></trkpt><trkpt lat="44.3127179" lon="8.4766569"><ele>19.0</ele><time>2026-05-02T15:34:16.953Z</time></trkpt><trkpt lat="44.3127543" lon="8.4765343"><ele>20.0</ele><time>2026-05-02T15:34:18.953Z</time></trkpt><trkpt lat="44.3128089" lon="8.4764434"><ele>20.0</ele><time>2026-05-02T15:34:20.953Z</time></trkpt><trkpt lat="44.3129009" lon="8.4763681"><ele>20.0</ele><time>2026-05-02T15:34:22.953Z</time></trkpt><trkpt lat="44.312988" lon="8.4762846"><ele>20.0</ele><time>2026-05-02T15:34:24.953Z</time></trkpt><trkpt lat="44.3130666" lon="8.4762173"><ele>20.0</ele><time>2026-05-02T15:34:26.954Z</time></trkpt><trkpt lat="44.313132" lon="8.4761768"><ele>20.0</ele><time>2026-05-02T15:34:28.954Z</time></trkpt><trkpt lat="44.3132036" lon="8.4761285"><ele>19.428571428571427</ele><time>2026-05-02T15:34:31.953Z</time></trkpt><trkpt lat="44.313182" lon="8.4760327"><ele>18.857142857142858</ele><time>2026-05-02T15:34:36.953Z</time></trkpt><trkpt lat="44.3131034" lon="8.4759855"><ele>18.285714285714285</ele><time>2026-05-02T15:34:40.953Z</time></trkpt><trkpt lat="44.3130453" lon="8.4759261"><ele>17.714285714285715</ele><time>2026-05-02T15:34:44.953Z</time></trkpt><trkpt lat="44.3131091" lon="8.4759163"><ele>17.142857142857142</ele><time>2026-05-02T15:35:39.954Z</time></trkpt><trkpt lat="44.3131022" lon="8.4760055"><ele>16.57142857142857</ele><time>2026-05-02T15:35:47.953Z</time></trkpt><trkpt lat="44.3130695" lon="8.476082"><ele>16.0</ele><time>2026-05-02T15:35:55.953Z</time></trkpt><trkpt lat="44.3130249" lon="8.4761489"><ele>16.0</ele><time>2026-05-02T15:35:59.855Z</time></trkpt><trkpt lat="44.3129983" lon="8.4760495"><ele>15.999999999999998</ele><time>2026-05-02T15:36:41.138Z</time></trkpt><trkpt lat="44.3129831" lon="8.4761369"><ele>16.0</ele><time>2026-05-02T15:38:30.953Z</time></trkpt><trkpt lat="44.3129283" lon="8.4760695"><ele>16.0</ele><time>2026-05-02T15:40:45.952Z</time></trkpt><trkpt lat="44.3128755" lon="8.4761191"><ele>15.999999999999998</ele><time>2026-05-02T15:41:33.011Z</time></trkpt><trkpt lat="44.3128802" lon="8.4762077"><ele>16.0</ele><time>2026-05-02T15:41:56.984Z</time></trkpt><trkpt lat="44.3129444" lon="8.4761716"><ele>16.0</ele><time>2026-05-02T15:54:25.952Z</time></trkpt><trkpt lat="44.3129993" lon="8.4761284"><ele>15.999999999999998</ele><time>2026-05-02T15:54:35.952Z</time></trkpt><trkpt lat="44.312888" lon="8.4760315"><ele>16.0</ele><time>2026-05-02T15:56:06.952Z</time></trkpt><trkpt lat="44.3128781" lon="8.4761261"><ele>16.0</ele><time>2026-05-02T15:58:38.952Z</time></trkpt><trkpt lat="44.3129546" lon="8.4761391"><ele>16.0</ele><time>2026-05-02T15:59:02.951Z</time></trkpt><trkpt lat="44.3128877" lon="8.4761265"><ele>15.999999999999998</ele><time>2026-05-02T16:04:12.951Z</time></trkpt><trkpt lat="44.3128214" lon="8.4761224"><ele>16.0</ele><time>2026-05-02T16:04:21.95Z</time></trkpt><trkpt lat="44.3129693" lon="8.4761504"><ele>16.0</ele><time>2026-05-02T16:05:23.951Z</time></trkpt><trkpt lat="44.312916" lon="8.4760969"><ele>15.999999999999998</ele><time>2026-05-02T16:05:28.95Z</time></trkpt><trkpt lat="44.3129584" lon="8.4761693"><ele>16.0</ele><time>2026-05-02T16:07:56.95Z</time></trkpt><trkpt lat="44.3128682" lon="8.4761504"><ele>16.0</ele><time>2026-05-02T16:09:07.813Z</time></trkpt><trkpt lat="44.312952" lon="8.4761518"><ele>15.999999999999998</ele><time>2026-05-02T16:10:16.95Z</time></trkpt><trkpt lat="44.3129118" lon="8.4760809"><ele>16.0</ele><time>2026-05-02T16:10:41.95Z</time></trkpt><trkpt lat="44.3128766" lon="8.4761557"><ele>16.0</ele><time>2026-05-02T16:12:04.949Z</time></trkpt><trkpt lat="44.3129016" lon="8.4762563"><ele>16.0</ele><time>2026-05-02T16:12:13.95Z</time></trkpt><trkpt lat="44.3129938" lon="8.4761823"><ele>16.0</ele><time>2026-05-02T16:12:37.493Z</time></trkpt><trkpt lat="44.3128279" lon="8.4761513"><ele>16.0</ele><time>2026-05-02T16:12:53.759Z</time></trkpt><trkpt lat="44.3129573" lon="8.476152"><ele>16.0</ele><time>2026-05-02T16:14:56.949Z</time></trkpt><trkpt lat="44.3128947" lon="8.4761743"><ele>16.0</ele><time>2026-05-02T16:20:56.027Z</time></trkpt></trkseg></trk></gpx>